[[{"header":{"parameterUnit":"m.s-1","parameterCategory":1,"la1":30.6,"la2":28.766,"lo1":-90.7593,"lo2":-88.6598,"dy":0.0162,"dx":0.0183,"nx":116,"ny":114,"refTime":"2023-08-23T06:00:00:Z","depth":0,"parameterNumber":2,"parameterNumberName":"U-component_of_WINDS"},"data":[0.0,0.0,0.0,0.0,0.0,0.0,0.0,0.0,0.0,0.0,0.0,0.0,0.0,0.0,0.0,0.0,0.0,0.0,0.0,0.0,0.0,0.0,0.0,0.0,0.0,0.0,0.0,0.0,0.0,0.0,0.0,0.0,0.0,0.0,0.0,0.0,0.0,0.0,0.0,0.0,0.0,0.0,0.0,0.0,0.0,0.0,0.0,0.0,0.0,0.0,0.0,0.0,0.0,0.0,0.0,0.0,0.0,0.0,0.0,0.0,0.0,0.0,0.0,0.0,0.0,0.0,0.0,0.0,0.0,0.0,0.0,0.0,0.0,0.0,0.0,0.0,0.0,0.0,0.0,0.0,0.0,0.0,0.0,0.0,0.0,0.0,0.0,0.0,0.0,0.0,0.0,0.0,0.0,0.0,0.0,0.0,0.0,0.0,0.0,0.0,0.0,0.0,0.0,0.0,0.0,0.0,0.0,0.0,0.0,0.0,0.0,0.0,0.0,0.0,0.0,0.0,0.0,0.0,0.0,0.0,0.0,0.0,0.0,0.0,0.0,0.0,0.0,0.0,0.0,0.0,0.0,0.0,0.0,0.0,0.0,0.0,0.0,0.0,0.0,0.0,0.0,0.0,0.0,0.0,0.0,0.0,0.0,0.0,0.0,0.0,0.0,0.0,0.0,0.0,0.0,0.0,0.0,0.0,0.0,0.0,0.0,0.0,0.0,0.0,0.0,0.0,0.0,0.0,0.0,0.0,0.0,0.0,0.0,0.0,0.0,0.0,0.0,0.0,0.0,0.0,0.0,0.0,0.0,0.0,0.0,0.0,0.0,0.0,0.0,0.0,0.0,0.0,0.0,0.0,0.0,0.0,0.0,0.0,0.0,0.0,0.0,0.0,0.0,0.0,0.0,0.0,0.0,0.0,0.0,0.0,0.0,0.0,0.0,0.0,0.0,0.0,0.0,0.0,0.0,0.0,0.0,0.0,0.0,0.0,0.0,0.0,0.0,0.0,0.0,0.0,0.0,0.0,0.0,0.0,0.0,0.0,0.0,0.0,0.0,0.0,0.0,0.0,0.0,0.0,0.0,0.0,0.0,0.0,0.0,0.0,0.0,0.0,0.0,0.0,0.0,0.0,0.0,0.0,0.0,0.0,0.0,0.0,0.0,0.0,0.0,0.0,0.0,0.0,0.0,0.0,0.0,0.0,0.0,0.0,0.0,0.0,0.0,0.0,0.0,0.0,0.0,0.0,0.0,0.0,0.0,0.0,0.0,0.0,0.0,0.0,0.0,0.0,0.0,0.0,0.0,0.0,0.0,0.0,0.0,0.0,0.0,0.0,0.0,0.0,0.0,0.0,0.0,0.0,0.0,0.0,0.0,0.0,0.0,0.0,0.0,0.0,0.0,0.0,0.0,0.0,0.0,0.0,0.0,0.0,0.0,0.0,0.0,0.0,0.0,0.0,0.0,0.0,0.0,0.0,0.0,0.0,0.0,0.0,0.0,0.0,0.0,0.0,0.0,0.0,0.0,0.0,0.0,0.0,0.0,0.0,0.0,0.0,0.0,0.0,0.0,0.0,0.0,0.0,0.0,0.0,0.0,0.0,0.0,0.0,0.0,0.0,0.0,0.0,0.0,0.0,0.0,0.0,0.0,0.0,0.0,0.0,0.0,0.0,0.0,0.0,0.0,0.0,0.0,0.0,0.0,0.0,0.0,0.0,0.0,0.0,0.0,0.0,0.0,0.0,0.0,0.0,0.0,0.0,0.0,0.0,0.0,0.0,0.0,0.0,0.0,0.0,0.0,0.0,0.0,0.0,0.0,0.0,0.0,0.0,0.0,0.0,0.0,0.0,0.0,0.0,0.0,0.0,0.0,0.0,0.0,0.0,0.0,0.0,0.0,0.0,0.0,0.0,0.0,0.0,0.0,0.0,0.0,0.0,0.0,0.0,0.0,0.0,0.0,0.0,0.0,0.0,0.0,0.0,0.0,0.0,0.0,0.0,0.0,0.0,0.0,0.0,0.0,0.0,0.0,0.0,0.0,0.0,0.0,0.0,0.0,0.0,0.0,0.0,0.0,0.0,0.0,0.0,0.0,0.0,0.0,0.0,0.0,0.0,0.0,0.0,0.0,0.0,0.0,0.0,0.0,0.0,0.0,0.0,0.0,0.0,0.0,0.0,0.0,0.0,0.0,0.0,0.0,0.0,0.0,0.0,0.0,0.0,0.0,0.0,0.0,0.0,0.0,0.0,0.0,0.0,0.0,0.0,0.0,0.0,0.0,0.0,0.0,0.0,0.0,0.0,0.0,0.0,0.0,0.0,0.0,0.0,0.0,0.0,0.0,0.0,0.0,0.0,0.0,0.0,0.0,0.0,0.0,0.0,0.0,0.0,0.0,0.0,0.0,0.0,0.0,0.0,0.0,0.0,0.0,0.0,0.0,0.0,0.0,0.0,0.0,0.0,0.0,0.0,0.0,0.0,0.0,0.0,0.0,0.0,0.0,0.0,0.0,0.0,0.0,0.0,0.0,0.0,0.0,0.0,0.0,0.0,0.0,0.0,0.0,0.0,0.0,0.0,0.0,0.0,0.0,0.0,0.0,0.0,0.0,0.0,0.0,0.0,0.0,0.0,0.0,0.0,0.0,0.0,0.0,0.0,0.0,0.0,0.0,0.0,0.0,0.0,0.0,0.0,0.0,0.0,0.0,0.0,0.0,0.0,0.0,0.0,0.0,0.0,0.0,0.0,0.0,0.0,0.0,0.0,0.0,0.0,0.0,0.0,0.0,0.0,0.0,0.0,0.0,0.0,0.0,0.0,0.0,0.0,0.0,0.0,0.0,0.0,0.0,0.0,0.0,0.0,0.0,0.0,0.0,0.0,0.0,0.0,0.0,0.0,0.0,0.0,0.0,0.0,0.0,0.0,0.0,0.0,0.0,0.0,0.0,0.0,0.0,0.0,0.0,0.0,0.0,0.0,0.0,0.0,0.0,0.0,0.0,0.0,0.0,0.0,0.0,0.0,0.0,0.0,0.0,0.0,0.0,0.0,0.0,0.0,0.0,0.0,0.0,0.0,0.0,0.0,0.0,0.0,0.0,0.0,0.0,0.0,0.0,0.0,0.0,0.0,0.0,0.0,0.0,0.0,0.0,0.0,0.0,0.0,0.0,0.0,0.0,0.0,0.0,0.0,0.0,0.0,0.0,0.0,0.0,0.0,0.0,0.0,0.0,0.0,0.0,0.0,0.0,0.0,0.0,0.0,0.0,0.0,0.0,0.0,0.0,0.0,0.0,0.0,0.0,0.0,0.0,0.0,0.0,0.0,0.0,0.0,0.0,0.0,0.0,0.0,0.0,0.0,0.0,0.0,0.0,0.0,0.0,0.0,0.0,0.0,0.0,0.0,0.0,0.0,0.0,0.0,0.0,0.0,0.0,0.0,0.0,0.0,0.0,0.0,0.0,0.0,0.0,0.0,0.0,0.0,0.0,0.0,0.0,0.0,0.0,0.0,0.0,0.0,0.0,0.0,0.0,0.0,0.0,0.0,0.0,0.0,0.0,0.0,0.0,0.0,0.0,0.0,0.0,0.0,0.0,0.0,0.0,0.0,0.0,0.0,0.0,0.0,0.0,0.0,0.0,0.0,0.0,0.0,0.0,0.0,0.0,0.0,0.0,0.0,0.0,0.0,0.0,0.0,0.0,0.0,0.0,0.0,0.0,0.0,0.0,0.0,0.0,0.0,0.0,0.0,0.0,0.0,0.0,0.0,0.0,0.0,0.0,0.0,0.0,0.0,0.0,0.0,0.0,0.0,0.0,0.0,0.0,0.0,0.0,0.0,0.0,0.0,0.0,0.0,0.0,0.0,0.0,0.0,0.0,0.0,0.0,0.0,0.0,0.0,0.0,0.0,0.0,0.0,0.0,0.0,0.0,0.0,0.0,0.0,0.0,0.0,0.0,0.0,0.0,0.0,0.0,0.0,0.0,0.0,0.0,0.0,0.0,0.0,0.0,0.0,0.0,0.0,0.0,0.0,0.0,0.0,0.0,0.0,0.0,0.0,0.0,0.0,0.0,0.0,0.0,0.0,0.0,0.0,0.0,0.0,0.0,0.0,0.0,0.0,0.0,0.0,0.0,0.0,0.0,0.0,0.0,0.0,0.0,0.0,0.0,0.0,0.0,0.0,0.0,0.0,0.0,0.0,0.0,0.0,0.0,0.0,0.0,0.0,0.0,0.0,0.0,0.0,0.0,0.0,0.0,0.0,0.0,0.0,0.0,0.0,0.0,0.0,0.0,0.0,0.0,0.0,0.0,0.0,0.0,0.0,0.0,0.0,0.0,0.0,0.0,0.0,0.0,0.0,0.0,0.0,0.0,0.0,0.0,0.0,0.0,0.0,0.0,0.0,0.0,0.0,0.0,0.0,0.0,0.0,0.0,0.0,0.0,0.0,0.0,0.0,0.0,0.0,0.0,0.0,0.0,0.0,0.0,0.0,0.0,0.0,0.0,0.0,0.0,0.0,0.0,0.0,0.0,0.0,0.0,0.0,0.0,0.0,0.0,0.0,0.0,0.0,0.0,0.0,0.0,0.0,0.0,0.0,0.0,0.0,0.0,0.0,0.0,0.0,0.0,0.0,0.0,0.0,0.0,0.0,0.0,0.0,0.0,0.0,0.0,0.0,0.0,0.0,0.0,0.0,0.0,0.0,0.0,0.0,0.0,0.0,0.0,0.0,0.0,0.0,0.0,0.0,0.0,0.0,0.0,0.0,0.0,0.0,0.0,0.0,0.0,0.0,0.0,0.0,0.0,0.0,0.0,0.0,0.0,0.0,0.0,0.0,0.0,0.0,0.0,0.0,0.0,0.0,0.0,0.0,0.0,0.0,0.0,0.0,0.0,0.0,0.0,0.0,0.0,0.0,0.0,0.0,0.0,0.0,0.0,0.0,0.0,0.0,0.0,0.0,0.0,0.0,0.0,0.0,0.0,0.0,0.0,0.0,0.0,0.0,0.0,0.0,0.0,0.0,0.0,0.0,0.0,0.0,0.0,0.0,0.0,0.0,0.0,0.0,0.0,0.0,0.0,0.0,0.0,0.0,0.0,0.0,0.0,0.0,0.0,0.0,0.0,0.0,0.0,0.0,0.0,0.0,0.0,0.0,0.0,0.0,0.0,0.0,0.0,0.0,0.0,0.0,0.0,0.0,0.0,0.0,0.0,0.0,0.0,0.0,0.0,0.0,0.0,0.0,0.0,0.0,0.0,0.0,0.0,0.0,0.0,0.0,0.0,0.0,0.0,0.0,0.0,0.0,0.0,0.0,0.0,0.0,0.0,0.0,0.0,0.0,0.0,0.0,0.0,0.0,0.0,0.0,0.0,0.0,0.0,0.0,0.0,0.0,0.0,0.0,0.0,0.0,0.0,0.0,0.0,0.0,0.0,0.0,0.0,0.0,0.0,0.0,0.0,0.0,0.0,0.0,0.0,0.0,0.0,0.0,0.0,0.0,0.0,0.0,0.0,0.0,0.0,0.0,0.0,0.0,0.0,0.0,0.0,0.0,0.0,0.0,0.0,0.0,0.0,0.0,0.0,0.0,0.0,0.0,0.0,0.0,0.0,0.0,0.0,0.0,0.0,0.0,0.0,0.0,0.0,0.0,0.0,0.0,0.0,0.0,0.0,0.0,0.0,0.0,0.0,0.0,0.0,0.0,0.0,0.0,0.0,0.0,0.0,0.0,0.0,0.0,0.0,0.0,0.0,0.0,0.0,0.0,0.0,0.0,0.0,0.0,0.0,0.0,0.0,0.0,0.0,0.0,0.0,0.0,0.0,0.0,0.0,0.0,0.0,0.0,0.0,0.0,0.0,0.0,0.0,0.0,0.0,0.0,0.0,0.0,0.0,0.0,0.0,0.0,0.0,0.0,0.0,0.0,0.0,0.0,0.0,0.0,0.0,0.0,0.0,0.0,0.0,0.0,0.0,0.0,0.0,0.0,0.0,0.0,0.0,0.0,0.0,0.0,0.0,0.0,0.0,0.0,0.0,0.0,0.0,0.0,0.0,0.0,0.0,0.0,0.0,0.0,0.0,0.0,0.0,0.0,0.0,0.0,0.0,0.0,-1.6336,0.0,0.0,0.0,0.0,0.0,0.0,0.0,0.0,0.0,0.0,0.0,0.0,0.0,0.0,0.0,0.0,0.0,0.0,0.0,0.0,0.0,0.0,0.0,0.0,0.0,0.0,0.0,0.0,0.0,0.0,0.0,0.0,0.0,0.0,0.0,0.0,0.0,0.0,0.0,-2.7124,-2.7714,-2.8393,-2.8792,-2.8796,-2.8448,0.0,0.0,0.0,0.0,0.0,0.0,0.0,0.0,0.0,0.0,0.0,0.0,0.0,0.0,0.0,0.0,0.0,0.0,0.0,0.0,0.0,0.0,0.0,0.0,0.0,0.0,0.0,0.0,0.0,0.0,0.0,0.0,0.0,0.0,0.0,0.0,0.0,0.0,0.0,0.0,0.0,0.0,0.0,0.0,0.0,0.0,0.0,0.0,0.0,0.0,0.0,0.0,0.0,0.0,0.0,0.0,0.0,0.0,0.0,0.0,0.0,0.0,0.0,0.0,0.0,0.0,0.0,0.0,0.0,0.0,0.0,-1.638,0.0,0.0,0.0,0.0,0.0,0.0,0.0,0.0,0.0,0.0,0.0,0.0,0.0,0.0,0.0,0.0,0.0,0.0,0.0,0.0,0.0,0.0,0.0,-2.3543,-2.4057,-2.3816,-2.3996,-2.4426,0.0,0.0,0.0,0.0,0.0,0.0,0.0,-2.7173,-2.7285,-2.6497,-2.6914,-2.7818,-2.9195,-2.9342,-2.9145,-2.865,-2.8906,0.0,0.0,0.0,0.0,0.0,0.0,0.0,0.0,0.0,0.0,0.0,0.0,0.0,0.0,0.0,0.0,0.0,0.0,0.0,0.0,0.0,0.0,0.0,0.0,0.0,0.0,0.0,0.0,0.0,0.0,0.0,0.0,0.0,0.0,0.0,0.0,0.0,0.0,0.0,0.0,0.0,0.0,0.0,0.0,0.0,0.0,0.0,0.0,0.0,0.0,0.0,0.0,0.0,0.0,0.0,0.0,0.0,0.0,0.0,0.0,0.0,0.0,0.0,-2.12,-2.1384,-2.1703,-2.0942,-1.9829,-1.8508,-1.7721,-1.6038,-1.4083,-1.682,0.0,0.0,0.0,0.0,0.0,0.0,0.0,0.0,0.0,0.0,0.0,0.0,0.0,0.0,0.0,0.0,0.0,0.0,0.0,0.0,0.0,-2.3658,-2.4061,-2.4133,-2.3917,-2.3933,-2.4317,0.0,0.0,0.0,0.0,0.0,-2.4816,-2.5596,-2.6038,-2.6094,-2.7345,-2.8651,-3.0063,-3.076,-3.1403,-3.188,-2.9874,-3.0149,-3.2008,0.0,0.0,0.0,0.0,0.0,0.0,0.0,0.0,0.0,0.0,0.0,0.0,0.0,0.0,0.0,0.0,0.0,0.0,0.0,0.0,0.0,0.0,0.0,0.0,0.0,0.0,0.0,0.0,0.0,0.0,0.0,0.0,0.0,0.0,0.0,0.0,0.0,0.0,0.0,0.0,0.0,-2.1498,-2.0804,0.0,0.0,0.0,0.0,0.0,0.0,0.0,0.0,0.0,0.0,0.0,0.0,0.0,-2.3951,-2.3629,-2.3655,-2.2852,-2.12,-2.12,-2.0732,-1.9848,-1.9727,-1.9489,-1.9133,-1.8341,0.0,-1.5435,-1.5889,0.0,0.0,0.0,0.0,0.0,0.0,0.0,0.0,0.0,0.0,0.0,0.0,0.0,0.0,0.0,0.0,0.0,0.0,0.0,0.0,0.0,-2.3945,-2.4301,-2.4375,-2.5362,-2.5661,-2.4924,-2.6796,0.0,0.0,0.0,-2.6674,-2.537,-2.58,-2.6321,-2.6911,-2.8652,-3.0278,-3.1779,-3.1998,-3.2742,-3.389,-3.2826,-3.2228,-3.1861,-3.0797,0.0,0.0,0.0,0.0,0.0,0.0,0.0,0.0,0.0,0.0,0.0,0.0,0.0,0.0,0.0,0.0,0.0,0.0,0.0,0.0,0.0,0.0,0.0,0.0,0.0,0.0,0.0,0.0,0.0,0.0,0.0,0.0,0.0,0.0,0.0,0.0,0.0,0.0,0.0,-2.2939,-2.3495,-2.3149,-2.4101,-2.462,0.0,0.0,0.0,0.0,0.0,0.0,0.0,0.0,0.0,-2.3156,-2.3893,-2.3809,-2.2782,-2.3209,-2.3149,-2.265,-2.265,-2.259,-2.2459,-2.1971,-2.1718,-2.1587,-2.0206,-1.9217,-1.8493,-1.7472,-1.7197,-1.7527,0.0,0.0,0.0,0.0,-1.8938,-1.8544,0.0,0.0,0.0,0.0,0.0,0.0,0.0,0.0,0.0,0.0,0.0,0.0,-2.3896,-2.458,-2.5061,-2.519,-2.673,-2.7132,-2.587,-2.7331,-2.7744,0.0,-2.6637,-2.6384,-2.5758,-2.639,-2.7211,-2.8215,-3.0374,-3.2231,-3.3736,-3.3895,-3.4805,-3.6353,-3.6277,-3.5037,-3.2908,-3.2265,-3.098,-2.9329,0.0,0.0,0.0,0.0,0.0,0.0,0.0,0.0,0.0,0.0,0.0,0.0,0.0,0.0,0.0,0.0,0.0,0.0,0.0,0.0,0.0,0.0,0.0,0.0,0.0,0.0,0.0,0.0,0.0,0.0,0.0,0.0,0.0,0.0,0.0,0.0,0.0,-2.3304,-2.4245,-2.4053,-2.461,-2.4936,0.0,0.0,0.0,0.0,0.0,0.0,-2.3437,-2.4043,-2.41,-2.3443,-2.3988,-2.3733,-2.2611,-2.316,-2.3649,-2.4102,-2.4102,-2.4341,-2.4785,-2.4124,-2.3709,-2.3412,-2.2042,-2.1218,-2.0704,-1.8911,-1.7946,-1.772,-1.9125,-1.9295,-1.8826,-1.9575,-1.9419,-1.8731,0.0,0.0,0.0,0.0,0.0,0.0,0.0,0.0,0.0,0.0,0.0,-2.35,-2.4878,-2.5791,-2.6548,-2.7116,-2.7274,-2.718,-2.6842,-2.6401,-2.6026,-2.5781,-2.5933,-2.5735,-2.5063,-2.6872,-2.849,-2.9865,-3.2384,-3.4375,-3.5769,-3.705,-3.8495,-4.003,-3.9792,-3.8726,-3.7019,-3.4669,-3.3605,-3.3293,-3.1054,0.0,0.0,0.0,0.0,0.0,0.0,0.0,0.0,0.0,0.0,0.0,0.0,0.0,0.0,0.0,0.0,0.0,0.0,0.0,0.0,0.0,0.0,0.0,0.0,0.0,0.0,0.0,0.0,0.0,0.0,0.0,0.0,0.0,0.0,0.0,0.0,0.0,0.0,-2.0639,-2.2743,0.0,0.0,0.0,0.0,-2.5461,-2.5523,-2.5215,-2.4375,-2.4375,-2.4375,-2.4336,-2.4255,-2.4569,-2.5289,-2.5216,-2.5107,-2.4934,-2.4934,-2.4886,-2.4804,-2.4747,-2.428,-2.3498,-2.3266,-2.2345,-2.0847,-1.9114,-1.8814,-1.9484,-1.9774,-1.9901,-1.9917,-1.9974,-1.956,-1.8869,0.0,0.0,0.0,0.0,0.0,0.0,0.0,0.0,-2.1536,-2.2198,-2.3524,-2.5078,-2.6838,-2.764,-2.8157,-2.8375,-2.9152,-2.8923,-2.7271,-2.7387,-2.7358,-2.6953,-2.6446,-2.6644,-2.7631,-2.8868,-3.0559,-3.2703,-3.4522,-3.6499,-3.8592,-3.8924,-3.9932,-4.1487,-4.19,-4.1353,-4.001,-3.7853,-3.5734,-3.3623,-3.1733,-3.0045,0.0,0.0,0.0,0.0,0.0,0.0,0.0,0.0,0.0,0.0,0.0,0.0,0.0,0.0,0.0,0.0,0.0,0.0,0.0,0.0,0.0,0.0,0.0,0.0,0.0,0.0,0.0,0.0,0.0,0.0,0.0,0.0,0.0,0.0,0.0,0.0,0.0,-2.4332,-2.5719,0.0,-2.6214,-2.5823,-2.5835,-2.6384,-2.5973,-2.5566,-2.5254,-2.5762,-2.5777,-2.5138,-2.5063,-2.5129,-2.536,-2.5312,-2.5264,-2.5184,-2.5184,-2.5171,-2.5126,-2.5126,-2.4943,-2.4618,-2.3923,-2.3316,-2.2714,-2.1571,-2.0561,-1.9738,-1.989,-1.9668,-1.9306,-1.996,-1.9684,-1.8953,0.0,0.0,0.0,0.0,0.0,0.0,0.0,0.0,-2.1333,-2.201,-2.365,-2.5593,-2.7791,-2.8938,-2.9776,-3.0337,-3.0618,-3.016,-2.8742,-2.8101,-2.7709,-2.7573,-2.7103,-2.7819,-2.9929,-3.1102,-3.2795,-3.5045,-3.6581,-3.8299,-4.0251,-4.0228,-4.1105,-4.2697,-4.3107,-4.2964,-4.2321,-4.1033,-3.8398,-3.4908,-3.3275,-3.2137,-3.1121,0.0,0.0,0.0,0.0,0.0,0.0,0.0,0.0,0.0,0.0,0.0,0.0,0.0,0.0,0.0,0.0,0.0,0.0,0.0,0.0,0.0,0.0,0.0,0.0,0.0,0.0,0.0,0.0,0.0,0.0,0.0,0.0,0.0,0.0,0.0,-2.6506,-2.7364,-2.7799,-2.8029,-2.8067,-2.7124,-2.6749,-2.7334,-2.6619,-2.6133,-2.6133,-2.6406,-2.6265,-2.5584,-2.5551,-2.5488,-2.5371,-2.5348,-2.5331,-2.5303,-2.5303,-2.5303,-2.5303,-2.5303,-2.5149,-2.4861,-2.4422,-2.3919,-2.3424,-2.2808,-2.1869,-2.0858,-2.1235,-2.0881,-2.023,-2.0903,-2.0581,-1.9761,0.0,0.0,0.0,0.0,0.0,0.0,0.0,-2.0321,-2.106,-2.0925,-2.2698,-2.4999,-2.7645,-2.9551,-3.1304,-3.2954,-3.1502,-3.0684,-3.1197,-2.831,-2.6864,-2.7573,-2.7869,-2.9217,-3.1795,-3.3449,-3.5103,-3.6776,-3.8527,-3.9777,-4.0585,-4.1131,-4.2276,-4.3836,-4.3531,-4.3611,-4.4028,-4.4028,-4.1586,-3.7544,-3.5807,-3.4633,-3.3605,0.0,0.0,0.0,0.0,0.0,0.0,0.0,0.0,0.0,0.0,0.0,0.0,0.0,0.0,0.0,0.0,0.0,0.0,0.0,0.0,0.0,0.0,0.0,0.0,0.0,0.0,0.0,0.0,0.0,0.0,0.0,0.0,0.0,-2.6678,-2.742,-2.826,-2.9135,-2.8612,-2.8203,-2.8276,-2.8317,-2.8359,-2.8379,-2.7578,-2.707,-2.707,-2.625,-2.5762,-2.5742,-2.5654,-2.5564,-2.5493,-2.5428,-2.5371,-2.5293,-2.5313,-2.5303,-2.5303,-2.5303,-2.487,-2.4178,-2.4755,-2.4173,-2.2822,-2.2668,-2.2689,-2.2908,-2.3706,-2.3514,-2.2793,-2.2793,-2.2254,-2.1254,0.0,0.0,0.0,0.0,0.0,0.0,0.0,-2.0413,-2.1138,-2.0853,-2.389,-2.6787,-2.8641,-3.0458,-3.2004,-3.3145,-3.104,-2.9686,-2.9838,-2.726,-2.6882,-2.9505,-3.029,-3.2122,-3.5257,-3.5776,-3.6853,-3.8584,-4.0277,-4.1546,-4.2393,-4.3131,-4.4056,-4.5111,-4.4998,-4.4891,-4.4762,-4.4553,-4.3568,-4.1939,-3.8902,-3.6853,-3.533,0.0,0.0,0.0,0.0,0.0,0.0,0.0,0.0,0.0,0.0,0.0,0.0,0.0,0.0,0.0,0.0,0.0,0.0,0.0,0.0,0.0,0.0,0.0,0.0,0.0,0.0,0.0,0.0,0.0,0.0,0.0,0.0,-2.914,-2.8506,-2.8657,-2.9175,-3.0034,-3.0047,-2.9982,-3.0013,-2.9546,-2.9492,-3.0137,-2.9375,-2.8887,-2.8887,-2.8066,-2.7265,-2.6591,-2.5937,-2.5564,-2.5493,-2.5434,-2.5391,-2.5368,-2.5312,-2.5303,-2.5303,-2.5303,-2.5168,-2.4986,-2.5157,-2.4668,-2.3774,-2.4312,-2.4226,-2.3648,-2.2601,-2.2447,-2.2793,-2.2793,-2.2254,-2.1254,0.0,0.0,0.0,0.0,0.0,0.0,0.0,-2.0188,-2.0768,-2.023,-2.3591,-2.639,-2.7329,-2.9483,-3.1208,-3.2098,-3.0134,-2.8978,-2.9285,-2.7893,-2.8407,-3.1438,-3.2355,-3.4214,-3.7263,-3.7627,-3.8647,-4.0428,-4.1343,-4.246,-4.3709,-4.4116,-4.4759,-4.5586,-4.5586,-4.5419,-4.5074,-4.4896,-4.4482,-4.3818,-4.1748,-4.0277,-3.8927,-3.5477,-3.4578,-3.4853,-3.254,-3.21,-3.2239,-2.9837,0.0,0.0,0.0,0.0,0.0,0.0,0.0,0.0,0.0,0.0,0.0,0.0,0.0,0.0,0.0,0.0,0.0,0.0,0.0,0.0,0.0,0.0,0.0,0.0,-3.0794,-3.1954,-3.1841,-3.1255,-3.118,-3.2117,-3.1967,-3.1794,-3.1827,-3.1444,-3.1406,-3.1914,-3.1172,-3.0527,-3.0156,-2.9316,-2.8261,-2.6984,-2.6457,-2.5976,-2.5547,-2.5488,-2.5428,-2.5406,-2.533,-2.5303,-2.5303,-2.5303,-2.5303,-2.5303,-2.5303,-2.5024,-2.461,-2.4771,-2.475,0.0,0.0,0.0,0.0,0.0,-2.2043,-2.0869,0.0,0.0,0.0,0.0,0.0,0.0,0.0,-1.9914,-2.0248,-1.9289,-2.242,-2.4714,-2.458,-2.7205,-2.9285,-3.0117,-2.8781,-2.8281,-2.9121,-2.9405,-3.072,-3.3387,-3.4307,-3.597,-3.8577,-3.9277,-4.0436,-4.2164,-4.2126,-4.2937,-4.4499,-4.4469,-4.4855,-4.5586,-4.5586,-4.5438,-4.514,-4.5118,-4.4713,-4.4117,-4.4028,-4.3749,-4.2873,-3.8505,-3.7606,-3.8303,-3.5183,-3.3678,-3.2999,-3.2008,0.0,0.0,0.0,0.0,0.0,0.0,0.0,0.0,0.0,0.0,0.0,0.0,0.0,0.0,0.0,0.0,0.0,0.0,0.0,0.0,0.0,0.0,0.0,0.0,-3.391,-3.4815,-3.5766,-3.4623,-3.3903,-3.4523,-3.3841,-3.3328,-3.3398,-3.3398,-3.3398,-3.3398,-3.2656,-3.1855,-3.1094,0.0,0.0,0.0,0.0,-2.66,-2.5763,-2.5582,-2.5477,-2.5413,-2.533,-2.5303,-2.5303,-2.5303,-2.5303,-2.5303,-2.5303,-2.5293,-2.5264,-2.4602,-2.4754,-2.5406,-2.5357,-2.5254,-2.4995,-2.3512,-2.1886,-2.0462,0.0,0.0,0.0,0.0,0.0,0.0,0.0,-2.021,-2.0463,-1.8581,-2.1863,-2.378,-2.22,-2.4555,-2.6619,-2.7532,-2.6738,-2.681,-2.8304,-2.9689,-3.1893,-3.5158,-3.6735,-3.8723,-4.1282,-4.1498,-4.2062,-4.3119,-4.3695,-4.4163,-4.4499,-4.5086,-4.5432,-4.5586,-4.5586,-4.5568,-4.5495,-4.5222,-4.5011,-4.483,-4.4261,-4.3415,-4.2359,-4.0781,-3.957,-3.845,-3.6505,-3.6119,-3.6211,-3.4045,-3.3982,-3.4385,-3.2078,-2.9893,0.0,0.0,0.0,0.0,0.0,0.0,0.0,0.0,0.0,0.0,0.0,0.0,0.0,0.0,0.0,0.0,0.0,0.0,0.0,-3.4661,-3.568,-3.6588,-3.7633,-3.7491,-3.6612,-3.4819,-3.3877,-3.3398,-3.3398,-3.3398,-3.3398,-3.3398,-3.2656,-3.2129,-3.1953,-3.0469,-2.9453,-2.9101,-2.7734,-2.6914,-2.6737,-2.5912,-2.5484,-2.5488,0.0,0.0,-2.5303,-2.5303,-2.5303,-2.5303,-2.5303,-2.533,-2.5364,-2.5231,-2.5299,-2.5488,-2.5477,-2.5038,-2.436,-2.4057,-2.2829,-2.1339,0.0,0.0,0.0,0.0,0.0,0.0,0.0,-2.0156,-2.0661,-1.946,-2.2371,-2.4007,-2.2555,-2.4223,-2.5632,-2.6106,-2.5818,-2.6511,-2.8711,-3.0449,-3.2945,-3.6398,-3.8127,-3.9803,-4.1512,-4.1902,-4.2564,-4.3493,-4.4247,-4.4832,-4.5315,-4.5564,-4.5692,-4.5712,-4.608,-4.624,-4.624,-4.6071,-4.5874,-4.5627,-4.484,-4.3857,-4.2672,-4.153,-4.0359,-3.9124,-3.7626,-3.6841,-3.6379,-3.5547,-3.5547,-3.5668,-3.4246,-3.2405,-3.0436,0.0,0.0,0.0,0.0,0.0,0.0,0.0,0.0,0.0,0.0,0.0,0.0,0.0,0.0,-3.2488,0.0,0.0,-3.6007,-3.7719,-3.8334,-3.8672,-3.8921,-3.8576,-3.7884,-3.6743,-3.5858,-3.5351,-3.5351,-3.4961,-3.4707,-3.4707,-3.4336,-3.3906,-3.3476,-3.2207,-3.0918,-2.9648,-2.832,-2.7226,-2.6367,-2.5779,-2.5493,-2.5508,-2.5363,-2.5303,-2.5303,-2.5303,-2.5303,-2.5313,-2.533,-2.5379,-2.542,-2.5463,-2.5543,-2.5601,-2.5601,-2.5051,-2.4258,-2.4206,-2.3089,-2.1643,0.0,0.0,0.0,0.0,0.0,0.0,0.0,-1.9921,-2.0689,-2.0365,-2.2664,-2.3949,-2.295,-2.4072,-2.4987,-2.5149,-2.5379,-2.6704,-2.9536,-3.1362,-3.3875,-3.7362,-3.9248,-4.0639,-4.1518,-4.2276,-4.3134,-4.4117,-4.4695,-4.5345,-4.6069,-4.6044,-4.6035,-4.6051,-4.6808,-4.7144,-4.7144,-4.7144,-4.6858,-4.6347,-4.5633,-4.4653,-4.3492,-4.1917,-4.0671,-3.966,-3.8226,-3.669,-3.5384,-3.6056,-3.6006,-3.569,-3.5569,-3.443,-3.2596,-3.0167,-2.8558,0.0,0.0,0.0,0.0,0.0,0.0,0.0,0.0,0.0,-3.139,-3.3408,-3.4418,-3.5637,-3.804,-3.8623,-3.9238,-4.0758,-4.0854,-4.0602,-4.0157,-3.921,-3.8558,-3.8593,-3.7676,-3.7051,-3.7051,-3.6406,-3.5996,-3.5996,-3.584,-3.5371,-3.4492,-3.3633,-3.2148,-2.9922,-2.8848,-2.7695,-2.6444,-2.5814,-2.5581,-2.574,-2.5432,-2.5399,-2.5562,-2.5408,-2.5418,-2.5588,-2.5471,-2.5441,-2.5453,-2.5564,-2.5658,-2.5703,-2.5703,-2.5245,-2.4569,-2.4469,-2.3353,-2.1983,0.0,0.0,0.0,0.0,0.0,0.0,0.0,0.0,-2.0344,-1.9768,-2.1365,-2.2041,-2.0642,-2.2103,-2.3495,-2.4277,-2.5056,-2.6914,-3.0267,-3.2166,-3.4705,-3.8138,-4.0721,-4.2519,-4.3378,-4.4237,-4.5116,-4.5996,-4.5952,-4.5936,-4.5935,-4.6569,-4.6839,-4.6814,-4.7605,-4.7971,-4.7971,-4.7971,-4.7529,-4.68,-4.635,-4.5646,-4.4684,-4.2718,-4.0961,-3.932,-3.7704,-3.6032,-3.4642,-3.4736,-3.5488,-3.6523,-3.7318,-3.6278,-3.4257,-3.1843,0.0,-2.6686,-2.641,-2.7053,0.0,-2.9457,-2.9638,-3.0826,0.0,0.0,-3.5817,-3.8073,-3.895,-3.9471,-4.0111,-4.0854,-4.17,-4.2643,-4.2162,-4.1702,-4.1809,-4.0454,-3.924,-3.8671,-3.7148,-3.6152,-3.6152,-3.6055,-3.5996,-3.5996,-3.5273,-3.4453,-3.3594,-3.2773,-3.1855,-3.0781,-2.916,-2.8552,-2.9079,-2.6693,-2.5865,-2.6556,-2.5697,-2.5744,-2.6521,-2.5747,-2.5835,-2.6587,-2.5882,-2.559,-2.5573,-2.566,-2.5683,-2.5703,-2.5703,-2.5644,-2.5524,-2.5407,-2.4292,-2.2955,0.0,0.0,0.0,0.0,0.0,0.0,0.0,0.0,0.0,-2.0984,-2.2262,-2.3118,-2.298,-2.3765,-2.443,-2.4807,-2.5163,-2.6653,-2.9647,-3.1469,-3.3963,-3.7439,-4.0077,-4.1881,-4.2754,-4.4153,-4.5063,-4.5434,-4.5956,-4.6198,-4.614,-4.6378,-4.6735,-4.7213,-4.7998,-4.8619,-4.9084,-4.8995,-4.8485,-4.7658,-4.6935,-4.5841,-4.4384,-4.2049,-3.9795,-3.7698,-3.6331,-3.4453,0.0,-3.2598,-3.36,-3.4867,-3.4945,-3.4457,-3.3315,-3.0754,-2.9714,0.0,-3.054,0.0,0.0,0.0,-3.3836,-3.5716,-3.7136,-3.7929,-3.8899,-4.0862,-4.182,-4.2527,-4.3321,-4.3355,-4.3374,0.0,-4.2681,-4.1875,-4.2062,-3.9774,-3.7831,-3.7166,-3.5547,-3.4883,-3.5898,-3.5078,-3.4707,-3.5215,-3.4902,-3.4316,-3.3457,-3.3555,-3.2812,-3.0957,-3.0195,-2.9469,-2.8739,-2.7585,-2.7155,-2.7442,-2.7069,-2.6799,-2.6703,-2.689,-2.7211,-2.7534,-2.6181,-2.5904,-2.6383,-2.5898,-2.5703,-2.5703,-2.5703,-2.5703,-2.5683,-2.5598,-2.4783,-2.3869,0.0,0.0,0.0,0.0,0.0,0.0,0.0,0.0,0.0,0.0,-2.2748,-2.3877,-2.4962,-2.5214,-2.5303,-2.5303,-2.5303,-2.6323,-2.8769,-3.0292,-3.2656,-3.6129,-3.8739,-4.0731,-4.2058,-4.3888,-4.4938,-4.5152,-4.5932,-4.6289,-4.6246,-4.6397,-4.6782,-4.7384,-4.8152,-4.8856,-4.943,-4.9304,-4.8739,-4.7854,-4.6904,-4.5509,-4.3662,-4.0873,-3.8219,-3.5806,-3.4282,-3.229,-3.0343,-3.0309,-3.1188,-3.2346,-3.2422,-3.2378,-3.1964,-3.0263,-3.0533,-3.1604,-3.254,0.0,0.0,-3.4431,-3.7121,-3.9439,-3.8371,-3.9618,-4.1449,-4.302,-4.3441,-4.3788,-4.4743,-4.3989,-4.3335,-4.3566,-4.2585,-4.1875,-4.2062,-3.9357,-3.7027,-3.6112,-3.4277,-3.3555,-3.4824,-3.4004,-3.3652,-3.4297,-3.4336,-3.3965,-3.3105,-3.3672,-3.3047,-3.0976,-3.0644,-2.999,-2.8876,-2.8369,-2.8185,-2.8321,-2.8117,-2.7835,-2.7505,-2.8193,-2.8408,-2.8133,-2.6648,-2.6362,-2.6934,-2.6055,-2.5703,-2.5703,-2.5703,-2.5703,-2.5683,-2.5657,-2.5225,-2.4732,0.0,0.0,0.0,0.0,0.0,0.0,0.0,0.0,0.0,0.0,0.0,0.0,0.0,-2.5303,-2.5303,-2.5303,-2.5303,-2.6043,-2.7824,-2.8836,-3.0898,-3.4322,-3.6973,-3.9546,-4.2054,-4.3938,-4.5273,-4.605,-4.6225,-4.6225,-4.6113,-4.6962,-4.7314,-4.7241,-4.8098,-4.8506,-4.8536,-4.8406,-4.7835,-4.6969,-4.6018,-4.4624,-4.2777,-3.9373,-3.6488,-3.3949,-3.1436,-2.9456,-2.8005,-2.7995,-2.839,-2.9133,-3.0744,-3.0941,0.0,-3.1426,-3.1523,-3.1237,0.0,0.0,-3.5155,-3.6009,-3.8266,-4.0477,-4.1269,-4.2366,-4.3567,-4.4763,-4.3704,-4.2679,-4.3092,-4.1758,-4.0893,-4.1739,-4.1835,-4.1875,-4.2062,-3.9882,-3.7702,-3.617,-3.3769,-3.2266,0.0,-3.2969,-3.3418,-3.3437,-3.3437,-3.3086,-3.2285,-3.2266,-3.1855,-3.0937,-3.0027,-2.9854,-3.0508,-2.8913,-2.8463,-2.9151,-2.8443,-2.8552,-2.9411,-2.9509,-2.9082,-2.8242,-2.7344,-2.6973,-2.6934,-2.6055,-2.5703,-2.5703,-2.5703,-2.5703,-2.5703,-2.5703,-2.564,-2.5551,0.0,0.0,0.0,0.0,0.0,0.0,0.0,0.0,0.0,0.0,0.0,0.0,0.0,0.0,0.0,0.0,-2.5099,-2.5597,-2.6764,-2.7689,-2.9248,-3.1637,-3.4762,-3.7356,-3.9347,-4.1752,-4.34,-4.4318,-4.4434,-4.4508,-4.4506,-4.4819,-4.5224,-4.5779,-4.6655,-4.7357,-4.7923,-4.8379,-4.8009,-4.6959,-4.4854,-4.3288,-4.1681,-3.6565,-3.3757,-3.2122,0.0,-2.7525,-2.6948,-2.637,-2.6683,-2.7285,-2.7128,-2.7278,-2.7941,-3.0091,-3.1187,-3.2205,-3.4439,0.0,-3.9396,-3.9467,-4.1521,-4.3554,-4.3576,-4.3623,-4.3656,-4.3752,-4.1967,-4.0238,-3.98,-3.8334,-3.7834,-3.9815,-4.0142,-4.0602,-4.1926,-4.0368,-3.8117,-3.5448,-3.3867,0.0,0.0,0.0,0.0,-3.2559,-3.2598,-3.2226,-3.1387,-3.2383,-3.2617,-3.1797,-3.1971,-3.1903,-3.1531,-3.0966,-3.0511,-3.0121,-2.9381,-2.9528,-3.0389,-2.9257,-2.8887,-2.9082,-2.7637,-2.6992,-2.6934,-2.6055,-2.5703,-2.5703,-2.5703,-2.5703,-2.5703,-2.5703,-2.5683,-2.5659,0.0,0.0,0.0,0.0,0.0,0.0,0.0,0.0,0.0,0.0,0.0,0.0,0.0,0.0,0.0,0.0,0.0,-2.5215,-2.5722,-2.6339,-2.7485,-2.9327,-3.1847,-3.4141,-3.6122,-3.8218,-3.9713,-4.0613,-4.0758,-4.0984,-4.1338,-4.1364,-4.1833,-4.2693,-4.3281,-4.3867,-4.4414,-4.4836,-4.4473,-4.3401,-4.1354,-3.9765,-3.8141,-3.3376,-3.106,0.0,-2.7159,-2.614,-2.6063,-2.5495,-2.5668,-2.6119,-2.6063,-2.7298,-2.9047,-3.0516,-3.2521,-3.4952,-3.81,-4.0688,-4.256,-4.2754,-4.4125,-4.5342,-4.4927,-4.3725,-4.2588,-4.2086,-3.958,-3.7199,-3.6334,-3.4814,-3.441,-3.6642,-3.7564,-3.8728,-4.0902,-3.9999,-3.8463,-3.6757,-3.5234,-3.3691,0.0,0.0,0.0,-3.1758,-3.2578,-3.2598,-3.1426,-3.2656,-3.3164,-3.2656,-3.3104,-3.3078,-3.2475,-3.2455,-3.2037,-3.1164,-3.0682,-3.062,-3.0859,-2.9746,-2.9531,-2.9961,-2.8223,-2.7461,-2.7363,-2.6191,-2.5879,-2.6133,-2.582,-2.5898,-2.6133,-2.5801,-2.5703,-2.5683,0.0,0.0,0.0,0.0,0.0,0.0,0.0,0.0,0.0,0.0,0.0,0.0,0.0,0.0,0.0,0.0,0.0,0.0,-2.4804,-2.4898,-2.5723,-2.7389,-2.8464,-3.0179,-3.2641,-3.3722,-3.466,-3.5475,-3.5606,-3.6094,-3.6888,-3.696,-3.7443,-3.8241,-3.8357,-3.8398,-3.8398,-3.8316,-3.7804,-3.6933,-3.591,-3.4486,-3.2657,-3.0065,-2.856,-2.7601,-2.5909,-2.5303,-2.5303,-2.5399,-2.5553,0.0,-2.761,-3.0776,-3.3686,-3.2861,-3.5512,-3.915,-4.1202,-4.3023,-4.4544,-4.5621,-4.5901,-4.5751,-4.5114,-4.2735,-4.0467,-3.983,-3.6629,-3.366,0.0,0.0,-3.091,-3.2622,-3.4538,-3.6716,-3.9356,-3.914,-3.9013,0.0,0.0,0.0,0.0,0.0,0.0,-3.1348,0.0,-3.3965,-3.2402,-3.3008,-3.3418,-3.3476,-3.3408,-3.3375,-3.3375,-3.3336,-3.294,-3.2207,-3.2207,-3.1738,-3.0898,-3.0898,-3.0879,-3.0742,-2.9082,-2.832,-2.8105,-2.6504,-2.6289,-2.6914,-2.6133,-2.6348,-2.6973,-2.6133,-2.5801,-2.5761,0.0,0.0,0.0,0.0,0.0,0.0,0.0,0.0,0.0,0.0,0.0,0.0,0.0,0.0,0.0,0.0,0.0,0.0,-2.4591,-2.4604,-2.494,-2.5628,-2.716,-2.8631,-3.0044,-3.1584,-3.283,-3.374,-3.3763,-3.392,-3.4204,-3.4264,-3.4415,-3.4669,-3.537,-3.5684,-3.5723,-3.6345,-3.6428,-3.5942,-3.3793,-3.2616,-3.1758,-2.8537,-2.717,-2.6794,-2.5687,-2.5303,-2.5495,0.0,0.0,0.0,0.0,-3.3391,-3.5886,-3.6729,-3.9202,-4.1965,-4.3504,-4.5499,-4.688,-4.5736,-4.5688,-4.5197,-4.253,-4.0334,-3.8263,-3.6116,-3.2852,-3.014,0.0,0.0,0.0,-3.2526,-3.5999,0.0,-4.1171,-4.246,0.0,-4.0156,0.0,-3.8144,-3.6191,-3.6973,0.0,0.0,-3.4101,-3.3828,-3.4043,-3.3633,-3.3691,-3.4355,-3.4355,-3.4335,-3.4335,-3.3709,-3.2987,-3.2207,-3.2207,-3.1738,-3.0898,-3.0898,-3.0547,-2.9902,-2.9453,-2.8535,-2.7344,-2.7559,-2.7383,-2.7031,-2.7461,-2.7773,-2.7949,-2.7715,-2.7226,-2.668,0.0,0.0,0.0,0.0,0.0,0.0,0.0,0.0,0.0,0.0,0.0,0.0,0.0,0.0,0.0,0.0,0.0,0.0,0.0,-2.4444,-2.4572,-2.4762,-2.5869,-2.672,-2.7282,-2.8338,-2.9156,-2.9679,-2.9679,-2.9879,-3.0314,-3.0394,-3.0641,-3.1047,-3.1637,-3.1894,-3.1914,-3.2402,-3.236,0.0,0.0,-2.9492,-2.8834,-2.6889,-2.6111,-2.5967,-2.5476,0.0,0.0,0.0,0.0,-3.4147,-3.4755,-3.6983,-3.9557,-4.0749,0.0,-4.4603,-4.6098,-4.7475,-4.8159,-4.6719,-4.5605,-4.411,-4.1287,-3.8239,-3.5354,-3.2905,-3.0067,0.0,-2.6909,0.0,0.0,0.0,0.0,0.0,-4.0674,-4.2327,-4.2804,0.0,-4.123,0.0,-3.8457,-3.8828,-3.8926,0.0,-3.668,-3.5566,-3.5293,-3.4805,-3.4766,-3.5254,-3.5273,-3.5273,-3.5273,-3.4785,-3.4121,-3.3301,-3.3301,-3.2832,-3.1992,-3.1621,-3.1191,-3.0703,-2.9922,-2.9043,-2.8144,-2.8262,-2.8242,-2.8144,-2.8262,-2.8535,-2.8828,-2.8437,-2.7988,-2.7578,0.0,0.0,0.0,0.0,0.0,0.0,0.0,0.0,0.0,0.0,0.0,0.0,0.0,0.0,0.0,0.0,0.0,0.0,0.0,0.0,-2.4478,-2.4495,-2.4804,-2.4986,-2.501,-2.5203,-2.5303,-2.5303,-2.5303,-2.5687,-2.6428,-2.6553,-2.7031,-2.777,-2.7901,-2.7949,-2.7949,-2.7949,-2.7519,-2.6836,-2.6836,-2.6294,-2.5493,0.0,-2.5427,-2.5303,0.0,0.0,0.0,0.0,-3.4526,-3.6642,-3.8315,-4.1104,-4.3912,-4.4685,-4.5723,-4.6957,-4.8476,-4.8909,-4.8673,-4.776,-4.5438,-4.2713,-4.0319,-3.625,-3.2317,-3.0104,0.0,-2.6197,-2.5437,-2.6146,-2.7458,-2.9326,0.0,-3.511,-3.9345,-4.0755,-4.1894,-4.3359,-4.2851,-4.207,-4.1289,-4.0527,-4.0391,-4.1133,-3.9687,-3.8066,-3.6426,-3.623,-3.6113,-3.5996,-3.5996,-3.5996,-3.5996,-3.5996,-3.5566,-3.4707,-3.4707,-3.4238,-3.3379,-3.2578,-3.2207,-3.2129,-3.0605,-2.9883,-2.9726,-2.9082,-2.9199,-2.9707,-2.8945,-2.9101,-2.9687,-2.8926,-2.8574,-2.8476,0.0,0.0,0.0,0.0,0.0,0.0,0.0,0.0,0.0,0.0,-2.3069,-2.3617,0.0,0.0,0.0,0.0,0.0,0.0,0.0,0.0,0.0,-2.4495,-2.4712,-2.4877,-2.501,-2.5203,-2.5303,-2.5303,-2.5303,-2.538,-2.5524,-2.5654,-2.5805,-2.596,-2.6085,-2.6152,-2.6152,-2.6152,-2.6055,-2.5937,-2.5937,-2.5746,-2.5493,-2.5493,0.0,0.0,0.0,0.0,0.0,0.0,-3.6969,-4.1008,-4.2681,-4.5066,-4.7357,-4.7862,-4.819,-4.8514,-4.92,-4.9152,-4.8543,-4.7085,-4.4587,-4.1443,-3.7424,-3.377,0.0,0.0,-2.6311,-2.5476,-2.5322,-2.6602,-2.8471,-3.0898,0.0,0.0,0.0,0.0,-4.2305,0.0,0.0,0.0,0.0,0.0,0.0,0.0,-4.0254,-3.9238,-3.8203,-3.7461,-3.6738,-3.6016,-3.5996,-3.5996,-3.5996,-3.5996,-3.5566,-3.4707,-3.4707,-3.4238,-3.3379,-3.2578,-3.2207,-3.2187,-3.1875,0.0,-3.0723,-3.1289,-3.1191,-3.0664,-3.0508,-3.0547,-3.0664,-3.0508,-2.998,-2.9375,0.0,0.0,0.0,0.0,0.0,0.0,0.0,-2.2034,-2.2388,-2.3214,-2.3177,-2.3259,-2.3769,-2.2886,-2.2755,0.0,0.0,0.0,0.0,0.0,0.0,0.0,0.0,0.0,-2.4891,-2.516,-2.5303,-2.5303,0.0,-2.5303,-2.5293,-2.5441,-2.5493,-2.5517,-2.5636,-2.5703,-2.5703,-2.5703,-2.5703,-2.5703,-2.5703,-2.5636,-2.5551,0.0,0.0,0.0,0.0,0.0,0.0,0.0,-3.4737,-3.8681,-4.347,-4.6413,-4.8126,-4.8372,-4.8471,-4.8579,-4.9022,-4.8565,-4.7622,-4.6251,-4.2791,-3.8847,-3.5082,0.0,0.0,0.0,-2.5512,-2.5303,-2.5303,0.0,0.0,0.0,0.0,0.0,0.0,0.0,0.0,0.0,0.0,0.0,0.0,0.0,0.0,0.0,-4.0801,-4.0195,-3.9316,-3.8027,-3.6894,-3.6035,-3.5996,-3.5996,-3.5996,-3.5996,-3.5781,-3.5371,-3.5371,-3.5156,-3.4726,-3.3887,-3.3496,-3.3476,-3.3027,-3.2598,-3.2226,-3.2656,-3.2578,-3.2168,-3.1738,-3.1582,-3.1523,-3.1074,-3.0644,-3.0273,0.0,0.0,0.0,0.0,0.0,0.0,0.0,-2.1698,-2.2298,-2.3482,-2.3224,-2.301,-2.3217,-2.2723,-2.2691,0.0,0.0,0.0,0.0,0.0,0.0,0.0,0.0,0.0,0.0,0.0,0.0,0.0,-2.5303,0.0,0.0,0.0,0.0,0.0,-2.5636,-2.5703,-2.5703,-2.5703,-2.5703,0.0,0.0,-2.566,0.0,0.0,0.0,0.0,0.0,0.0,0.0,0.0,-3.1583,-3.4526,-4.1085,-4.4682,-4.6529,-4.682,-4.7194,-4.7659,-4.8264,-4.7702,-4.6633,-4.5332,-4.11,-3.6481,-3.3616,-2.985,0.0,0.0,-2.5203,-2.5303,-2.5303,0.0,-2.6792,0.0,0.0,0.0,0.0,0.0,0.0,0.0,0.0,0.0,0.0,0.0,0.0,0.0,-4.1191,-4.082,-3.9941,-3.8242,-3.6992,-3.6309,-3.6094,-3.5996,-3.5996,-3.5996,-3.5996,-3.5996,-3.5996,-3.5996,-3.5976,-3.5098,-3.4707,-3.4668,-3.3984,-3.3672,-3.3652,-3.3476,-3.3516,-3.3555,-3.2383,-3.2148,-3.2324,-3.1289,-3.1133,-3.1387,0.0,0.0,0.0,0.0,0.0,0.0,0.0,-2.1086,-2.1518,-2.2677,-2.2555,-2.2632,-2.3323,-2.252,-2.23,0.0,0.0,0.0,0.0,0.0,0.0,0.0,0.0,0.0,0.0,0.0,0.0,0.0,0.0,0.0,0.0,0.0,0.0,0.0,0.0,-2.5703,-2.5703,-2.5703,0.0,0.0,0.0,0.0,0.0,0.0,0.0,0.0,0.0,0.0,0.0,0.0,0.0,-3.1275,-3.4295,-3.7988,-4.144,-4.2659,0.0,0.0,-4.683,-4.6829,-4.6081,-4.4507,-4.0237,-3.5855,-3.3676,0.0,0.0,-2.5384,-2.5303,-2.5303,-2.5303,-2.5412,-2.6072,0.0,0.0,-2.9547,0.0,0.0,0.0,0.0,0.0,0.0,0.0,0.0,0.0,-4.1191,-4.1191,-4.082,-3.9941,-3.8242,-3.7266,-3.7187,-3.6406,-3.5996,-3.5996,-3.5996,-3.5996,-3.5996,-3.5996,-3.5996,-3.5976,-3.5098,-3.4707,-3.4707,-3.4629,-3.457,0.0,-3.373,-3.3867,-3.4336,-3.1953,-3.1953,-3.3105,-3.1484,-3.1855,-3.2949,0.0,0.0,0.0,0.0,0.0,0.0,-2.0423,-2.0583,-2.1084,-2.2504,-2.2607,-2.2755,-2.3329,-2.3033,-2.285,-2.291,0.0,0.0,0.0,0.0,0.0,0.0,0.0,0.0,0.0,0.0,-2.5303,-2.5303,-2.5303,0.0,0.0,0.0,0.0,0.0,0.0,0.0,0.0,0.0,0.0,0.0,0.0,0.0,0.0,0.0,0.0,0.0,0.0,0.0,0.0,0.0,0.0,0.0,-2.8525,-3.0717,0.0,0.0,-4.117,-4.3066,-4.4583,-4.5523,-4.5537,-4.3333,-3.9039,-3.4753,-3.2506,0.0,-2.5381,-2.5301,-2.5303,-2.5303,-2.5303,-2.5346,-2.5633,-2.6385,-2.6123,0.0,0.0,0.0,0.0,0.0,0.0,0.0,0.0,0.0,0.0,-4.1191,-4.1191,-4.082,-3.9941,-3.873,-3.7598,-3.6543,-3.6172,-3.5996,-3.5996,-3.5996,-3.5996,-3.5996,-3.5996,-3.5996,-3.5996,-3.5644,-3.5488,-3.5488,-3.5488,-3.5488,0.0,-3.4531,-3.4707,-3.5273,-3.3203,-3.3125,-3.4043,-3.2832,-3.2832,-3.3301,0.0,0.0,0.0,0.0,0.0,-1.9519,-2.0047,-2.0212,-2.0819,-2.2313,-2.2327,-2.2483,-2.33,-2.3076,-2.2727,-2.2412,-2.2271,0.0,0.0,0.0,0.0,0.0,0.0,0.0,0.0,0.0,-2.5214,-2.5214,-2.5214,-2.5214,0.0,0.0,0.0,0.0,0.0,0.0,0.0,0.0,0.0,0.0,0.0,0.0,0.0,0.0,0.0,0.0,0.0,0.0,0.0,0.0,0.0,0.0,0.0,0.0,0.0,0.0,-3.7543,-3.9872,-4.1571,-4.2829,-4.3145,-4.0877,-3.6923,-3.3034,0.0,0.0,-2.5065,-2.5264,-2.5303,-2.5303,-2.5303,-2.5379,-2.5447,-2.5484,-2.5057,-2.5461,-2.7617,0.0,0.0,0.0,0.0,0.0,0.0,0.0,0.0,-4.082,-4.1055,-4.0586,-3.9219,-3.8789,-3.793,-3.6426,-3.6133,-3.5996,-3.5996,-3.5996,-3.5996,-3.5996,-3.5996,-3.5996,-3.5996,-3.5996,-3.5996,-3.5996,-3.5996,-3.5996,0.0,-3.5059,-3.5215,-3.582,-3.4082,-3.4081,-3.4919,-3.3786,-3.3665,-3.4007,0.0,0.0,0.0,0.0,0.0,0.0,-1.9726,-2.0019,-2.0717,-2.1968,-2.1455,-2.163,-2.322,-2.2332,-2.1608,-2.1608,-2.2248,0.0,0.0,0.0,0.0,0.0,0.0,0.0,0.0,0.0,-2.501,-2.501,-2.501,-2.501,-2.4991,-2.506,-2.5252,-2.5493,0.0,0.0,0.0,0.0,0.0,0.0,0.0,0.0,0.0,0.0,0.0,0.0,0.0,0.0,0.0,0.0,0.0,0.0,0.0,0.0,0.0,0.0,-3.2878,-3.5935,-3.7603,-3.8412,-3.8385,-3.6766,-3.3638,-3.0545,0.0,-2.6795,-2.5065,-2.5264,-2.5303,-2.5303,-2.5303,-2.542,-2.5489,-2.5493,-2.5607,0.0,-2.6894,0.0,0.0,0.0,0.0,0.0,0.0,0.0,-4.084,-3.998,-4.0703,0.0,-3.7461,-3.8144,-3.8203,-3.7305,-3.6445,-3.5996,-3.5996,-3.5996,-3.5996,-3.5996,-3.5996,-3.5996,-3.5996,-3.5996,-3.5996,-3.5996,-3.5996,-3.5996,0.0,-3.5059,-3.5215,-3.582,-3.4082,-3.4427,-3.5689,-3.3949,-3.4301,-3.5431,0.0,0.0,0.0,0.0,0.0,0.0,0.0,-1.9517,-2.0146,-2.0764,-2.0675,-2.0653,-2.1057,-2.1147,-2.1009,-2.0537,-2.1687,0.0,0.0,0.0,0.0,0.0,0.0,0.0,0.0,0.0,-2.485,-2.485,-2.485,-2.485,-2.4869,-2.4991,-2.4812,-2.4432,-2.5201,0.0,0.0,0.0,0.0,0.0,0.0,0.0,0.0,0.0,0.0,0.0,0.0,0.0,0.0,0.0,0.0,0.0,0.0,0.0,0.0,-2.6591,0.0,0.0,-3.4064,-3.5489,-3.6102,-3.4395,-3.2244,-3.0136,-2.8523,-2.6611,-2.5224,-2.5303,-2.5303,-2.5313,-2.5363,-2.5447,-2.5526,-2.5561,-2.5637,-2.5801,0.0,0.0,0.0,0.0,0.0,0.0,0.0,0.0,-4.0195,-3.9922,-3.9609,-3.8809,-3.7383,-3.7559,-3.7305,-3.6445,-3.6133,-3.5996,-3.5996,-3.5996,-3.5996,-3.5996,-3.5996,-3.5996,-3.5996,-3.5996,-3.5996,-3.5996,-3.5996,-3.5996,-3.5937,-3.5059,-3.5215,-3.5879,-3.4697,-3.4917,-3.5818,-3.5173,-3.5256,-3.5619,0.0,0.0,0.0,0.0,0.0,0.0,0.0,-1.942,-1.9839,-2.0246,-2.0158,-2.0141,-2.0368,-2.0591,-2.0559,-2.0154,-2.1154,0.0,0.0,0.0,0.0,0.0,0.0,0.0,-2.4495,-2.4623,-2.4685,-2.4685,-2.4685,-2.4685,-2.4685,-2.485,-2.4729,-2.436,-2.48,-2.4647,0.0,0.0,0.0,0.0,0.0,0.0,-2.4811,0.0,0.0,0.0,0.0,0.0,0.0,0.0,0.0,0.0,0.0,0.0,0.0,0.0,-2.6802,-2.8852,0.0,-3.2025,-3.2756,-3.1352,-2.9987,0.0,0.0,-2.6082,-2.5303,-2.533,-2.5339,-2.5363,-2.5428,-2.5484,-2.5554,-2.5598,-2.5659,-2.5703,0.0,0.0,0.0,0.0,0.0,0.0,0.0,-4.0039,-3.9766,-3.9434,-3.8906,-3.8086,-3.6875,-3.7129,-3.6894,-3.6035,-3.5996,-3.5996,-3.5996,-3.5996,-3.5996,-3.5996,-3.5996,-3.5996,-3.5996,-3.5996,-3.5996,-3.5996,-3.5996,-3.5996,0.0,-3.541,-3.5507,-3.5891,-3.5327,-3.5388,-3.5788,-3.5694,-3.5657,-3.5631,0.0,0.0,0.0,0.0,0.0,0.0,0.0,-1.9573,-1.9732,-2.0093,-1.9823,-1.9879,-2.0685,-2.0452,-2.0184,-2.018,0.0,0.0,0.0,0.0,0.0,0.0,0.0,0.0,-2.4425,-2.4478,-2.4478,-2.4478,-2.4534,-2.4552,-2.4571,-2.4835,-2.4987,-2.5043,-2.4581,-2.483,-2.5544,-2.4743,-2.4839,-2.5444,-2.4625,-2.468,0.0,0.0,0.0,0.0,0.0,0.0,0.0,0.0,0.0,0.0,0.0,0.0,0.0,0.0,0.0,0.0,0.0,-2.8217,0.0,0.0,0.0,0.0,0.0,-2.5293,0.0,-2.5403,-2.5394,-2.5428,-2.5489,-2.5558,-2.5603,-2.5605,-2.5719,0.0,0.0,0.0,0.0,0.0,0.0,0.0,0.0,-3.9297,-3.9453,-3.8574,-3.8457,-3.7715,-3.6094,-3.6777,-3.6836,-3.6035,-3.5996,-3.5996,-3.5996,-3.5996,-3.5996,-3.5996,-3.5996,-3.5996,-3.5996,-3.5996,-3.5996,0.0,-3.5996,-3.5996,-3.5996,-3.5996,-3.597,-3.59,-3.5873,-3.5756,-3.5611,-3.56,-3.5538,-3.5493,0.0,0.0,0.0,0.0,0.0,0.0,0.0,0.0,0.0,0.0,-1.8521,-1.8489,-1.8632,-1.8979,-1.9197,0.0,0.0,0.0,0.0,0.0,0.0,0.0,0.0,0.0,-2.3881,-2.4153,-2.4266,-2.4266,-2.4892,-2.5187,-2.5206,-2.6023,-2.5818,-2.4826,-2.5501,-2.5732,-2.5542,-2.469,-2.4456,-2.4668,-2.4391,-2.3608,0.0,0.0,0.0,0.0,-2.5149,-2.5558,0.0,0.0,0.0,0.0,0.0,0.0,0.0,0.0,-2.4379,-2.4476,-2.488,0.0,-2.6159,-2.5967,-2.5774,-2.5553,0.0,-2.5348,-2.5383,0.0,0.0,-2.5508,-2.5561,-2.5595,-2.5629,-2.5662,-2.625,-2.6679,0.0,0.0,0.0,0.0,0.0,0.0,-3.7793,-3.8398,-3.8535,-3.7676,-3.6992,-3.6426,-3.6016,-3.6191,-3.6211,-3.6016,-3.5996,-3.5996,-3.5996,-3.5996,-3.5996,-3.5996,-3.5996,-3.5996,-3.5996,-3.5996,-3.5996,-3.5996,-3.5996,-3.5996,-3.5996,-3.5947,-3.591,-3.5877,-3.5721,-3.564,-3.56,-3.5534,-3.5515,-3.5493,0.0,0.0,0.0,0.0,0.0,0.0,0.0,0.0,0.0,0.0,0.0,0.0,0.0,0.0,0.0,0.0,0.0,0.0,0.0,0.0,0.0,0.0,0.0,-2.3189,-2.3692,-2.3876,-2.4054,-2.419,-2.4474,-2.4897,-2.5421,-2.589,-2.5818,-2.5322,-2.571,-2.5543,-2.493,-2.4459,-2.4487,-2.4817,-2.4379,0.0,0.0,0.0,0.0,0.0,-2.4995,-2.508,0.0,-2.5205,-2.5135,-2.4827,0.0,0.0,0.0,0.0,-2.3821,-2.359,-2.3995,-2.4409,-2.4851,-2.5252,-2.5357,-2.5354,-2.5383,0.0,0.0,0.0,0.0,0.0,-2.5634,-2.5657,-2.5779,-2.6187,-2.6654,0.0,0.0,0.0,0.0,0.0,0.0,-3.8982,0.0,-3.7969,-3.7812,-3.7344,-3.6484,-3.5996,-3.5996,-3.5996,-3.5996,-3.5996,-3.5996,-3.5996,-3.5996,-3.5996,-3.5996,-3.5996,-3.5996,-3.5996,-3.5996,-3.5996,-3.5996,-3.5996,-3.5996,-3.5996,-3.5996,-3.5938,-3.5869,-3.5797,-3.5648,-3.5588,-3.5558,-3.5515,-3.5493,-3.5493,0.0,0.0,0.0,0.0,0.0,0.0,0.0,0.0,0.0,0.0,0.0,0.0,0.0,0.0,0.0,0.0,0.0,0.0,0.0,0.0,0.0,0.0,-2.2676,-2.2972,-2.3544,-2.3606,-2.3756,-2.4054,-2.4009,-2.4502,-2.5507,-2.5523,-2.5671,-2.5982,-2.5533,-2.4974,-2.4374,-2.4374,-2.4709,-2.5166,-2.4551,0.0,0.0,0.0,0.0,0.0,0.0,0.0,0.0,-2.5052,-2.4971,-2.4444,-2.5181,0.0,0.0,0.0,0.0,0.0,-2.3706,-2.3811,-2.3981,-2.512,-2.5394,-2.5415,0.0,0.0,0.0,0.0,0.0,0.0,0.0,0.0,0.0,0.0,0.0,0.0,0.0,0.0,0.0,0.0,0.0,0.0,-3.7988,-3.7578,-3.7246,-3.7109,-3.6426,-3.5937,-3.5801,-3.5801,-3.5742,-3.5605,-3.5605,-3.5664,-3.5801,-3.5937,-3.5996,-3.5996,-3.5996,-3.5996,-3.5996,-3.5996,-3.5996,-3.5996,-3.5996,0.0,-3.5996,-3.5913,-3.5802,-3.5696,-3.5602,-3.5558,-3.5493,-3.5493,-3.5493,-3.5493,0.0,0.0,0.0,0.0,0.0,0.0,0.0,0.0,0.0,0.0,0.0,0.0,0.0,0.0,0.0,0.0,0.0,0.0,0.0,0.0,0.0,-2.2344,-2.2581,-2.2746,-2.2848,-2.3117,-2.33,-2.3346,-2.4615,-2.5493,-2.6005,-2.6615,-2.656,-2.5982,-2.5336,-2.512,-2.5226,-2.5226,-2.4897,-2.4425,-2.498,0.0,0.0,0.0,0.0,0.0,0.0,0.0,0.0,-2.5498,-2.5446,-2.5307,-2.5376,0.0,0.0,0.0,0.0,0.0,-2.2947,-2.2493,-2.2532,-2.4837,-2.5406,-2.5415,-2.5479,0.0,0.0,0.0,0.0,0.0,0.0,0.0,0.0,0.0,0.0,0.0,0.0,0.0,0.0,0.0,0.0,-3.8261,-3.5566,-3.6504,-3.6992,-3.6269,-3.6074,-3.5684,-3.4941,-3.4902,-3.4551,-3.3828,-3.3809,-3.4141,-3.4883,-3.5625,-3.5996,-3.5996,-3.5996,-3.5996,-3.5996,-3.5996,-3.5996,-3.5996,0.0,-3.5996,-3.5996,-3.5817,-3.5717,-3.5689,-3.5562,-3.5501,-3.5493,-3.5493,-3.5493,-3.5479,0.0,0.0,0.0,0.0,0.0,0.0,0.0,0.0,0.0,0.0,0.0,0.0,0.0,0.0,0.0,0.0,0.0,0.0,0.0,0.0,-2.1481,-2.1906,-2.2032,-2.2279,-2.2695,-2.2848,-2.319,-2.3802,-2.4366,-2.5244,-2.6433,-2.6609,-2.6458,-2.5966,-2.5304,-2.5124,-2.5348,-2.5348,-2.5125,-2.4836,0.0,0.0,0.0,0.0,0.0,0.0,0.0,0.0,0.0,0.0,-2.3944,-2.3575,-2.4019,0.0,0.0,0.0,0.0,0.0,-2.1985,-2.1845,-2.2004,-2.3675,-2.4457,-2.483,-2.4893,0.0,0.0,0.0,0.0,0.0,0.0,0.0,0.0,0.0,0.0,0.0,0.0,0.0,-3.5338,0.0,0.0,-3.6501,-3.5507,-3.6133,-3.6426,-3.6035,-3.5566,-3.5117,-3.4726,-3.4258,-3.3809,-3.3418,-3.3398,-3.3828,-3.4687,-3.5098,-3.5527,-3.5996,-3.5996,-3.5996,-3.5996,-3.5996,-3.5996,-3.5996,-3.5996,-3.5996,-3.5976,-3.5788,-3.5703,-3.5689,-3.5558,-3.5493,-3.5493,-3.5493,-3.5417,-3.5273,0.0,0.0,0.0,0.0,0.0,0.0,0.0,0.0,0.0,0.0,0.0,0.0,0.0,0.0,0.0,0.0,0.0,0.0,0.0,0.0,-2.1183,-2.1584,-2.1499,-2.1757,-2.2432,-2.2556,-2.3007,-2.3832,-2.3794,-2.4569,-2.6036,-2.5984,-2.5815,-2.5501,-2.5088,-2.5018,-2.5224,-2.5224,-2.5264,-2.5303,0.0,0.0,0.0,0.0,0.0,0.0,0.0,0.0,0.0,0.0,0.0,0.0,0.0,0.0,0.0,-2.1907,-2.1287,-2.0747,-2.1339,-2.1415,-2.1491,-2.2207,0.0,-2.4378,-2.4648,0.0,0.0,0.0,0.0,0.0,0.0,0.0,0.0,0.0,0.0,0.0,-3.368,-3.4353,-3.4863,-3.506,-3.4912,-3.5105,-3.5918,-3.5625,-3.5488,-3.5684,-3.4883,-3.4316,-3.4121,-3.3476,-3.3027,-3.2812,-3.2812,-3.3223,-3.4101,-3.4297,-3.4941,-3.5996,-3.5996,-3.5996,-3.5996,-3.5996,-3.5996,-3.5996,-3.5996,-3.5996,-3.5953,-3.5783,-3.5689,-3.5652,-3.5546,-3.5493,-3.5493,-3.5493,-3.5369,-3.519,0.0,0.0,0.0,0.0,0.0,0.0,0.0,0.0,0.0,0.0,0.0,0.0,0.0,0.0,0.0,0.0,0.0,0.0,0.0,0.0,-2.1176,-2.1577,-2.1246,-2.1244,-2.1672,-2.2118,-2.2383,-2.2434,-2.3112,-2.3659,-2.4108,-2.4736,-2.4681,-2.4155,-2.4407,-2.4723,-2.5022,-2.5022,-2.5141,-2.5303,-2.5303,0.0,0.0,0.0,0.0,0.0,0.0,0.0,0.0,0.0,0.0,0.0,0.0,0.0,-2.2962,-2.2848,-2.2198,-2.152,-2.1509,-2.0998,-2.05,-2.0562,0.0,0.0,-2.541,-2.6223,0.0,0.0,0.0,0.0,0.0,0.0,0.0,0.0,0.0,0.0,-3.5988,0.0,-3.6588,-3.6795,-3.6117,-3.5719,-3.5976,-3.4531,-3.3926,-3.4726,-3.3984,-3.3164,-3.2422,-3.2324,-3.1914,-3.1113,-3.1074,-3.1504,-3.2363,-3.3125,-3.4336,-3.5996,-3.5996,-3.5996,-3.5996,-3.5996,-3.5996,-3.5996,-3.5996,-3.5953,-3.5903,-3.5761,-3.5671,-3.5611,-3.5534,-3.5493,-3.5493,-3.5493,-3.5493,-3.5398,0.0,0.0,0.0,0.0,0.0,0.0,0.0,0.0,0.0,0.0,0.0,0.0,0.0,0.0,0.0,0.0,0.0,0.0,0.0,-2.0559,-2.0623,-2.0798,-2.094,-2.1055,-2.1213,-2.1645,-2.222,-2.2987,-2.3714,-2.4023,-2.3898,-2.4343,-2.4334,-2.4007,-2.4353,-2.4636,-2.4877,-2.4962,-2.5034,-2.5111,-2.5253,-2.5303,0.0,0.0,0.0,0.0,0.0,0.0,0.0,0.0,-2.1562,-2.1582,-2.154,-2.1513,-2.1452,-2.137,-2.1078,-2.0792,-2.0758,-2.0971,-2.1212,-2.1212,0.0,0.0,0.0,0.0,0.0,0.0,0.0,0.0,0.0,0.0,0.0,0.0,0.0,-3.3506,-3.4237,-3.5276,-3.5618,-3.468,-3.4326,-3.4188,-3.4303,-3.3768,-3.3535,-3.3867,-3.3125,-3.2519,-3.2226,-3.1699,-3.123,-3.0918,-3.0898,-3.1328,-3.2187,-3.25,-3.3242,-3.4394,-3.5488,-3.5996,-3.5976,-3.5449,-3.5195,-3.5156,-3.4629,-3.4643,-3.5077,-3.4995,-3.5216,-3.559,-3.5534,-3.5493,-3.5479,-3.5304,-3.5157,-3.4925,0.0,0.0,0.0,0.0,0.0,0.0,0.0,0.0,0.0,0.0,0.0,0.0,0.0,0.0,0.0,0.0,0.0,0.0,-2.0252,-2.0175,-2.0167,-2.0279,-2.0506,-2.0632,-2.0797,-2.1197,-2.1936,-2.3054,-2.3562,-2.3675,-2.3388,-2.3667,-2.3786,-2.3751,-2.4099,-2.4424,-2.4716,-2.479,-2.4872,-2.4956,-2.5084,-2.5138,0.0,0.0,0.0,0.0,0.0,0.0,0.0,0.0,-2.0565,-2.0565,-2.0586,-2.0565,-2.0513,-2.0429,-2.0199,-1.9944,-1.9934,-2.0404,-2.0981,0.0,0.0,0.0,0.0,0.0,0.0,0.0,0.0,0.0,0.0,0.0,0.0,0.0,-3.1695,-3.3064,-3.3276,-3.4103,-3.4179,-3.2887,-3.2511,-3.2416,-3.2524,-3.2088,-3.2012,-3.2578,-3.1855,-3.1504,-3.1777,-3.1211,-3.0898,-3.0898,-3.0898,-3.1191,-3.1777,-3.2051,-3.2598,-3.3418,-3.4609,-3.5176,-3.5156,-3.4551,-3.4297,-3.4258,-3.3652,-3.3838,-3.4564,-3.4516,-3.4919,-3.5562,-3.5509,-3.5446,-3.5354,-3.5174,-3.4926,-3.4653,0.0,0.0,0.0,0.0,0.0,0.0,0.0,0.0,0.0,0.0,0.0,0.0,0.0,0.0,0.0,0.0,0.0,0.0,-2.0273,-1.9918,-1.9874,-2.028,-1.9909,-1.9909,-2.028,-2.0748,-2.1415,-2.231,-2.231,-2.231,-2.231,-2.2573,-2.2873,-2.3212,-2.3544,-2.4001,-2.4495,-2.4495,-2.4607,-2.4804,-2.4804,-2.4804,-2.4799,0.0,0.0,0.0,0.0,0.0,0.0,0.0,-2.0508,-2.0511,-2.0585,-2.0605,-2.0565,-2.0438,-1.9834,-1.9202,-1.9134,-1.9173,0.0,0.0,0.0,0.0,0.0,0.0,0.0,0.0,0.0,0.0,0.0,0.0,0.0,-3.1216,-3.1011,-3.1295,-3.3795,-3.341,-3.2613,-3.1935,-3.1093,-3.0648,-3.0859,-2.9316,-2.9023,-3.0742,-3.0078,-2.9961,-3.082,-3.0879,-3.0898,-3.0898,-3.0898,-3.0898,-3.0898,-3.1758,-3.2598,-3.3379,-3.3379,-3.3398,-3.3418,-3.3398,-3.3398,-3.3398,-3.3379,-3.3807,-3.449,-3.451,-3.4904,-3.5493,-3.5493,-3.5339,-3.5105,-3.5105,-3.4926,-3.4653,0.0,0.0,0.0,0.0,0.0,0.0,0.0,0.0,0.0,0.0,0.0,0.0,0.0,0.0,0.0,0.0,0.0,0.0,-1.9852,-2.0019,-2.0062,-1.9874,-2.0035,-2.0193,-2.0314,-2.1039,-2.1705,-2.231,-2.231,-2.231,-2.231,-2.2573,-2.2873,-2.3212,-2.3544,-2.3919,-2.4303,-2.4426,-2.4526,-2.4591,-2.4746,-2.4804,-2.4747,0.0,0.0,0.0,0.0,0.0,0.0,0.0,0.0,0.0,-2.0511,-2.0537,-2.0523,-2.0472,-2.0306,-2.0109,-2.0033,-2.0513,0.0,0.0,0.0,0.0,0.0,0.0,0.0,0.0,0.0,0.0,0.0,0.0,0.0,-2.9803,-3.073,-3.116,-3.0679,-3.0929,-3.0651,-2.9323,-2.8968,-2.8885,-2.8986,-2.8572,-2.8516,-2.9023,-2.8828,-2.8809,-2.9062,-2.9648,-2.998,-2.998,-3.0586,-3.0898,-3.0898,-3.1152,-3.1406,-3.1641,-3.1641,-3.2578,-3.4277,-3.3086,-3.2559,-3.2519,-3.181,-3.2296,-3.3672,-3.4758,-3.5316,-3.5493,-3.5493,-3.5339,-3.5088,-3.4889,-3.4614,-3.4311,0.0,0.0,0.0,0.0,0.0,0.0,0.0,0.0,0.0,0.0,0.0,0.0,0.0,0.0,0.0,0.0,0.0,0.0,0.0,-1.9919,-1.9869,-1.9406,-1.9615,-1.9849,-2.0024,-2.0894,-2.1568,-2.2032,-2.2209,-2.231,-2.231,-2.2463,-2.2781,-2.3212,-2.3414,-2.3774,-2.4209,-2.4339,-2.4375,-2.4393,-2.4512,-2.4372,-2.4036,0.0,0.0,0.0,0.0,0.0,0.0,0.0,0.0,0.0,-2.0438,-2.0243,-1.9988,-1.9959,-1.9484,-1.9051,-1.9333,0.0,0.0,0.0,0.0,0.0,0.0,0.0,0.0,0.0,0.0,0.0,0.0,-2.8827,0.0,-2.9133,-2.9795,-2.9965,-2.9209,-2.9275,-2.8934,-2.7647,-2.7531,-2.7474,-2.7195,-2.7222,-2.7402,-2.7754,-2.7773,-2.793,-2.8281,-2.9121,-2.9609,-2.9609,-3.0449,-3.0898,-3.0898,-3.0898,-3.1074,-3.1406,-3.1074,-3.1894,-3.3652,-3.2305,-3.1659,-3.1595,-3.127,-3.1897,-3.3222,-3.4473,-3.5199,-3.5468,-3.5122,-3.4753,-3.4375,-3.3866,-3.3652,-3.3537,0.0,0.0,0.0,0.0,0.0,0.0,0.0,0.0,0.0,0.0,0.0,0.0,0.0,0.0,0.0,0.0,0.0,0.0,0.0,0.0,-1.9406,-1.8855,-1.8855,-1.914,-1.957,-2.0534,-2.1213,-2.1582,-2.2077,-2.231,-2.231,-2.231,-2.2624,-2.3165,-2.3189,-2.3566,-2.4151,-2.419,-2.419,-2.419,-2.419,-2.3731,-2.3015,-2.3205,0.0,0.0,0.0,0.0,0.0,0.0,0.0,0.0,-2.0357,-1.9883,-1.9277,-1.9158,-1.8086,-1.7089,-1.7722,0.0,0.0,0.0,0.0,0.0,0.0,0.0,0.0,0.0,0.0,0.0,-2.9335,-2.8073,-2.7429,-2.8941,-2.8519,-2.8201,-2.8788,-2.8247,-2.7479,-2.668,-2.6638,-2.6398,-2.5676,-2.566,-2.6035,-2.6816,-2.6875,-2.7226,-2.8027,-2.8887,-2.9355,-2.9355,-3.0215,-3.0703,-3.0781,-3.0781,-3.1211,-3.207,-3.1289,-3.1309,-3.2051,-3.1269,-3.0816,-3.0723,-3.1479,-3.2242,-3.3044,-3.3877,-3.4661,-3.5315,-3.4474,-3.3815,-3.3204,-3.243,-3.2362,-3.2614,0.0,0.0,0.0,0.0,0.0,0.0,0.0,0.0,0.0,0.0,0.0,0.0,0.0,0.0,0.0,0.0,0.0,0.0,0.0,0.0,-1.8817,-1.8302,-1.8688,-1.914,-1.957,-2.0534,-2.1213,-2.1582,-2.2077,-2.231,-2.231,-2.231,-2.2463,-2.2822,-2.3093,-2.3414,-2.3816,-2.4094,-2.419,-2.419,-2.419,-2.3731,-2.2997,-2.3051,-2.212,0.0,0.0,0.0,0.0,0.0,0.0,0.0,-2.0137,-2.0147,-2.0023,-1.9374,-1.8961,-1.8633,0.0,-1.9121,0.0,0.0,0.0,0.0,0.0,0.0,0.0,0.0,0.0,0.0,-2.8598,-2.8173,-2.8006,-2.8299,-2.8163,-2.7821,-2.7301,-2.7027,-2.6583,-2.577,-2.5731,-2.5726,-2.5618,-2.566,-2.5781,-2.5977,-2.5977,-2.6055,-2.625,-2.709,-2.7559,-2.7559,-2.8398,-2.9199,-2.9863,-2.9883,-3.0312,-3.1172,-3.0996,-3.0996,-3.1172,-3.0996,-3.0808,-3.0661,-3.1468,-3.2241,-3.2998,-3.3846,-3.4314,-3.4436,-3.404,-3.3304,-3.2411,-3.2025,-3.2182,-3.2614,0.0,0.0,0.0,0.0,0.0,0.0,0.0,0.0,0.0,0.0,0.0,0.0,0.0,0.0,0.0,0.0,0.0,0.0,0.0,0.0,-1.8302,-1.7747,-1.7932,-1.8398,-1.9214,-2.0058,-2.0873,-2.1582,-2.2077,-2.231,-2.231,-2.231,-2.2436,-2.2721,-2.288,-2.3141,-2.3459,-2.3649,-2.3599,-2.3409,-2.3812,-2.3086,-2.1841,-2.2281,-2.1449,-2.0096,-2.026,0.0,0.0,0.0,0.0,0.0,0.0,0.0,-1.9161,-1.9146,-1.8639,-1.8047,0.0,0.0,0.0,0.0,0.0,0.0,0.0,0.0,0.0,0.0,0.0,-2.8203,-2.7728,-2.7277,-2.6976,-2.6911,-2.688,-2.6687,-2.6191,-2.606,-2.5882,-2.5499,-2.5488,-2.5535,-2.5598,-2.566,-2.5703,-2.5703,-2.5703,-2.5703,-2.5703,-2.6523,-2.6992,-2.6992,-2.7851,-2.8516,-2.8965,-2.8984,-2.9414,-3.0273,-2.9844,-2.9863,-3.0247,-3.0606,-3.0708,-3.0619,-3.0974,-3.1576,-3.2352,-3.2814,-3.3396,-3.3906,-3.2974,-3.2594,-3.2477,-3.1563,-3.1797,-3.2614,0.0,0.0,0.0,0.0,0.0,0.0,0.0,0.0,0.0,0.0,0.0,0.0,0.0,0.0,0.0,0.0,0.0,0.0,0.0,0.0,0.0,-1.7299,-1.7281,-1.7726,-1.8693,-1.9746,-2.0657,-2.1401,-2.201,-2.2254,-2.218,-2.2254,-2.2426,-2.2634,-2.2669,-2.2848,-2.3117,-2.3165,-2.2923,-2.2571,-2.3223,-2.2296,-2.0576,-2.129,-2.0629,-1.932,-1.9527,-1.9569,-1.9577,-1.988,0.0,0.0,0.0,0.0,-1.8174,-1.8897,-1.8061,-1.707,0.0,0.0,0.0,0.0,0.0,0.0,0.0,0.0,0.0,0.0,0.0,-2.6953,-2.6797,-2.6191,-2.5683,-2.5633,-2.5605,-2.557,-2.5535,-2.5465,-2.5434,-2.5484,-2.5381,-2.5309,-2.5364,-2.5309,-2.5312,-2.5469,-2.5488,-2.5547,-2.5684,-2.6387,-2.6777,-2.6777,-2.748,-2.793,-2.8066,-2.8086,-2.8516,-2.9375,-2.8789,-2.886,-2.952,-3.0253,-3.0581,-3.0575,-3.0442,-3.0891,-3.1698,-3.1698,-3.2363,-3.3236,-3.1794,-3.1788,-3.243,-3.1043,-3.1325,-3.2394,0.0,0.0,0.0,0.0,0.0,0.0,0.0,0.0,0.0,0.0,0.0,0.0,0.0,0.0,0.0,0.0,0.0,0.0,-1.6752,0.0,0.0,-1.7244,-1.7632,-1.8013,-1.846,-2.0385,-2.1141,-2.0644,-2.1759,-2.2106,0.0,0.0,-2.2338,-2.236,-2.2599,-2.2721,-2.2797,-2.3069,-2.2923,-2.2517,-2.2625,-2.1787,-2.0503,-2.0631,-2.0097,-1.932,-1.9527,-1.9485,-1.9394,-1.9719,-1.9824,0.0,0.0,0.0,-1.8959,-1.9076,-1.8492,-1.7852,0.0,0.0,0.0,0.0,0.0,0.0,0.0,0.0,0.0,0.0,0.0,-2.6777,-2.6016,-2.5781,-2.5703,-2.5683,-2.5636,-2.5601,-2.5595,-2.5535,-2.5479,-2.5508,-2.4888,-2.4461,-2.4466,-2.3844,-2.3769,-2.4512,-2.457,-2.4902,-2.5664,-2.5801,-2.5879,-2.5879,-2.5996,-2.6406,-2.7168,-2.7168,-2.7617,-2.8476,-2.9052,-2.9411,-2.952,-3.0199,-3.0505,-3.0516,-3.0419,-3.0891,-3.1698,-3.1698,-3.1673,-3.1581,-3.1193,-3.0998,-3.086,-3.0429,-3.0803,-3.1549,0.0,0.0,0.0,0.0,0.0,0.0,0.0,0.0,0.0,0.0,0.0,0.0,0.0,0.0,0.0,-1.6015,-1.6,-1.5729,-1.5188,-1.4915,-1.5132,-1.5877,-1.6429,-1.7221,-1.8197,-1.9672,-2.0572,-2.0883,-2.1561,0.0,0.0,-2.1568,-2.1767,-2.2161,-2.225,-2.2428,-2.2635,-2.2394,-2.2168,-2.1942,-2.1988,-2.0975,-1.9489,-2.01,-1.955,-1.8541,-1.9199,-1.9383,-1.9365,-1.9682,-1.979,-1.9847,-2.0082,0.0,0.0,0.0,0.0,0.0,0.0,0.0,0.0,0.0,0.0,0.0,0.0,0.0,0.0,0.0,-2.4922,-2.5039,-2.5605,-2.5703,-2.5703,-2.5703,-2.5682,-2.5659,-2.5659,-2.5601,-2.5389,-2.4939,-2.4547,-2.4141,-2.3725,-2.3769,-2.3984,-2.4375,-2.4844,-2.5293,-2.5684,-2.5703,-2.5703,-2.5703,-2.5703,-2.5879,-2.6269,-2.6269,-2.6444,-2.6809,-2.8147,-2.8739,-2.8682,-2.9435,-3.0034,-3.049,-3.0428,-3.0621,-3.0968,-3.0968,-3.1011,-3.108,-3.0976,-3.1252,-3.1647,-3.1084,-3.1384,-3.2008,0.0,0.0,0.0,0.0,0.0,0.0,0.0,0.0,0.0,0.0,0.0,0.0,0.0,0.0,0.0,0.0,-1.502,-1.4528,-1.4137,-1.3978,-1.4267,-1.5157,-1.5728,-1.6634,-1.7988,-1.9088,-1.992,-2.0497,0.0,0.0,-2.077,-2.0749,-2.0893,0.0,-2.1561,-2.181,0.0,-2.1502,-2.1217,-2.1044,-2.0828,-1.9769,-1.8393,0.0,-1.848,-1.7573,-1.8515,-1.8885,-1.8996,-1.9473,-1.9719,-1.9839,-2.0142,-1.9264,0.0,0.0,0.0,0.0,0.0,0.0,0.0,0.0,0.0,0.0,0.0,0.0,0.0,0.0,-2.3594,-2.3555,-2.4824,-2.5234,-2.5449,-2.5664,-2.5703,-2.5625,-2.5391,-2.5327,-2.4993,-2.418,-2.3843,-2.3468,-2.293,-2.3203,-2.3613,-2.4062,-2.4687,-2.5234,-2.5684,-2.5703,-2.5703,-2.5703,-2.5703,-2.5703,-2.5703,-2.5703,-2.566,-2.5587,-2.7111,-2.778,-2.7694,-2.8702,-2.9525,-3.0144,-3.0321,-3.0398,-3.0379,-3.0343,-3.0414,-3.0602,-3.0772,-3.1421,-3.2247,-3.1843,-3.2082,-3.2485,0.0,0.0,0.0,0.0,0.0,0.0,0.0,0.0,0.0,0.0,0.0,0.0,-1.3779,-1.3903,-1.4198,-1.4808,-1.4421,-1.4137,-1.4098,-1.3617,-1.4188,-1.6126,-1.6451,0.0,-1.7793,-1.9214,-1.9513,-1.8566,0.0,0.0,-1.8578,-1.9514,-1.9577,-1.8925,-2.0396,-2.0718,-2.0138,0.0,0.0,-1.9807,-1.8783,-1.8058,0.0,0.0,0.0,0.0,0.0,0.0,0.0,0.0,-1.9489,-1.9847,-2.0044,0.0,0.0,0.0,0.0,0.0,0.0,0.0,0.0,0.0,0.0,0.0,0.0,0.0,0.0,0.0,-2.3184,-2.3144,-2.3301,-2.3945,-2.4746,-2.5566,-2.5703,-2.541,-2.457,-2.4453,-2.4141,-2.3262,-2.248,-2.2012,-2.1973,-2.1269,-2.1484,-2.3144,-2.3242,-2.3965,-2.5605,-2.5703,-2.5703,-2.5703,-2.5703,-2.5703,-2.5703,-2.5703,-2.5634,-2.5517,-2.6422,-2.6844,-2.6823,-2.8395,-2.9143,-2.9209,-3.0044,-3.0398,-3.0367,-3.0136,-2.9912,-2.981,-3.039,-3.0969,-3.1549,-3.2284,-3.2577,-3.2485,0.0,0.0,0.0,0.0,0.0,0.0,0.0,0.0,0.0,0.0,0.0,0.0,0.0,-1.3496,-1.3445,-1.3731,-1.2737,-1.2267,-1.2594,-1.2433,-1.289,-1.4176,-1.5093,-1.6158,-1.7455,-1.8467,-1.911,0.0,0.0,-1.9095,-1.8736,-1.8563,-1.8093,-1.749,-1.8873,-1.957,-1.9594,-1.9291,0.0,0.0,0.0,0.0,0.0,0.0,0.0,0.0,0.0,0.0,0.0,0.0,0.0,0.0,0.0,0.0,0.0,0.0,0.0,0.0,0.0,0.0,0.0,0.0,0.0,0.0,0.0,0.0,0.0,0.0,-2.1504,-2.1836,-2.2988,-2.3437,-2.3711,-2.3984,-2.4023,-2.4121,-2.4375,-2.3926,-2.3477,-2.3203,-2.2422,-2.168,-2.1113,-2.1289,-2.1699,-2.2324,-2.334,-2.4219,-2.4824,-2.5391,-2.5703,-2.5703,-2.5703,-2.5683,-2.5634,-2.5598,-2.5535,-2.5441,-2.5745,-2.6161,-2.666,-2.7237,-2.8082,-2.9102,-2.9283,-2.9449,-2.959,-2.9874,-2.9535,-2.8981,-3.0146,-3.0594,-3.0668,-3.0962,-3.1072,-3.0944,0.0,0.0,0.0,0.0,0.0,0.0,0.0,0.0,0.0,-1.1797,0.0,0.0,0.0,0.0,-1.2593,-1.2444,-1.1566,-1.1121,-1.1483,-1.1689,-1.2283,-1.3323,-1.4278,-1.5403,-1.6699,-1.7343,-1.8013,-1.8755,-1.8383,-1.8079,0.0,-1.744,-1.6848,-1.623,-1.7262,-1.7997,0.0,0.0,0.0,-1.8298,0.0,0.0,-1.631,0.0,0.0,0.0,0.0,0.0,0.0,0.0,0.0,0.0,0.0,0.0,0.0,0.0,0.0,0.0,0.0,0.0,0.0,0.0,0.0,0.0,0.0,0.0,0.0,-2.0194,-2.0371,-2.0957,-2.2109,-2.2324,-2.25,-2.3047,-2.3105,-2.3203,-2.3516,-2.3066,-2.2617,-2.2363,-2.1816,-2.123,-2.0664,-2.1113,-2.1582,-2.1875,-2.3184,-2.4082,-2.4375,-2.5234,-2.5683,-2.5662,-2.5661,-2.5611,-2.552,-2.5503,-2.5459,-2.5379,-2.5391,-2.568,-2.6178,-2.6467,-2.7176,-2.8169,-2.8332,-2.8785,-2.943,-2.968,-2.9391,-2.8857,-3.0023,-3.0378,-3.0228,-3.0503,-3.0595,-3.0485,0.0,0.0,0.0,0.0,0.0,0.0,0.0,0.0,-1.2344,-1.0939,0.0,0.0,0.0,0.0,0.0,-1.0916,-1.0941,-1.0933,-1.087,-1.1435,-1.2413,-1.3815,-1.4192,-1.4746,-1.5636,-1.6001,-1.6223,-1.6316,-1.6649,-1.6448,-1.5799,-1.6108,-1.5868,-1.5134,-1.5551,-1.6084,-1.6682,0.0,-1.7264,-1.7151,0.0,-1.5739,-1.6582,0.0,0.0,0.0,-1.6723,-1.6622,0.0,-1.6093,0.0,0.0,0.0,0.0,0.0,0.0,0.0,0.0,0.0,0.0,0.0,0.0,0.0,0.0,0.0,0.0,0.0,-1.9405,-1.9959,-2.0605,-2.0605,-2.0586,-2.1113,-2.2832,-2.3066,-2.2754,-2.2012,-2.1875,-2.1562,-2.0742,-2.0625,-2.0605,-2.0605,-2.0605,-2.0957,-2.1836,-2.2656,-2.3477,-2.4355,-2.5215,-2.5662,-2.5603,-2.5601,-2.5539,-2.5394,-2.5451,-2.5428,-2.5303,-2.5363,-2.5363,-2.5322,-2.6178,-2.6469,-2.6365,-2.7185,-2.845,-2.9878,-2.9476,-2.9357,-2.9409,-2.9922,-3.0136,-3.0265,-3.1035,-3.1329,-3.1219,0.0,0.0,0.0,0.0,0.0,0.0,-0.9634,-1.0411,-1.0728,0.0,0.0,0.0,-1.0799,-1.072,-1.0501,-1.0064,-1.0152,-1.0276,-1.0379,-1.0922,-1.1908,-1.3411,-1.3471,-1.4419,-1.6492,-1.6039,-1.6187,-1.7005,-1.6639,-1.6172,-1.565,-1.5492,-1.53,-1.5104,-1.4937,-1.5098,-1.5577,-1.6009,0.0,-1.6773,-1.5682,-1.5377,0.0,0.0,0.0,0.0,0.0,-1.4666,-1.5026,0.0,-1.5655,-1.7629,0.0,0.0,0.0,0.0,0.0,0.0,-2.0126,0.0,0.0,0.0,0.0,0.0,0.0,0.0,0.0,-1.9451,-1.998,-2.0605,-2.0605,-2.0078,-2.0019,-2.1133,-2.1309,-2.1426,-2.1836,-2.1367,-2.1094,-2.1484,-2.0977,-2.0605,-2.0605,-2.0605,-2.0957,0.0,-2.2695,-2.3535,-2.4355,-2.5171,-2.5629,-2.5601,-2.5513,-2.5434,-2.5406,-2.5379,-2.5339,-2.5303,-2.5322,-2.5322,-2.5303,-2.5553,-2.5883,-2.6314,-2.6394,-2.694,-2.7749,-2.7643,-2.7941,-2.8459,-2.8467,-2.8815,-2.9365,-2.9586,-2.9659,-2.9641,0.0,0.0,0.0,0.0,0.0,-0.8852,-0.912,-0.9907,-1.0189,0.0,0.0,0.0,-1.0186,-1.0181,-0.9994,-0.9406,-0.9587,-0.9751,-0.9855,-1.0676,-1.1669,-1.2923,-1.3035,-1.397,-1.5872,-1.5394,-1.5536,-1.6381,-1.6005,-1.5565,-1.5138,-1.4939,-1.4752,-1.4596,0.0,0.0,0.0,0.0,0.0,0.0,-1.535,0.0,0.0,-1.4908,-1.4664,0.0,0.0,0.0,-1.5073,-1.3905,-1.5114,0.0,0.0,0.0,0.0,0.0,0.0,0.0,0.0,0.0,0.0,0.0,0.0,0.0,-1.9163,-1.9812,-2.0188,0.0,-1.9725,-2.0605,-2.0605,-1.9764,-1.9275,-1.9805,-1.996,-2.0331,-2.123,-2.0918,-2.0781,-2.1309,-2.0918,-2.0605,-2.0605,-2.0605,-2.0957,-2.1836,-2.2674,-2.3667,-2.484,-2.5356,-2.5595,-2.5558,-2.5459,-2.5383,-2.5354,-2.5322,-2.5303,-2.5303,-2.5303,-2.5303,-2.5303,-2.5303,-2.5428,-2.5677,-2.5551,-2.5974,-2.6746,-2.6413,-2.6949,-2.8001,-2.822,-2.8594,-2.8994,-2.8994,-2.8994,-2.8994,0.0,0.0,-0.7657,-0.8143,-0.8808,-0.9271,-0.9124,-0.9892,-1.0041,0.0,-0.9148,-0.9511,-0.9555,-0.9845,-0.9738,-0.8914,-0.9229,-0.9412,-0.9322,-1.0422,-1.1488,-1.2369,-1.2728,-1.3395,-1.4419,-1.4442,-1.4612,-1.4954,-1.4998,-1.4828,-1.4433,-1.4438,-1.4232,-1.3901,0.0,0.0,0.0,0.0,0.0,-1.565,-1.4916,-1.5057,0.0,0.0,-1.5803,-1.6265,-1.5575,-1.5627,-1.5733,-1.4141,-1.4916,0.0,0.0,0.0,0.0,0.0,-1.9521,0.0,0.0,0.0,0.0,0.0,0.0,0.0,-1.9037,-1.9822,-2.0136,-1.8529,-1.9464,-2.0586,-2.0586,-1.9639,-1.8888,-1.9041,-1.9133,-1.9521,-2.0469,-2.0586,-2.0586,-2.0605,-2.0586,-2.0586,-2.0605,-2.0605,-2.0996,-2.1953,-2.2857,-2.4013,-2.5517,-2.5573,-2.5551,-2.5484,-2.5421,-2.5363,-2.5303,-2.5303,-2.5303,-2.5303,-2.5303,-2.5303,-2.5303,-2.5274,-2.5103,-2.4804,-2.4775,-2.5403,-2.6429,-2.5786,-2.6465,-2.7989,-2.8631,-2.892,-2.8994,-2.8994,-2.8994,-2.8994,0.0,0.0,-0.7546,-0.7638,-0.8194,-0.8609,-0.856,-0.8397,-0.8109,-0.7647,-0.7719,-0.7856,-0.809,-0.8692,-0.8937,-0.8546,-0.8984,-0.9162,-0.8837,-0.9476,-1.0383,-1.1657,-1.1713,-1.2491,-1.405,-1.4019,-1.4073,-1.4111,-1.4469,-1.4406,-1.401,-1.4026,-1.3979,-1.3901,-1.3581,0.0,0.0,0.0,0.0,-1.5062,-1.48,0.0,-1.4962,-1.4551,-1.3985,-1.3456,-1.3727,-1.3886,-1.4057,-1.4597,-1.5502,-1.6664,0.0,0.0,0.0,-1.9954,0.0,0.0,0.0,0.0,0.0,0.0,0.0,0.0,-2.0163,-2.0342,-2.0423,0.0,-2.0307,-2.0515,-2.0515,-1.9709,-1.9269,-1.9984,-1.9549,-1.9473,-2.0468,-2.0543,-2.054,-2.0586,-2.0542,-2.054,-2.0586,-2.0605,-2.1229,-2.2758,-2.4206,-2.5176,-2.5507,-2.5471,-2.5428,-2.5421,-2.5354,-2.5313,-2.5303,-2.5303,-2.5303,-2.5303,-2.5303,-2.5303,-2.5284,-2.5122,-2.4968,-2.479,-2.4623,-2.4966,-2.5658,-2.6153,-2.731,-2.8723,-2.8227,-2.8429,-2.8994,-2.8994,-2.8994,-2.8994,0.0,0.0,-0.7046,-0.7756,-0.798,-0.805,-0.805,-0.7828,-0.7517,-0.7023,-0.6954,-0.6998,-0.7128,-0.7456,-0.7606,-0.7304,-0.803,-0.8363,-0.8146,-0.9078,-1.0062,-1.1056,-1.1496,-1.2269,-1.3521,-1.3795,-1.3884,-1.3884,-1.4119,-1.3992,-1.3556,-1.3301,-1.3319,-1.3514,-1.3069,0.0,0.0,0.0,-1.3472,-1.464,-1.3979,0.0,-1.3925,-1.3505,-1.3032,-1.2649,-1.3051,-1.3329,-1.3748,-1.5364,-1.6094,0.0,-1.7688,-1.8628,-1.9365,0.0,-1.9557,-1.9335,0.0,0.0,0.0,-1.9632,0.0,0.0,0.0,-2.0534,-2.0563,-2.0586,-2.0565,-2.0537,-2.045,-1.9597,-1.9247,-2.0273,-1.9698,-1.9422,-2.0365,-2.0475,-2.045,-2.0506,-2.0475,-2.045,-2.0506,-2.0508,-2.1194,-2.2877,-2.4185,-2.5051,-2.5434,-2.5415,-2.5406,-2.5394,-2.5339,-2.5303,-2.5303,-2.5303,-2.5303,-2.5303,-2.5303,-2.5253,-2.5152,-2.5046,-2.4872,-2.4639,-2.4526,-2.506,-2.5988,-2.5988,-2.72,-2.8957,-2.8558,-2.865,-2.8994,-2.8773,-2.8682,-2.87,-0.608,0.0,0.0,-0.7631,-0.7629,-0.7515,-0.7515,-0.7343,-0.7015,-0.6312,-0.6312,-0.6406,-0.6357,-0.6464,-0.6501,-0.6252,-0.6947,-0.743,-0.7431,-0.8646,-0.9614,-1.0227,-1.1253,-1.2124,-1.2832,-1.3441,-1.3769,-1.3783,-1.3769,-1.3533,-1.3045,-1.2698,-1.271,-1.306,-1.265,0.0,0.0,0.0,0.0,-1.3539,0.0,-1.2778,-1.3389,-1.2958,-1.2783,-1.2842,-1.3231,-1.3667,-1.4326,-1.6098,-1.6607,-1.6669,-1.7508,-1.8349,0.0,0.0,0.0,0.0,0.0,0.0,0.0,0.0,0.0,-1.9724,0.0,0.0,0.0,-2.0604,-2.0566,0.0,0.0,0.0,0.0,0.0,0.0,0.0,0.0,-2.0221,0.0,-2.0387,-2.039,-2.0385,-2.0406,-2.069,-2.1434,-2.2804,-2.3888,-2.4742,-2.5356,-2.5376,-2.5383,-2.5383,-2.5321,-2.5303,-2.5303,-2.5303,-2.5303,-2.5303,-2.5264,-2.5163,-2.501,-2.4917,-2.4766,-2.4495,-2.4461,-2.519,-2.6319,-2.5599,-2.6618,-2.8649,-2.8649,-2.8759,-2.8839,-2.8464,-2.8208,-2.8074,-0.5705,-0.6017,0.0,-0.6406,-0.6586,-0.6717,-0.6717,-0.6154,-0.5492,-0.4846,-0.5273,-0.5582,-0.5449,0.0,0.0,0.0,0.0,0.0,-0.6701,0.0,-0.8071,-0.874,-1.0259,-1.1394,-1.1942,-1.2827,-1.3288,-1.327,-1.3288,-1.3051,-1.2572,-1.252,-1.2518,-1.2579,-1.2342,0.0,0.0,0.0,-1.1467,0.0,-1.0917,-1.251,0.0,-1.3785,-1.3498,-1.3585,-1.44,-1.5141,-1.5819,0.0,-1.6964,-1.7433,0.0,-1.8494,-1.9086,-1.9485,0.0,0.0,0.0,0.0,0.0,0.0,-2.07,0.0,-2.0468,0.0,-2.1308,-2.0658,0.0,0.0,0.0,0.0,0.0,0.0,0.0,0.0,-1.9098,-1.9609,-2.0119,-2.037,-2.0346,-2.0328,-2.0398,-2.1734,-2.2695,-2.2894,-2.4315,-2.5226,-2.5313,-2.5313,-2.5313,-2.5313,-2.5293,-2.5303,-2.5303,-2.5303,-2.5303,-2.5303,-2.5111,-2.5022,-2.4998,-2.4693,-2.4526,-2.4495,-2.4321,-2.4743,-2.5511,-2.5132,-2.5922,-2.7405,-2.7405,-2.7838,-2.842,-2.8075,-2.7538,-2.7059,-0.4979,-0.5157,0.0,0.0,-0.5977,-0.5937,-0.5937,-0.5386,-0.4842,-0.4519,-0.4739,-0.4912,0.0,0.0,0.0,0.0,0.0,-0.5852,0.0,0.0,-0.7891,-0.879,-0.9976,-1.0949,-1.1727,-1.2435,-1.2677,-1.2396,-1.2677,-1.2543,-1.2102,-1.1788,-1.1686,-1.1815,-1.1734,0.0,-1.1403,0.0,-1.1974,0.0,0.0,0.0,0.0,-1.2894,-1.2739,-1.3151,-1.4275,-1.502,-1.5635,0.0,-1.7245,0.0,0.0,0.0,0.0,0.0,0.0,0.0,0.0,0.0,0.0,0.0,0.0,0.0,-2.0998,0.0,-2.1518,0.0,0.0,0.0,0.0,0.0,0.0,0.0,-2.0108,0.0,0.0,0.0,-1.9834,0.0,0.0,0.0,-2.0341,-2.087,-2.1666,-2.2755,-2.3391,-2.4187,-2.5245,-2.5303,-2.5303,-2.5303,-2.5303,-2.5303,-2.5303,-2.5303,-2.5303,-2.5303,-2.5099,-2.4962,-2.4877,-2.4623,-2.4445,-2.4321,-2.4247,-2.4649,-2.5346,-2.4526,-2.5159,-2.6465,-2.5603,-2.6446,-2.8075,-2.7678,-2.7367,-2.704,-0.4519,0.0,0.0,0.0,0.0,-0.5226,-0.5226,-0.4794,0.0,0.0,0.0,0.0,-0.4327,-0.4488,0.0,0.0,-0.4937,-0.5095,0.0,0.0,-0.7542,0.0,0.0,0.0,0.0,-1.1903,-1.2083,-1.1803,-1.213,-1.207,-1.1563,-1.1175,-1.1074,-1.1208,0.0,-1.0832,-1.0549,0.0,-1.1819,-1.1071,-1.2047,-1.2565,-1.2715,-1.2396,-1.2707,-1.345,-1.46,-1.547,-1.6244,-1.7385,-1.7902,0.0,-1.8115,-1.8531,-1.9069,0.0,0.0,0.0,-1.9869,0.0,0.0,0.0,0.0,0.0,0.0,0.0,0.0,0.0,0.0,0.0,0.0,0.0,0.0,0.0,0.0,-2.0521,0.0,-1.9787,0.0,0.0,0.0,0.0,0.0,-2.0307,-2.1005,-2.2556,-2.2821,-2.3596,-2.5137,-2.5264,-2.5303,-2.5303,-2.5303,-2.5303,-2.5303,-2.5253,-2.5214,-2.5214,-2.4993,-2.4823,-2.4716,-2.4512,-2.4339,-2.419,-2.419,-2.4481,-2.4858,-2.3949,-2.4329,-2.5372,-2.4224,-2.5201,-2.7215,-2.693,-2.6837,-2.6705,-0.4519,-0.4519,0.0,0.0,0.0,0.0,0.0,0.0,0.0,0.0,0.0,0.0,0.0,0.0,0.0,0.0,0.0,-0.4097,-0.4243,0.0,-0.6443,0.0,0.0,-1.0041,0.0,-1.1019,-1.1556,-1.1803,-1.1808,-1.1542,-1.1018,-1.1018,-1.102,-1.0972,-1.0514,-1.083,-1.1595,-1.0549,-1.0035,-1.0008,-1.0686,-1.1141,-1.1525,0.0,-1.42,-1.5234,-1.6046,0.0,0.0,-1.9075,-1.9111,-1.8999,-1.9191,0.0,0.0,0.0,0.0,0.0,0.0,0.0,0.0,-1.9983,0.0,0.0,0.0,0.0,-2.2769,0.0,0.0,0.0,0.0,0.0,0.0,0.0,0.0,0.0,0.0,0.0,0.0,0.0,0.0,0.0,0.0,-2.0775,-2.1551,-2.2268,-2.3206,-2.4137,-2.4953,-2.5184,-2.5303,-2.5303,-2.5303,-2.5303,-2.5303,-2.5099,-2.501,-2.501,-2.4663,-2.4493,-2.4512,-2.4303,-2.4227,-2.419,-2.419,-2.4034,-2.3728,-2.3346,-2.3513,-2.3932,-2.3568,-2.4337,-2.5675,-2.5675,-2.5642,-2.5642,0.0,0.0,0.0,0.0,0.0,0.0,0.0,-0.2959,0.0,0.0,0.0,0.0,0.0,-0.3949,-0.4819,0.0,0.0,-0.4334,-0.4385,-0.5185,0.0,0.0,0.0,-0.907,0.0,0.0,0.0,-1.0538,-1.0669,-1.0693,-1.0537,-1.0537,-1.0545,-1.0514,0.0,-1.0169,0.0,0.0,0.0,0.0,0.0,-1.1165,-1.1654,0.0,-1.3173,-1.3962,-1.4654,-1.6165,-1.7808,-1.7446,-1.8163,-1.9123,-1.865,-1.8822,-1.9246,-1.9442,-1.9541,-1.9623,-1.972,-1.9774,-1.9824,-1.9973,0.0,0.0,0.0,0.0,0.0,0.0,0.0,0.0,0.0,0.0,0.0,0.0,0.0,0.0,0.0,0.0,0.0,0.0,0.0,0.0,0.0,0.0,-2.0778,-2.2192,-2.2734,-2.3591,-2.4929,-2.5057,-2.5099,-2.5099,-2.5099,-2.5053,-2.4962,-2.491,-2.4883,-2.485,-2.4623,-2.4495,-2.4495,-2.4284,-2.419,-2.419,-2.3976,-2.3795,-2.3671,-2.3093,-2.2954,-2.3084,-2.279,-2.3579,-2.4915,-2.5423,-2.5913,-2.6336,-0.2512,0.0,0.0,0.0,0.0,0.0,0.0,0.0,0.0,0.0,-0.382,0.0,-0.1624,0.0,-0.36,0.0,-0.4618,-0.4443,-0.4389,-0.4979,0.0,-0.6537,-0.7315,0.0,0.0,0.0,0.0,0.0,-0.9836,-1.0079,-1.0018,-1.0225,-1.0283,-1.0283,0.0,-1.0003,-0.955,0.0,-1.033,0.0,0.0,-1.1413,0.0,0.0,-1.3206,-1.3973,-1.4463,-1.6036,-1.7844,-1.7398,-1.8165,-1.9198,-1.8684,-1.8886,-1.932,-1.9456,-1.9541,-1.9623,-1.9707,-1.9762,-1.9824,-1.9973,-1.9993,0.0,-2.1978,0.0,-2.3052,0.0,0.0,0.0,0.0,0.0,0.0,0.0,0.0,0.0,0.0,-1.9748,0.0,0.0,0.0,0.0,0.0,-1.9626,-2.0197,-2.198,-2.2229,-2.3066,-2.4822,-2.4943,-2.4949,-2.501,-2.4949,-2.4891,-2.4804,-2.4731,-2.47,-2.4685,-2.4495,-2.4393,-2.4393,-2.4134,-2.4016,-2.3996,-2.3671,-2.3437,-2.3323,-2.2873,-2.2634,-2.2571,-2.2649,-2.3427,-2.4574,-2.5033,-2.5676,-2.6353,0.0,0.0,0.0,0.0,-0.3195,0.0,0.0,0.0,-0.0,0.0,-0.2473,-0.3185,-0.0293,-0.0,-0.1243,-0.4271,-0.4509,-0.4416,-0.4217,-0.4871,0.0,0.0,-0.6482,-0.7135,-0.7368,0.0,0.0,0.0,0.0,-0.9704,-0.9482,-0.9988,-1.0244,-1.0273,-1.0273,0.0,-1.0217,-1.0186,-1.0525,-1.1067,-1.1281,-1.1476,-1.1763,-1.2925,-1.4151,-1.5233,-1.5521,-1.6891,-1.8604,-1.8896,-1.9117,-1.9289,-1.9289,-1.9305,-1.9305,-1.9305,-1.9438,-1.9614,-1.9614,-1.9707,-1.9836,-1.9973,-2.0012,-2.0298,-2.1325,0.0,-2.3062,0.0,0.0,0.0,0.0,0.0,0.0,0.0,0.0,0.0,0.0,0.0,0.0,0.0,0.0,0.0,0.0,-1.9343,-1.9898,-2.1657,-2.1728,-2.2609,0.0,-2.479,-2.4836,-2.4974,-2.4836,-2.4775,-2.4775,-2.4575,-2.4478,-2.4478,-2.4284,-2.419,-2.417,-2.3855,-2.3692,-2.3671,-2.3323,-2.2996,-2.2695,-2.2695,-2.2527,-2.2378,-2.3071,-2.3816,-2.4523,-2.4591,-2.505,-2.5761,0.1002,-0.1956,-0.2974,0.0,0.0615,-0.0897,0.0,0.0,0.0,0.0,-0.0683,-0.0851,-0.0059,-0.0,-0.0336,-0.1186,-0.3261,0.0,0.0,0.0,0.0,-0.5039,-0.5848,-0.6432,-0.6799,-0.7636,-0.8249,-0.8586,0.0,-0.8895,-0.9221,-0.9123,-0.9319,-0.9712,0.0,0.0,-1.0256,-1.0235,-1.0673,-1.1177,-0.7988,-0.7801,-0.949,0.0,-1.2492,-1.5525,-1.5671,-1.685,-1.8351,-1.8604,-1.8878,-1.9101,-1.9243,-1.9305,-1.9305,-1.9305,-1.9438,-1.9614,-1.9614,-1.9774,-1.9963,-1.9984,-2.0115,-2.0625,-2.2111,-2.2639,-2.3216,0.0,0.0,0.0,0.0,0.0,0.0,0.0,0.0,0.0,0.0,0.0,0.0,-2.1376,0.0,0.0,0.0,-1.9059,-1.9613,-2.137,-2.1823,-2.274,-2.4468,-2.4594,-2.4591,-2.4636,-2.4591,-2.4512,-2.4357,-2.4303,-2.4266,-2.4266,-2.4228,-2.4074,-2.3816,-2.3735,-2.3566,-2.3323,-2.2972,-2.2772,-2.2669,-2.2473,-2.236,-2.2327,-2.2513,-2.3359,-2.4642,-2.5727,-2.6251,-2.6437,0.3188,0.0,0.0,0.3834,0.0,0.0,0.0224,-0.0,0.0,-0.0,-0.0,0.0,-0.0,-0.0,-0.0,-0.0,-0.1564,0.0,-0.3796,0.0,0.0,-0.4861,-0.5415,-0.5853,-0.6188,-0.7065,0.0,-0.7936,0.0,0.0,-0.8749,-0.8693,-0.8994,-0.9485,0.0,-0.9797,0.0,-1.0724,-1.0335,-0.9366,-0.8813,-0.8472,0.0,-1.0828,-1.3451,-1.5967,-1.6168,-1.6987,-1.8048,-1.8452,-1.877,-1.9035,-1.9246,-1.9305,-1.932,-1.9413,-1.955,-1.9707,-1.9762,-1.9952,-2.0124,-2.0124,-2.0225,-2.0639,-2.1947,-2.2524,-2.3178,-2.4505,-2.5063,-2.533,-2.5441,0.0,0.0,0.0,0.0,0.0,0.0,0.0,0.0,0.0,-2.1143,0.0,-1.9071,-1.9236,-1.9902,-2.1084,-2.1135,-2.1962,0.0,-2.3805,-2.386,-2.4282,-2.469,-2.4598,-2.3996,-2.4322,-2.4242,-2.3756,-2.3756,-2.3671,-2.3477,-2.3346,-2.3165,-2.2989,-2.2997,-2.3007,-2.3024,-2.3192,-2.3257,-2.3291,-2.363,-2.4441,-2.5541,-2.6387,-2.6691,-2.6691,0.4497,0.0,0.0,0.0,0.0,0.0,0.0,0.028,0.0,-0.0,0.0,-0.0,-0.0,-0.0,-0.0,-0.0,0.0,-0.0837,-0.2783,-0.3739,-0.4407,-0.4763,-0.512,-0.5418,-0.5641,-0.6594,-0.7079,0.0,0.0,0.0,-0.8321,-0.8586,-0.8972,0.0,0.0,0.0,0.0,-1.1404,-0.9794,-0.6987,-1.142,-1.1399,-0.9169,-1.3314,-1.5492,-1.6343,-1.6696,-1.7166,-1.7737,-1.8336,-1.8734,-1.8984,-1.918,-1.9274,-1.9335,-1.9513,-1.9663,-1.9824,-1.9934,-2.0143,-2.0312,-2.0312,-2.0389,-2.0677,-2.1485,-2.2254,-2.3052,-2.3918,-2.4659,-2.5158,-2.5236,0.0,0.0,0.0,0.0,0.0,0.0,0.0,0.0,0.0,0.0,0.0,-1.8852,-1.9431,0.0,-2.0795,-2.0247,0.0,0.0,0.0,-2.3113,-2.3931,-2.4756,-2.4743,-2.3855,-2.4388,-2.4234,-2.3348,-2.3242,-2.3165,-2.3135,-2.2848,-2.2669,-2.2686,-2.3181,-2.3393,-2.346,-2.4218,-2.4506,-2.456,-2.5321,-2.5948,-2.6438,-2.6573,-2.6539,-2.6505,0.0,0.0,0.0,0.0,0.0,0.4342,0.3789,0.1625,-0.0,-0.0,-0.0,-0.0,-0.0,-0.0,-0.0,-0.0,-0.0,0.0,0.0,0.0,0.0,-0.4175,-0.4978,-0.5435,-0.538,-0.6706,-0.7527,0.0,0.0,0.0,0.0,-0.8712,0.0,0.0,0.0,0.0,-1.1159,-1.1627,0.0,-0.6987,-1.142,-1.3136,-1.3152,-1.4429,-1.5256,-1.5846,-1.6533,-1.7052,-1.7469,-1.8065,-1.845,-1.8698,-1.8966,-1.9166,-1.9305,-1.9335,-1.9553,-1.9821,-1.9824,-2.005,-2.0312,-2.0312,-2.0812,-2.1523,-2.237,-2.2677,-2.3052,-2.3918,-2.4206,-2.4338,-2.4392,-2.5005,0.0,0.0,0.0,0.0,0.0,0.0,0.0,0.0,0.0,-2.1763,0.0,0.0,0.0,0.0,0.0,0.0,0.0,0.0,-2.359,-2.3759,-2.3904,-2.4205,-2.4599,-2.3856,-2.3697,-2.4095,-2.3507,-2.3087,-2.2867,-2.2738,-2.2573,-2.2411,-2.31,-2.3393,-2.346,-2.4218,-2.4506,-2.456,-2.5321,-2.5413,-2.5225,-2.5889,-2.5835,-2.5524,0.0,0.0,0.0,0.0,0.0,0.0,0.0,0.1965,-0.0,-0.0,-0.0,-0.0,-0.0,-0.0,-0.0,-0.0,-0.0,-0.0615,-0.212,-0.3644,-0.4365,-0.4026,-0.4677,-0.5174,-0.5308,-0.6118,-0.6999,-0.7922,0.0,0.0,0.0,0.0,0.0,0.0,0.0,-1.0419,0.0,0.0,-1.0664,-0.9489,-1.1772,-1.338,-1.4446,-1.4625,-1.5139,-1.5875,-1.6568,-1.6901,-1.7175,-1.7936,-1.829,-1.8469,-1.8878,-1.9069,-1.9182,-1.938,-1.9625,-1.9832,-1.989,-2.0107,-2.0312,-2.0312,-2.06,-2.11,-2.1927,-2.2485,-2.2908,-2.334,-2.3783,-2.4124,-2.4218,-2.4939,-2.5418,-2.5116,0.0,0.0,0.0,0.0,0.0,0.0,0.0,0.0,0.0,0.0,0.0,0.0,0.0,0.0,0.0,0.0,-2.2782,-2.3171,-2.3738,-2.3952,-2.3707,-2.3636,-2.3501,-2.3248,-2.2911,-2.2677,-2.2552,-2.2911,-2.2988,-2.2936,-2.4052,-2.4543,-2.4563,-2.5078,-2.5129,-2.4905,-2.525,-2.5239,-2.5054,-2.5447,-2.5259,-2.4871,0.0,0.525,0.0,0.0,0.398,0.4979,0.3747,0.1515,-0.0,-0.0,-0.0,-0.0,-0.0,-0.0,-0.0,-0.0,-0.0561,-0.1283,-0.2044,-0.3596,-0.4344,-0.4029,-0.4618,-0.5056,-0.534,-0.5747,-0.6561,0.0,0.0,0.0,-0.8425,0.0,0.0,0.0,0.0,0.0,0.0,-1.1019,-1.1428,-1.181,-1.2022,-1.3032,-1.4389,-1.4239,-1.4943,-1.601,-1.6495,-1.6757,-1.7027,-1.7849,-1.8187,-1.8351,-1.8789,-1.8984,-1.9134,-1.9499,-1.9695,-1.9824,-1.9954,-2.0152,-2.0312,-2.0312,-2.0427,-2.0716,-2.137,-2.2023,-2.2581,-2.2754,-2.3493,-2.4212,-2.4501,-2.5079,-2.5561,-2.5664,0.0,0.0,0.0,0.0,0.0,0.0,0.0,0.0,-2.0539,0.0,0.0,0.0,0.0,0.0,-2.2096,-2.1865,-2.197,-2.2556,-2.3543,-2.363,-2.2815,-2.3342,-2.3275,-2.2547,-2.2547,-2.2547,-2.2564,-2.3186,-2.3523,-2.3697,-2.4809,-2.5364,-2.5514,-2.573,-2.5577,-2.5221,-2.5221,-2.5144,-2.5012,-2.5012,-2.4712,-2.4266,0.0,0.0,0.0,0.0,0.0,0.4249,0.0906,0.0168,-0.0,-0.0,-0.0,-0.0,-0.0,-0.0,-0.0,-0.0,-0.2525,-0.344,-0.1925,-0.3509,-0.4331,-0.4033,-0.5073,-0.5643,-0.5479,-0.6391,-0.7105,0.0,0.0,-0.8008,-0.842,0.0,0.0,0.0,0.0,-1.0324,-1.0943,-1.1019,-1.1318,-1.1799,-1.181,-1.2472,-1.343,-1.3275,-1.4319,-1.5873,-1.616,-1.6687,-1.732,-1.7704,-1.8166,-1.8566,-1.8623,-1.893,-1.9323,-1.9527,-1.9695,-1.9824,-1.9954,-2.0152,-2.0312,-2.0312,-2.085,-2.1408,-2.1485,-2.1562,-2.185,-2.2639,-2.3539,-2.4445,-2.5245,-2.5492,-2.5595,-2.5613,0.0,0.0,0.0,0.0,-2.4065,-2.2083,0.0,0.0,-1.9127,-2.0099,0.0,0.0,-1.9931,0.0,0.0,-2.1905,-2.2067,-2.2152,-2.2616,-2.2944,-2.3146,-2.2688,-2.2728,-2.3291,-2.3291,-2.3291,-2.3325,-2.3551,-2.3947,-2.4394,-2.4286,-2.4622,-2.5239,-2.5265,-2.5259,-2.5221,-2.5221,-2.4894,-2.4471,-2.4471,-2.4158,-2.3681,0.0,0.0,0.0,0.0,0.0,0.0,0.0,-0.0,-0.0,-0.0,-0.0,-0.0,-0.0,-0.0,-0.0,-0.0,-0.2751,-0.42,-0.3465,-0.4113,-0.4341,-0.4033,-0.4458,-0.4948,-0.5361,-0.5782,-0.647,0.0,0.0,0.0,0.0,-0.9365,-1.0098,-1.0597,-1.0514,-1.051,-1.0572,-1.0572,-1.0864,-1.13,-1.1307,-1.2102,-1.33,-1.3131,-1.4101,-1.5558,-1.6049,-1.6546,-1.7085,-1.7625,-1.8057,-1.8391,-1.8547,-1.8843,-1.915,-1.935,-1.9599,-1.9802,-1.9869,-2.0098,-2.0312,-2.0312,-2.0542,-2.0773,-2.0773,-2.1158,-2.1466,-2.1331,-2.2014,-2.2759,-2.3149,-2.4096,-2.4817,-2.4829,-2.5109,0.0,0.0,0.0,0.0,-2.241,0.0,-2.2073,0.0,-2.0776,0.0,0.0,0.0,0.0,-2.1565,-2.1715,-2.1786,-2.1786,-2.196,-2.2094,-2.2249,-2.2015,-2.24,-2.3393,-2.3073,-2.3167,-2.3599,-2.3811,-2.4311,-2.4895,-2.4788,-2.4973,-2.5315,-2.5315,-2.5357,-2.5428,-2.5428,-2.5053,-2.4544,-2.4544,-2.4369,-2.4223,0.5389,0.0,0.3768,0.0,0.2317,-0.0,-0.0,-0.0,-0.0,-0.0,-0.0,-0.0,-0.0,-0.0,-0.0,-0.0,-0.1962,-0.358,-0.444,-0.4519,-0.4362,-0.405,-0.4193,0.0,-0.5235,-0.5336,-0.6002,-0.7309,-0.7564,0.0,-0.8434,-0.9365,-1.0055,-1.0486,-1.0721,-1.0762,-1.0685,-1.043,-1.0572,-1.0971,-1.0829,-1.1642,-1.2896,-1.2926,-1.3846,-1.518,-1.5846,-1.6347,-1.6772,-1.7422,-1.7827,-1.8128,-1.8471,-1.8789,-1.9052,-1.9305,-1.9564,-1.9762,-1.9836,-2.0041,-2.0233,-2.0285,-2.0312,-2.0312,-2.0312,-2.0735,-2.107,-2.0754,-2.1391,-2.2036,-2.21,-2.3135,-2.3963,-2.3918,-2.4467,0.0,0.0,-2.3945,0.0,0.0,-2.2392,-2.2166,-2.1336,-2.1105,0.0,0.0,0.0,0.0,-2.1197,-2.1228,-2.1228,-2.1228,-2.146,-2.1491,-2.1228,-2.1826,-2.2435,-2.2998,-2.3159,-2.3457,-2.3828,-2.4237,-2.4528,-2.4752,-2.5092,-2.5227,-2.5173,-2.5372,-2.553,-2.5615,-2.5615,-2.533,-2.4866,-2.4866,-2.4866,-2.4866,0.5379,0.442,0.3813,0.4429,0.2029,-0.0,-0.0,-0.0,-0.0,-0.0,-0.0,-0.0,-0.0,-0.0,-0.0,-0.0,-0.0056,-0.1323,-0.4297,-0.4522,-0.4409,0.0,0.0,-0.4935,-0.5099,-0.538,-0.5929,-0.6823,0.0,-0.7702,-0.8434,-0.9365,-0.9938,-1.0212,-1.0503,-1.0962,-1.1538,-1.0685,-1.0537,-1.085,-1.0478,-1.0958,-1.1953,-1.2451,-1.3431,-1.4707,-1.5516,-1.6025,-1.6421,-1.7085,-1.7476,-1.7803,-1.8413,-1.8789,-1.9086,-1.9471,-1.9614,-1.9656,-1.9933,-1.9993,-2.006,-2.0241,-2.0312,-2.0312,-2.0312,-2.0312,-2.0566,-2.1411,-2.2327,-2.2995,-2.3074,-2.3158,-2.318,-2.3038,-2.3694,-2.3767,0.0,-2.3011,0.0,-2.1589,-2.1786,-2.1583,-2.0522,-2.0774,0.0,0.0,0.0,0.0,-2.0314,-2.0314,-2.0314,-2.0314,-2.1165,-2.1197,-2.0314,-2.2368,-2.292,-2.2029,-2.3895,-2.456,-2.4138,-2.4846,-2.4617,-2.3683,-2.4894,-2.5114,-2.4672,-2.533,-2.56,-2.5615,-2.5615,-2.5615,-2.56,-2.56,-2.56,-2.56,0.5376,0.495,0.4632,0.4732,0.3821,0.2351,0.0337,-0.0,-0.0,-0.0,-0.0,-0.0,-0.0,-0.0,-0.0,0.0,-0.0894,-0.1889,0.0,-0.3941,-0.4355,-0.4053,-0.4298,-0.4549,-0.4803,-0.5004,-0.5659,-0.6781,-0.7156,-0.7795,-0.8671,-0.9467,-0.9693,-0.9565,-1.054,-1.0569,-0.9943,-1.0837,-1.0871,-1.0375,-1.0591,-1.1125,-1.1761,-1.197,-1.2711,-1.3709,-1.4852,-1.5505,-1.5973,-1.6969,-1.7351,-1.7522,-1.8149,-1.8508,-1.8789,-1.9101,-1.9256,-1.9382,-1.9645,-1.9858,-2.0022,-2.0078,-2.0197,-2.0312,-2.0312,-2.0306,-2.0392,-2.0716,-2.1068,-2.1294,-2.1325,-2.1836,-2.2227,-2.2131,-2.2597,-2.2938,-2.2787,0.0,-2.1688,-2.1542,-2.1489,-2.1105,-2.0209,-2.0652,0.0,0.0,0.0,-2.0139,-2.0764,-2.1039,-2.1197,-2.1197,-2.1181,-2.1055,-2.0797,-2.1563,-2.2237,-2.2748,-2.3913,-2.4683,-2.5131,-2.5374,-2.5303,-2.4986,-2.5364,-2.5679,-2.5974,-2.6183,-2.6542,-2.6946,-2.6946,-2.6677,-2.6273,-2.6273,-2.6273,-2.6225,0.5369,0.5243,0.5028,0.49,0.476,0.3787,0.1234,0.0336,-0.0,-0.0,-0.0,-0.0,-0.0,-0.0,-0.0,-0.0,-0.1902,-0.3079,-0.3074,-0.3965,-0.4385,-0.4195,-0.4174,-0.4337,-0.4642,-0.4885,-0.5585,-0.6717,-0.7503,-0.8203,-0.8804,-0.9465,-0.9658,-0.9457,-1.0391,-1.0433,-0.9806,-1.0812,-1.096,-1.0523,-1.0784,-1.1095,-1.1432,-1.1702,-1.2226,-1.2992,-1.4187,-1.497,-1.5622,-1.6865,-1.7221,-1.7256,-1.8189,-1.8391,-1.8391,-1.8861,-1.9284,-1.9664,-1.9973,-2.0201,-2.0389,-2.044,-2.0373,-2.03,-2.0299,-2.0289,-2.0341,-2.0422,-2.0475,-2.051,-2.0539,-2.0956,-2.1274,-2.1162,-2.1629,-2.1931,-2.1618,-2.1334,-2.1197,0.0,-2.1307,-2.1121,-2.0592,-2.0831,-2.0526,-1.9431,0.0,-2.0158,-2.0731,-2.0813,-2.0975,-2.1102,-2.0878,-2.0791,-2.0871,-2.1596,-2.2426,-2.3304,-2.4296,-2.4942,-2.5191,-2.5191,-2.5047,-2.4805,-2.5038,-2.5371,-2.5799,-2.6061,-2.6396,-2.6745,-2.6745,-2.6512,-2.6163,-2.6163,-2.6163,-2.6097,0.5415,0.523,0.5084,0.4928,0.4865,0.4256,0.2467,0.095,-0.0,-0.0,-0.0,-0.0,-0.0,-0.0,-0.0,-0.0,-0.2637,-0.4392,-0.4497,-0.4484,-0.447,-0.4501,-0.4328,-0.4321,-0.4498,-0.501,-0.5699,-0.6588,-0.8103,-0.8804,-0.8804,-0.9465,-0.971,-0.9755,-1.0032,-1.0344,-1.0638,-1.0612,-1.0793,-1.1071,-1.0937,-1.0893,-1.0952,-1.1514,-1.1979,-1.2447,-1.3529,-1.4399,-1.5222,-1.669,-1.7011,-1.703,-1.8375,-1.8329,-1.7949,-1.8715,-1.9471,-2.0155,-2.0566,-2.0779,-2.091,-2.1062,-2.0699,-2.0296,-2.0289,-2.0294,-2.0337,-2.0475,-2.051,-2.0516,-2.0586,-2.0539,-2.0422,-2.0228,-2.0785,-2.0773,-1.9453,-2.0508,-2.1315,-2.0919,-2.1207,-2.1419,-2.1394,-2.1117,-2.0583,-1.9687,0.0,-2.0261,-2.0308,-1.997,-1.9985,-2.041,-2.0423,-2.0548,-2.0805,-2.2311,-2.3304,-2.3744,-2.5061,-2.5295,-2.4661,-2.4661,-2.4247,-2.3557,-2.4226,-2.446,-2.4515,-2.5149,-2.5398,-2.5398,-2.5398,-2.5398,-2.5398,-2.5398,-2.5398,-2.5398,0.5209,0.5155,0.505,0.4789,0.4786,0.4247,0.2467,0.0949,-0.0,-0.0,-0.0,-0.0,-0.0,-0.0,-0.0,-0.0,-0.1677,-0.3246,-0.4438,-0.4477,-0.4416,-0.4304,-0.4372,-0.4375,-0.4247,-0.453,-0.5295,-0.6588,-0.8103,-0.8804,-0.8804,-0.8956,-0.9061,-0.9054,-0.9636,-0.9554,-0.9069,-1.0228,-1.0409,-0.9867,-1.0435,-1.0668,-1.0709,-1.104,-1.1265,-1.1502,-1.2853,-1.3667,-1.4306,-1.5551,-1.6359,-1.6882,-1.7494,-1.7729,-1.7883,-1.827,-1.8513,-1.8792,-1.9288,-1.9512,-1.9713,-2.0049,-2.0213,-2.0296,-2.0289,-2.0332,-2.041,-2.048,-2.054,-2.0566,-2.0539,-2.039,-2.0239,-2.014,-1.9899,-1.973,-1.9737,-1.9802,-2.0025,-2.0531,-2.0671,-2.0631,-2.0328,-2.0399,-1.998,-1.8812,-1.9416,-2.002,-2.0442,-2.0482,-2.0792,-2.1589,-2.176,-2.1877,-2.1896,-2.2507,-2.358,-2.5151,-2.5974,-2.6258,-2.6049,-2.6049,-2.5615,-2.4915,-2.5108,-2.5177,-2.5191,-2.5329,-2.5398,-2.5398,-2.5398,-2.5398,-2.5398,-2.5398,-2.5398,-2.5342,0.5145,0.502,0.4877,0.4718,0.47,0.4345,0.3421,0.1396,-0.0,-0.0,-0.0,-0.0,-0.0,-0.0,-0.0,-0.0,-0.0727,-0.2122,-0.4383,-0.448,-0.4433,-0.4351,-0.4423,-0.4426,-0.4348,-0.4743,-0.5655,-0.7128,-0.8262,-0.8804,-0.8804,-0.8804,-0.8804,-0.8804,-0.9159,-0.9068,-0.868,-0.9841,-0.9973,-0.9445,-0.9981,-1.0117,-1.0047,-1.0221,-1.0584,-1.1103,-1.2146,-1.3084,-1.404,-1.5365,-1.6004,-1.6405,-1.7281,-1.7666,-1.7814,-1.7794,-1.8241,-1.8874,-1.9398,-1.9641,-1.9778,-1.9877,-2.0107,-2.0296,-2.0289,-2.0347,-2.0425,-2.0482,-2.0527,-2.0519,-2.0433,-2.0264,-2.0065,-1.9783,-1.9431,-1.9295,-1.9584,-1.9564,-1.9756,-2.0405,-2.0646,-2.0569,-2.0098,-2.0198,-2.0043,-1.9483,-1.9893,-2.0423,-2.1021,-2.141,-2.1789,-2.2122,-2.2055,-2.2193,-2.2498,-2.3498,-2.4402,-2.511,-2.6115,-2.6165,-2.5508,-2.5508,-2.4969,-2.3983,-2.3983,-2.3824,-2.3641,-2.3641,-2.3745,-2.3983,-2.3983,-2.4142,-2.4323,-2.4323,-2.4209,-2.3966,0.5081,0.4874,0.4694,0.466,0.4558,0.448,0.449,0.2122,0.0279,0.0056,-0.0,-0.0,-0.0,-0.0,-0.0,-0.0,-0.0,-0.1061,-0.3644,-0.4258,-0.4473,-0.4522,-0.4519,-0.4519,-0.4519,-0.5164,-0.614,-0.7343,-0.8096,-0.848,-0.848,-0.8593,-0.8646,-0.8646,-0.8752,-0.8804,-0.8857,-0.9413,-0.9504,-0.9323,-0.9494,-0.9428,-0.9229,-0.9444,-0.9998,-1.0799,-1.1544,-1.2627,-1.3925,-1.5491,-1.5903,-1.599,-1.7496,-1.7999,-1.7969,-1.7631,-1.839,-1.9429,-1.9845,-2.013,-2.027,-2.0045,-2.0152,-2.0289,-2.0296,-2.0357,-2.0402,-2.0462,-2.0488,-2.0458,-2.0301,-2.016,-1.9926,-1.9524,-1.9286,-1.9219,-1.9351,-1.9621,-1.9936,-2.0254,-2.0636,-2.0682,-2.0128,-2.0108,-2.0188,-2.0404,-2.0425,-2.0789,-2.1664,-2.223,-2.2555,-2.2639,-2.2209,-2.2252,-2.2825,-2.4532,-2.5082,-2.4476,-2.5712,-2.5618,-2.4292,-2.4292,-2.3625,-2.2435,-2.2347,-2.2046,-2.1606,-2.1518,-2.1769,-2.2196,-2.2284,-2.2598,-2.2952,-2.2919,-2.2718,-2.2451,0.486,0.4841,0.4755,0.4584,0.4536,0.4525,0.448,0.3014,0.1395,0.0168,-0.0,-0.0,-0.0,-0.0,-0.0,-0.0,-0.0,-0.0224,-0.067,-0.3072,-0.448,-0.4477,-0.4522,-0.4519,-0.4519,-0.5164,-0.5592,-0.5864,-0.6583,-0.6966,-0.6966,-0.7563,-0.7883,-0.7889,-0.8533,-0.8804,-0.8811,-0.8903,-0.8935,-0.8892,-0.8849,-0.881,-0.8827,-0.9317,-0.9594,-0.9887,-1.1295,-1.2154,-1.2935,-1.4911,-1.5973,-1.6653,-1.7791,-1.8617,-1.9083,-1.8664,-1.8762,-1.895,-1.888,-1.9368,-1.9918,-1.9982,-2.0152,-2.0292,-2.0308,-2.0344,-2.0383,-2.0345,-2.043,-2.0422,-2.018,-2.0014,-1.9985,-2.0117,-1.952,-1.9203,-1.9662,-1.9827,-1.9762,-1.9435,-2.0011,-2.0058,-1.9214,-1.9103,-1.9137,-1.9168,-1.9182,-1.9936,-2.16,-2.1802,-2.2571,-2.4177,-2.3638,-2.3348,-2.3389,-2.4182,-2.4518,-2.4426,-2.5216,-2.5119,-2.4292,-2.4292,-2.3846,-2.2975,-2.2523,-2.2259,-2.2146,-2.1681,-2.1543,-2.1656,-2.2133,-2.2359,-2.238,-2.2153,-2.2457,-2.2892,0.4935,0.4807,0.4628,0.4532,0.4519,0.4519,0.4525,0.391,0.2621,0.0279,-0.0,-0.0,-0.0,-0.0,-0.0,-0.0,-0.0,-0.0,-0.0,-0.28,-0.4494,-0.448,-0.4473,-0.4525,-0.4519,-0.5164,-0.5487,-0.5487,-0.6258,-0.6588,-0.6588,-0.6966,-0.7343,-0.7723,-0.8049,-0.8427,-0.8804,-0.8804,-0.8717,-0.8602,-0.8567,-0.8327,-0.8172,-0.9224,-0.9524,-0.9695,-1.1472,-1.2446,-1.3154,-1.491,-1.5929,-1.6607,-1.7629,-1.8423,-1.8951,-1.8576,-1.8712,-1.8925,-1.8748,-1.9254,-1.9824,-1.9973,-2.0145,-2.0308,-2.0308,-2.0359,-2.0396,-2.0365,-2.0326,-2.0371,-2.0591,-2.0028,-1.9764,-2.0517,-1.9629,-1.9147,-2.005,-1.9801,-1.9586,-1.9798,-1.9929,-1.9806,-1.9429,-1.939,-1.9517,-1.9913,-2.0213,-2.0882,-2.2109,-2.2474,-2.3054,-2.3926,-2.4051,-2.3894,-2.3434,-2.4069,-2.4177,-2.3823,-2.4498,-2.4394,-2.3649,-2.3649,-2.3318,-2.2673,-2.2422,-2.197,-2.1405,-2.1154,-2.0983,-2.0848,-2.1587,-2.1685,-2.141,-2.1782,-2.1625,-2.1339,0.4996,0.4731,0.4519,0.4519,0.4519,0.4519,0.4519,0.4473,0.3688,0.1339,0.0447,-0.0,-0.0,-0.0,-0.0,-0.0,-0.0,-0.0,-0.0,-0.2469,-0.399,-0.3971,-0.4307,-0.4525,-0.4519,-0.5003,-0.5273,-0.5273,-0.5823,-0.61,-0.6095,-0.6253,-0.6632,-0.723,-0.7545,-0.8031,-0.854,-0.8752,-0.8677,-0.847,-0.832,-0.8031,-0.776,-0.9086,-0.9515,-0.9658,-1.1821,-1.2872,-1.3538,-1.5185,-1.6025,-1.6531,-1.7479,-1.8322,-1.8841,-1.8485,-1.8857,-1.9354,-1.9165,-1.9592,-2.0107,-2.0069,-2.0352,-2.0579,-2.0357,-2.0516,-2.0625,-2.0364,-2.0347,-2.0487,-2.0842,-2.0257,-1.999,-2.078,-1.9874,-1.9396,-2.0342,-1.9715,-1.9416,-2.0157,-1.9807,-1.9544,-1.9625,-1.9605,-1.9849,-2.0354,-2.0765,-2.1326,-2.2119,-2.2719,-2.3117,-2.3389,-2.3923,-2.3975,-2.3402,-2.3879,-2.379,-2.3267,-2.378,-2.3708,-2.3065,-2.2884,-2.26,-2.2191,-2.1879,-2.1223,-2.0452,-2.033,-2.0093,-1.9842,-2.0737,-2.0712,-2.034,-2.102,-2.0723,-2.0064,0.467,0.4539,0.4519,0.4519,0.4519,0.4519,0.4519,0.4473,0.4428,0.4209,0.1732,-0.0,-0.0,-0.0,-0.0,-0.0,-0.0,-0.0,-0.0,-0.1459,-0.2355,-0.2343,-0.3735,-0.4519,-0.4519,-0.4574,-0.457,-0.457,-0.4625,-0.468,-0.468,-0.5316,-0.5584,-0.5701,-0.7068,-0.7729,-0.783,-0.8533,-0.8798,-0.8738,-0.8156,-0.7904,-0.7979,-0.8954,-0.9364,-0.9727,-1.2245,-1.32,-1.3616,-1.5698,-1.6465,-1.6663,-1.7763,-1.8734,-1.9439,-1.8972,-1.9671,-2.0491,-2.0192,-2.0546,-2.089,-2.0397,-2.0944,-2.1375,-2.0494,-2.097,-2.1303,-2.0255,-2.066,-2.1032,-2.0458,-2.0891,-2.1236,-2.0952,-2.0506,-2.0235,-2.0367,-1.953,-1.9127,-1.9765,-1.9306,-1.8998,-1.9059,-1.908,-1.91,-1.9117,-1.9157,-1.9695,-2.0885,-2.1467,-2.2221,-2.3276,-2.3342,-2.3342,-2.3316,-2.3231,-2.3182,-2.3135,-2.3173,-2.3138,-2.3078,-2.2322,-2.199,-2.1856,-2.0549,-1.993,-1.9744,-1.9224,-1.8798,-1.8518,-1.9486,-1.9609,-1.9215,-1.9426,-1.9922,-2.0406,0.5054,0.4779,0.4519,0.4519,0.4519,0.4519,0.4519,0.4522,0.4473,0.4484,0.2956,0.1394,0.0112,-0.0,-0.0,-0.0,-0.0,-0.0,-0.0,-0.1403,-0.2639,-0.3585,-0.419,-0.4519,-0.4519,-0.4519,-0.4519,-0.4519,-0.4519,-0.4519,-0.4519,-0.4783,-0.5105,-0.5542,-0.6573,-0.7289,-0.7741,-0.8487,-0.8804,-0.8791,-0.8359,-0.8063,-0.8032,-0.946,-0.955,-0.9338,-1.2101,-1.3003,-1.317,-1.5241,-1.6192,-1.6704,-1.7755,-1.8352,-1.8858,-1.9752,-2.0993,-2.2042,-2.1996,-2.1941,-2.1914,-2.19,-2.2231,-2.2455,-2.2067,-2.2151,-2.2138,-2.144,-2.1529,-2.1676,-2.1516,-2.129,-2.1245,-2.1589,-2.0469,-1.9746,-2.0311,-1.9545,-1.9114,-1.9739,-1.9581,-1.929,-1.8834,-1.9208,-1.9309,-1.8846,-1.9887,-2.0747,-2.1204,-2.2086,-2.2706,-2.314,-2.3165,-2.3165,-2.3211,-2.2639,-2.2628,-2.3065,-2.2567,-2.2628,-2.3078,-2.2261,-2.1877,-2.1865,-2.078,-2.0057,-1.9694,-1.9516,-1.9032,-1.8483,-1.9386,-1.9156,-1.8503,-1.9107,-1.9177,-1.9044,0.5061,0.4803,0.4519,0.4519,0.4519,0.4519,0.4519,0.4519,0.4522,0.4477,0.391,0.2954,0.1563,0.0559,-0.0,-0.0,-0.0,-0.0,-0.0,-0.0953,-0.2411,-0.4438,-0.4477,-0.4522,-0.4519,-0.4519,-0.4519,-0.4519,-0.4519,-0.4519,-0.4519,-0.4519,-0.4732,-0.5218,-0.5937,-0.6652,-0.7424,-0.8162,-0.8593,-0.8752,-0.8271,-0.805,-0.8161,-0.9316,-0.9562,-0.9586,-1.2058,-1.2968,-1.3288,-1.5023,-1.5881,-1.6368,-1.7289,-1.7827,-1.844,-2.0064,-2.1551,-2.2789,-2.3233,-2.3293,-2.3199,-2.2975,-2.3185,-2.3357,-2.2954,-2.2893,-2.2738,-2.2042,-2.1987,-2.2009,-2.1834,-2.1499,-2.1332,-2.1495,-2.0258,-1.9476,-2.0123,-1.9307,-1.8892,-1.9402,-1.9304,-1.9008,-1.8389,-1.8821,-1.8946,-1.8616,-1.983,-2.0761,-2.105,-2.1938,-2.2384,-2.2298,-2.231,-2.231,-2.231,-2.2063,-2.2209,-2.2874,-2.1949,-2.1824,-2.2478,-2.1498,-2.1112,-2.1049,-2.0139,-1.9566,-1.919,-1.9201,-1.8817,-1.8199,-1.8881,-1.8606,-1.789,-1.8603,-1.8529,-1.8076,0.4519,0.4519,0.4519,0.4519,0.4519,0.4519,0.4519,0.4519,0.4522,0.4477,0.448,0.4484,0.4494,0.1843,-0.0,-0.0,-0.0,-0.0,-0.0,-0.0,-0.134,-0.4324,-0.4487,-0.4473,-0.4519,-0.4519,-0.4519,-0.4519,-0.4519,-0.4519,-0.4519,-0.4519,-0.4519,-0.4515,-0.5202,-0.5919,-0.6613,-0.7354,-0.8103,-0.8692,-0.7688,-0.7747,-0.8384,-0.8319,-0.9212,-1.0714,-1.2233,-1.3249,-1.4037,-1.5189,-1.5588,-1.5676,-1.6281,-1.7229,-1.8377,-1.9778,-2.1174,-2.247,-2.3584,-2.45,-2.4779,-2.3378,-2.3623,-2.3925,-2.2849,-2.3033,-2.3032,-2.178,-2.1874,-2.1923,-2.1053,-2.1562,-2.1691,-2.0485,-1.9904,-1.9625,-1.9763,-1.8842,-1.8298,-1.863,-1.8199,-1.7833,-1.7632,-1.7578,-1.7779,-1.8282,-1.8533,-1.9136,-2.0121,-2.0724,-2.088,-2.0643,-2.059,-2.059,-2.059,-2.1428,-2.2064,-2.2497,-2.1213,-2.0772,-2.1152,-1.9897,-1.9299,-1.9233,-1.8405,-1.8008,-1.8008,-1.8008,-1.7764,-1.7432,-1.7842,-1.7754,-1.7441,-1.7852,-1.8008,-1.8008,0.4519,0.4519,0.4519,0.4519,0.4519,0.4519,0.4519,0.4519,0.4519,0.4522,0.4522,0.4473,0.4494,0.3688,0.2284,0.0168,-0.0,-0.0,-0.0,-0.0,-0.0392,-0.1284,-0.3347,-0.4473,-0.4487,-0.4525,-0.4519,-0.4519,-0.4519,-0.4519,-0.4519,-0.4519,-0.4519,-0.4519,-0.5187,-0.5639,-0.5868,-0.6598,-0.7074,-0.7235,-0.6714,-0.6656,-0.6961,-0.7936,-0.8714,-0.9445,-1.0891,-1.1677,-1.224,-1.3258,-1.368,-1.3961,-1.5413,-1.7005,-1.8636,-1.9947,-2.1799,-2.3564,-2.4324,-2.4915,-2.5215,-2.4844,-2.4836,-2.476,-2.4196,-2.3992,-2.3552,-2.2362,-2.2335,-2.2159,-2.1157,-2.1368,-2.1285,-2.0012,-1.9246,-1.8755,-1.852,-1.7739,-1.7408,-1.7858,-1.777,-1.7465,-1.6856,-1.7302,-1.7567,-1.7552,-1.8711,-1.9772,-2.0421,-2.0666,-2.0687,-2.059,-2.059,-2.059,-2.059,-2.0268,-2.0464,-2.1126,-2.014,-2.0085,-2.0738,-1.9758,-1.9299,-1.9233,-1.8405,-1.8008,-1.8008,-1.8008,-1.7939,-1.7832,-1.7959,-1.7939,-1.7842,-1.7969,-1.8008,-1.8008,0.4633,0.4601,0.4556,0.4623,0.4545,0.4519,0.4519,0.4519,0.4519,0.4519,0.4519,0.4522,0.448,0.4525,0.379,0.1953,0.0671,-0.0,-0.0,-0.0,-0.0,-0.0,-0.1728,-0.3292,-0.4497,-0.3916,-0.391,-0.4477,-0.4477,-0.4525,-0.4519,-0.4525,-0.4525,-0.4519,-0.4919,-0.5262,-0.5546,-0.6,-0.6332,-0.6579,-0.6081,-0.6091,-0.6455,-0.7322,-0.8092,-0.8863,-0.9984,-1.0712,-1.1194,-1.1783,-1.2168,-1.2675,-1.426,-1.5916,-1.7664,-1.9639,-2.1567,-2.3302,-2.436,-2.4885,-2.5137,-2.5167,-2.5156,-2.5004,-2.4525,-2.4018,-2.3379,-2.247,-2.2116,-2.1657,-2.0635,-2.0603,-2.0353,-1.908,-1.8358,-1.7893,-1.7823,-1.7185,-1.687,-1.7136,-1.7146,-1.6941,-1.6396,-1.6754,-1.7106,-1.7413,-1.8792,-1.9617,-1.979,-1.9976,-1.9955,-1.9552,-1.9562,-1.9562,-1.9562,-1.9044,-1.9327,-2.0281,-1.926,-1.9137,-1.9762,-1.9127,-1.8787,-1.8787,-1.8202,-1.8008,-1.8008,-1.8008,-1.8008,-1.8008,-1.8008,-1.8008,-1.8008,-1.8008,-1.8008,-1.794,0.4897,0.4701,0.4599,0.486,0.468,0.456,0.456,0.4536,0.4519,0.4519,0.4519,0.4519,0.4519,0.4519,0.4405,0.4125,0.1563,-0.0,-0.0,-0.0,-0.0,-0.0,-0.0,-0.1284,-0.4042,-0.2856,-0.28,-0.4098,-0.4268,-0.4373,-0.4353,-0.4484,-0.4484,-0.4519,-0.4519,-0.486,-0.5432,-0.5395,-0.58,-0.6358,-0.5706,-0.5837,-0.6423,-0.6483,-0.7367,-0.862,-0.9277,-0.9957,-1.0485,-1.0455,-1.0888,-1.1668,-1.2953,-1.4339,-1.6095,-1.9046,-2.0887,-2.2315,-2.3954,-2.453,-2.4662,-2.461,-2.4702,-2.4648,-2.4045,-2.3354,-2.2653,-2.2101,-2.1395,-2.0632,-1.9767,-1.9551,-1.9156,-1.7982,-1.7415,-1.7215,-1.74,-1.6999,-1.6591,-1.6317,-1.6312,-1.6209,-1.5885,-1.594,-1.638,-1.744,-1.8397,-1.8781,-1.8369,-1.8806,-1.871,-1.8008,-1.8008,-1.7959,-1.792,-1.7998,-1.8634,-1.9713,-1.8516,-1.8213,-1.8494,-1.8184,-1.8008,-1.8008,-1.8008,-1.8008,-1.8008,-1.8008,-1.8008,-1.8008,-1.8008,-1.8008,-1.8008,-1.8008,-1.794,-1.7725,0.483,0.4925,0.4965,0.4813,0.4809,0.4819,0.4819,0.4616,0.4519,0.4519,0.4519,0.4519,0.4519,0.4519,0.3566,0.1174,0.0392,-0.0,-0.0,-0.0,-0.0,-0.0,-0.0,-0.028,-0.0952,-0.1788,-0.1788,-0.0952,-0.2573,-0.3299,-0.335,-0.4135,-0.4522,-0.4519,-0.4519,-0.4574,-0.4691,-0.4736,-0.4798,-0.4916,-0.4787,-0.4794,-0.5033,-0.555,-0.6306,-0.7085,-0.7233,-0.7747,-0.8279,-0.8266,-0.9078,-1.0338,-1.1692,-1.4038,-1.678,-1.9139,-2.1426,-2.338,-2.4176,-2.4418,-2.435,-2.3878,-2.3555,-2.3328,-2.324,-2.2716,-2.2084,-2.1381,-2.0536,-1.9843,-1.9706,-1.9308,-1.8796,-1.802,-1.7642,-1.7194,-1.6213,-1.5873,-1.5456,-1.4787,-1.4678,-1.4538,-1.4007,-1.4507,-1.4949,-1.5219,-1.579,-1.6374,-1.6989,-1.7133,-1.7413,-1.8008,-1.8008,-1.7741,-1.7197,-1.8066,-1.8448,-1.8408,-1.8115,-1.8057,-1.8144,-1.8047,-1.8008,-1.8008,-1.8008,-1.8008,-1.8008,-1.8008,-1.8008,-1.8008,-1.8008,-1.8008,-1.8008,-1.8008,-1.7501,-1.6784,0.4941,0.5043,0.5092,0.4985,0.503,0.5033,0.4745,0.4565,0.4519,0.4519,0.4519,0.4519,0.4519,0.4519,0.3289,0.028,-0.0,-0.0,-0.0,-0.0,-0.0,-0.0,-0.0,-0.0,-0.0,0.067,0.067,-0.0,-0.1063,-0.2294,-0.3705,-0.4265,-0.4484,-0.448,-0.448,-0.4473,-0.4519,-0.4473,-0.4473,-0.4519,-0.4519,-0.4519,-0.4522,-0.4886,-0.544,-0.6132,-0.645,-0.6701,-0.6843,-0.7337,-0.7847,-0.8593,-1.0581,-1.3355,-1.6323,-1.8703,-2.1025,-2.2968,-2.3756,-2.3591,-2.3168,-2.3008,-2.2478,-2.2109,-2.2479,-2.1995,-2.1269,-2.0503,-1.9763,-1.9113,-1.8548,-1.8246,-1.7772,-1.6962,-1.6439,-1.5869,-1.5123,-1.4548,-1.4156,-1.3856,-1.3812,-1.3848,-1.3934,-1.4484,-1.4805,-1.4805,-1.5056,-1.5438,-1.5939,-1.593,-1.6149,-1.6655,-1.7079,-1.6963,-1.6171,-1.7174,-1.7353,-1.6655,-1.7779,-1.77,-1.6655,-1.7148,-1.7354,-1.7354,-1.7354,-1.7354,-1.7354,-1.7354,-1.7079,-1.6655,-1.6655,-1.6655,-1.6655,-1.6655,-1.6088,-1.5226,0.5165,0.5098,0.5047,0.5067,0.5192,0.5111,0.4649,0.4539,0.4519,0.4519,0.4519,0.4519,0.4519,0.4015,0.2732,0.0224,-0.0,-0.0,-0.0,-0.0,-0.0,-0.0,-0.0,-0.0,-0.0,0.2977,0.3033,-0.0,-0.0,-0.1175,-0.3368,-0.3593,-0.3819,-0.3984,-0.3984,-0.403,-0.4076,-0.386,-0.386,-0.4073,-0.4015,-0.4015,-0.4132,-0.4396,-0.4675,-0.5041,-0.5954,-0.5826,-0.5458,-0.6519,-0.6944,-0.7385,-0.9789,-1.2782,-1.5881,-1.8257,-2.0448,-2.225,-2.3023,-2.2472,-2.1763,-2.208,-2.1384,-2.0798,-2.1357,-2.1035,-2.0424,-1.9733,-1.9176,-1.8464,-1.7422,-1.7248,-1.6919,-1.5987,-1.5149,-1.4544,-1.4309,-1.3579,-1.3108,-1.3276,-1.3171,-1.3368,-1.4013,-1.4457,-1.4736,-1.4736,-1.4736,-1.4807,-1.495,-1.495,-1.5021,-1.5163,-1.6,-1.599,-1.5129,-1.6119,-1.6082,-1.4936,-1.7144,-1.7169,-1.5242,-1.6131,-1.6474,-1.6358,-1.6421,-1.6412,-1.6349,-1.6349,-1.593,-1.5234,-1.5234,-1.5234,-1.5163,-1.5021,-1.4386,-1.381,0.5363,0.5118,0.4979,0.5098,0.5043,0.4921,0.4807,0.4628,0.4519,0.4519,0.4519,0.4519,0.4519,0.2176,0.0448,0.0056,-0.0,-0.0,-0.0,-0.0,-0.0,-0.0,-0.0,-0.0,-0.0,0.2977,0.3033,-0.0,-0.0,0.0446,0.1281,-0.0,-0.1057,-0.19,-0.1898,-0.2124,-0.2413,-0.1171,-0.1337,-0.2462,-0.2068,-0.2124,-0.2631,-0.399,-0.3705,-0.2856,-0.4274,-0.3869,-0.2899,-0.4421,-0.646,-0.8606,-0.9673,-1.3268,-1.7288,-1.8412,-2.0686,-2.2739,-2.2249,-2.1492,-2.092,-2.1131,-2.0138,-1.9082,-1.9074,-1.945,-1.9733,-1.9606,-1.8891,-1.8205,-1.7831,-1.7788,-1.7496,-1.6528,-1.5713,-1.5031,-1.4664,-1.3911,-1.3228,-1.2869,-1.2419,-1.2122,-1.2205,-1.2487,-1.2659,-1.2659,-1.2659,-1.3018,-1.3882,-1.389,-1.4314,-1.5163,-1.5532,-1.5404,-1.4659,-1.6017,-1.5709,-1.3849,-1.5674,-1.6028,-1.5188,-1.5799,-1.5814,-1.5392,-1.563,-1.5588,-1.5376,-1.5376,-1.5305,-1.5234,-1.5234,-1.5234,-1.5092,-1.4243,-1.3818,-1.36,0.537,0.5258,0.5161,0.5015,0.4824,0.465,0.4659,0.4573,0.4519,0.4519,0.4519,0.4519,0.4519,0.1786,-0.0,-0.0,-0.0,-0.0,-0.0,-0.0,-0.0,-0.0,0.1625,0.2525,0.2525,0.3816,0.3869,0.2521,0.1673,0.156,0.223,0.24,0.2291,0.179,0.0947,0.0446,0.0279,0.0947,0.1829,0.2591,0.1168,0.0614,0.0557,-0.039,-0.0834,-0.1166,-0.2683,-0.2233,-0.1057,-0.1777,-0.4534,-0.8403,-1.202,-1.5196,-1.7693,-1.8332,-1.9726,-2.0819,-1.9775,-1.9116,-1.8788,-1.9031,-1.8661,-1.8057,-1.7471,-1.7332,-1.7393,-1.76,-1.7505,-1.7123,-1.6162,-1.603,-1.5718,-1.4874,-1.4109,-1.3568,-1.3607,-1.2806,-1.2267,-1.2262,-1.2145,-1.2111,-1.2111,-1.2225,-1.207,-1.1465,-1.1465,-1.1391,-1.123,-1.1742,-1.2338,-1.2947,-1.35,-1.3813,-1.381,-1.4288,-1.4116,-1.314,-1.4095,-1.4325,-1.3874,-1.4682,-1.4774,-1.441,-1.4875,-1.4805,-1.4402,-1.4598,-1.4194,-1.3608,-1.3793,-1.3866,-1.3815,-1.3568,-1.3292,-1.3138]},{"header":{"parameterUnit":"m.s-1","parameterCategory":1,"la1":30.6,"la2":28.766,"lo1":-90.7593,"lo2":-88.6598,"dy":0.0162,"dx":0.0183,"nx":116,"ny":114,"refTime":"2023-08-23T06:00:00:Z","depth":0,"parameterNumber":3,"parameterNumberName":"V-component_of_WINDS"},"data":[0.0,0.0,0.0,0.0,0.0,0.0,0.0,0.0,0.0,0.0,0.0,0.0,0.0,0.0,0.0,0.0,0.0,0.0,0.0,0.0,0.0,0.0,0.0,0.0,0.0,0.0,0.0,0.0,0.0,0.0,0.0,0.0,0.0,0.0,0.0,0.0,0.0,0.0,0.0,0.0,0.0,0.0,0.0,0.0,0.0,0.0,0.0,0.0,0.0,0.0,0.0,0.0,0.0,0.0,0.0,0.0,0.0,0.0,0.0,0.0,0.0,0.0,0.0,0.0,0.0,0.0,0.0,0.0,0.0,0.0,0.0,0.0,0.0,0.0,0.0,0.0,0.0,0.0,0.0,0.0,0.0,0.0,0.0,0.0,0.0,0.0,0.0,0.0,0.0,0.0,0.0,0.0,0.0,0.0,0.0,0.0,0.0,0.0,0.0,0.0,0.0,0.0,0.0,0.0,0.0,0.0,0.0,0.0,0.0,0.0,0.0,0.0,0.0,0.0,0.0,0.0,0.0,0.0,0.0,0.0,0.0,0.0,0.0,0.0,0.0,0.0,0.0,0.0,0.0,0.0,0.0,0.0,0.0,0.0,0.0,0.0,0.0,0.0,0.0,0.0,0.0,0.0,0.0,0.0,0.0,0.0,0.0,0.0,0.0,0.0,0.0,0.0,0.0,0.0,0.0,0.0,0.0,0.0,0.0,0.0,0.0,0.0,0.0,0.0,0.0,0.0,0.0,0.0,0.0,0.0,0.0,0.0,0.0,0.0,0.0,0.0,0.0,0.0,0.0,0.0,0.0,0.0,0.0,0.0,0.0,0.0,0.0,0.0,0.0,0.0,0.0,0.0,0.0,0.0,0.0,0.0,0.0,0.0,0.0,0.0,0.0,0.0,0.0,0.0,0.0,0.0,0.0,0.0,0.0,0.0,0.0,0.0,0.0,0.0,0.0,0.0,0.0,0.0,0.0,0.0,0.0,0.0,0.0,0.0,0.0,0.0,0.0,0.0,0.0,0.0,0.0,0.0,0.0,0.0,0.0,0.0,0.0,0.0,0.0,0.0,0.0,0.0,0.0,0.0,0.0,0.0,0.0,0.0,0.0,0.0,0.0,0.0,0.0,0.0,0.0,0.0,0.0,0.0,0.0,0.0,0.0,0.0,0.0,0.0,0.0,0.0,0.0,0.0,0.0,0.0,0.0,0.0,0.0,0.0,0.0,0.0,0.0,0.0,0.0,0.0,0.0,0.0,0.0,0.0,0.0,0.0,0.0,0.0,0.0,0.0,0.0,0.0,0.0,0.0,0.0,0.0,0.0,0.0,0.0,0.0,0.0,0.0,0.0,0.0,0.0,0.0,0.0,0.0,0.0,0.0,0.0,0.0,0.0,0.0,0.0,0.0,0.0,0.0,0.0,0.0,0.0,0.0,0.0,0.0,0.0,0.0,0.0,0.0,0.0,0.0,0.0,0.0,0.0,0.0,0.0,0.0,0.0,0.0,0.0,0.0,0.0,0.0,0.0,0.0,0.0,0.0,0.0,0.0,0.0,0.0,0.0,0.0,0.0,0.0,0.0,0.0,0.0,0.0,0.0,0.0,0.0,0.0,0.0,0.0,0.0,0.0,0.0,0.0,0.0,0.0,0.0,0.0,0.0,0.0,0.0,0.0,0.0,0.0,0.0,0.0,0.0,0.0,0.0,0.0,0.0,0.0,0.0,0.0,0.0,0.0,0.0,0.0,0.0,0.0,0.0,0.0,0.0,0.0,0.0,0.0,0.0,0.0,0.0,0.0,0.0,0.0,0.0,0.0,0.0,0.0,0.0,0.0,0.0,0.0,0.0,0.0,0.0,0.0,0.0,0.0,0.0,0.0,0.0,0.0,0.0,0.0,0.0,0.0,0.0,0.0,0.0,0.0,0.0,0.0,0.0,0.0,0.0,0.0,0.0,0.0,0.0,0.0,0.0,0.0,0.0,0.0,0.0,0.0,0.0,0.0,0.0,0.0,0.0,0.0,0.0,0.0,0.0,0.0,0.0,0.0,0.0,0.0,0.0,0.0,0.0,0.0,0.0,0.0,0.0,0.0,0.0,0.0,0.0,0.0,0.0,0.0,0.0,0.0,0.0,0.0,0.0,0.0,0.0,0.0,0.0,0.0,0.0,0.0,0.0,0.0,0.0,0.0,0.0,0.0,0.0,0.0,0.0,0.0,0.0,0.0,0.0,0.0,0.0,0.0,0.0,0.0,0.0,0.0,0.0,0.0,0.0,0.0,0.0,0.0,0.0,0.0,0.0,0.0,0.0,0.0,0.0,0.0,0.0,0.0,0.0,0.0,0.0,0.0,0.0,0.0,0.0,0.0,0.0,0.0,0.0,0.0,0.0,0.0,0.0,0.0,0.0,0.0,0.0,0.0,0.0,0.0,0.0,0.0,0.0,0.0,0.0,0.0,0.0,0.0,0.0,0.0,0.0,0.0,0.0,0.0,0.0,0.0,0.0,0.0,0.0,0.0,0.0,0.0,0.0,0.0,0.0,0.0,0.0,0.0,0.0,0.0,0.0,0.0,0.0,0.0,0.0,0.0,0.0,0.0,0.0,0.0,0.0,0.0,0.0,0.0,0.0,0.0,0.0,0.0,0.0,0.0,0.0,0.0,0.0,0.0,0.0,0.0,0.0,0.0,0.0,0.0,0.0,0.0,0.0,0.0,0.0,0.0,0.0,0.0,0.0,0.0,0.0,0.0,0.0,0.0,0.0,0.0,0.0,0.0,0.0,0.0,0.0,0.0,0.0,0.0,0.0,0.0,0.0,0.0,0.0,0.0,0.0,0.0,0.0,0.0,0.0,0.0,0.0,0.0,0.0,0.0,0.0,0.0,0.0,0.0,0.0,0.0,0.0,0.0,0.0,0.0,0.0,0.0,0.0,0.0,0.0,0.0,0.0,0.0,0.0,0.0,0.0,0.0,0.0,0.0,0.0,0.0,0.0,0.0,0.0,0.0,0.0,0.0,0.0,0.0,0.0,0.0,0.0,0.0,0.0,0.0,0.0,0.0,0.0,0.0,0.0,0.0,0.0,0.0,0.0,0.0,0.0,0.0,0.0,0.0,0.0,0.0,0.0,0.0,0.0,0.0,0.0,0.0,0.0,0.0,0.0,0.0,0.0,0.0,0.0,0.0,0.0,0.0,0.0,0.0,0.0,0.0,0.0,0.0,0.0,0.0,0.0,0.0,0.0,0.0,0.0,0.0,0.0,0.0,0.0,0.0,0.0,0.0,0.0,0.0,0.0,0.0,0.0,0.0,0.0,0.0,0.0,0.0,0.0,0.0,0.0,0.0,0.0,0.0,0.0,0.0,0.0,0.0,0.0,0.0,0.0,0.0,0.0,0.0,0.0,0.0,0.0,0.0,0.0,0.0,0.0,0.0,0.0,0.0,0.0,0.0,0.0,0.0,0.0,0.0,0.0,0.0,0.0,0.0,0.0,0.0,0.0,0.0,0.0,0.0,0.0,0.0,0.0,0.0,0.0,0.0,0.0,0.0,0.0,0.0,0.0,0.0,0.0,0.0,0.0,0.0,0.0,0.0,0.0,0.0,0.0,0.0,0.0,0.0,0.0,0.0,0.0,0.0,0.0,0.0,0.0,0.0,0.0,0.0,0.0,0.0,0.0,0.0,0.0,0.0,0.0,0.0,0.0,0.0,0.0,0.0,0.0,0.0,0.0,0.0,0.0,0.0,0.0,0.0,0.0,0.0,0.0,0.0,0.0,0.0,0.0,0.0,0.0,0.0,0.0,0.0,0.0,0.0,0.0,0.0,0.0,0.0,0.0,0.0,0.0,0.0,0.0,0.0,0.0,0.0,0.0,0.0,0.0,0.0,0.0,0.0,0.0,0.0,0.0,0.0,0.0,0.0,0.0,0.0,0.0,0.0,0.0,0.0,0.0,0.0,0.0,0.0,0.0,0.0,0.0,0.0,0.0,0.0,0.0,0.0,0.0,0.0,0.0,0.0,0.0,0.0,0.0,0.0,0.0,0.0,0.0,0.0,0.0,0.0,0.0,0.0,0.0,0.0,0.0,0.0,0.0,0.0,0.0,0.0,0.0,0.0,0.0,0.0,0.0,0.0,0.0,0.0,0.0,0.0,0.0,0.0,0.0,0.0,0.0,0.0,0.0,0.0,0.0,0.0,0.0,0.0,0.0,0.0,0.0,0.0,0.0,0.0,0.0,0.0,0.0,0.0,0.0,0.0,0.0,0.0,0.0,0.0,0.0,0.0,0.0,0.0,0.0,0.0,0.0,0.0,0.0,0.0,0.0,0.0,0.0,0.0,0.0,0.0,0.0,0.0,0.0,0.0,0.0,0.0,0.0,0.0,0.0,0.0,0.0,0.0,0.0,0.0,0.0,0.0,0.0,0.0,0.0,0.0,0.0,0.0,0.0,0.0,0.0,0.0,0.0,0.0,0.0,0.0,0.0,0.0,0.0,0.0,0.0,0.0,0.0,0.0,0.0,0.0,0.0,0.0,0.0,0.0,0.0,0.0,0.0,0.0,0.0,0.0,0.0,0.0,0.0,0.0,0.0,0.0,0.0,0.0,0.0,0.0,0.0,0.0,0.0,0.0,0.0,0.0,0.0,0.0,0.0,0.0,0.0,0.0,0.0,0.0,0.0,0.0,0.0,0.0,0.0,0.0,0.0,0.0,0.0,0.0,0.0,0.0,0.0,0.0,0.0,0.0,0.0,0.0,0.0,0.0,0.0,0.0,0.0,0.0,0.0,0.0,0.0,0.0,0.0,0.0,0.0,0.0,0.0,0.0,0.0,0.0,0.0,0.0,0.0,0.0,0.0,0.0,0.0,0.0,0.0,0.0,0.0,0.0,0.0,0.0,0.0,0.0,0.0,0.0,0.0,0.0,0.0,0.0,0.0,0.0,0.0,0.0,0.0,0.0,0.0,0.0,0.0,0.0,0.0,0.0,0.0,0.0,0.0,0.0,0.0,0.0,0.0,0.0,0.0,0.0,0.0,0.0,0.0,0.0,0.0,0.0,0.0,0.0,0.0,0.0,0.0,0.0,0.0,0.0,0.0,0.0,0.0,0.0,0.0,0.0,0.0,0.0,0.0,0.0,0.0,0.0,0.0,0.0,0.0,0.0,0.0,0.0,0.0,0.0,0.0,0.0,0.0,0.0,0.0,0.0,0.0,0.0,0.0,0.0,0.0,0.0,0.0,0.0,0.0,0.0,0.0,0.0,0.0,0.0,0.0,0.0,0.0,0.0,0.0,0.0,0.0,0.0,0.0,0.0,0.0,0.0,0.0,0.0,0.0,0.0,0.0,0.0,0.0,0.0,0.0,0.0,0.0,0.0,0.0,0.0,0.0,0.0,0.0,0.0,0.0,0.0,0.0,0.0,0.0,0.0,0.0,0.0,0.0,0.0,0.0,0.0,0.0,0.0,0.0,0.0,0.0,0.0,0.0,0.0,0.0,0.0,0.0,0.0,0.0,0.0,0.0,0.0,0.0,0.0,0.0,0.0,0.0,0.0,0.0,0.0,0.0,0.0,0.0,0.0,0.0,0.0,0.0,0.0,0.0,0.0,0.0,0.0,0.0,0.0,0.0,0.0,0.0,0.0,0.0,0.0,0.0,0.0,0.0,0.0,0.0,0.0,0.0,0.0,0.0,0.0,0.0,0.0,0.0,0.0,0.0,0.0,0.0,0.0,0.0,0.0,0.0,0.0,0.0,0.0,0.0,0.0,0.0,0.0,0.0,0.0,0.0,0.0,0.0,0.0,0.0,0.0,0.0,0.0,0.0,0.0,0.0,0.0,0.0,0.0,0.0,0.0,0.0,0.0,0.0,0.0,0.0,0.0,0.0,0.0,0.0,0.0,0.0,0.0,0.0,0.0,0.0,0.0,0.0,0.0,0.0,0.0,0.0,0.0,0.0,0.0,0.0,0.0,0.0,0.0,0.0,0.0,0.0,0.0,0.0,0.0,0.0,0.0,0.0,0.0,0.0,0.0,0.0,0.0,0.0,0.0,0.0,0.0,0.0,0.0,0.0,0.0,0.0,0.0,0.0,0.0,0.0,0.0,0.0,0.0,0.0,0.0,0.0,0.0,-0.5825,0.0,0.0,0.0,0.0,0.0,0.0,0.0,0.0,0.0,0.0,0.0,0.0,0.0,0.0,0.0,0.0,0.0,0.0,0.0,0.0,0.0,0.0,0.0,0.0,0.0,0.0,0.0,0.0,0.0,0.0,0.0,0.0,0.0,0.0,0.0,0.0,0.0,0.0,0.0,0.9472,0.9678,1.0334,1.0551,1.0481,1.0354,0.0,0.0,0.0,0.0,0.0,0.0,0.0,0.0,0.0,0.0,0.0,0.0,0.0,0.0,0.0,0.0,0.0,0.0,0.0,0.0,0.0,0.0,0.0,0.0,0.0,0.0,0.0,0.0,0.0,0.0,0.0,0.0,0.0,0.0,0.0,0.0,0.0,0.0,0.0,0.0,0.0,0.0,0.0,0.0,0.0,0.0,0.0,0.0,0.0,0.0,0.0,0.0,0.0,0.0,0.0,0.0,0.0,0.0,0.0,0.0,0.0,0.0,0.0,0.0,0.0,0.0,0.0,0.0,0.0,0.0,0.0,-0.552,0.0,0.0,0.0,0.0,0.0,0.0,0.0,0.0,0.0,0.0,0.0,0.0,0.0,0.0,0.0,0.0,0.0,0.0,0.0,0.0,0.0,0.0,0.0,0.892,0.8995,0.9562,0.9211,0.9011,0.0,0.0,0.0,0.0,0.0,0.0,0.0,0.9026,0.8997,0.9253,0.8875,0.9375,1.0698,1.0752,1.0608,1.0428,1.0521,0.0,0.0,0.0,0.0,0.0,0.0,0.0,0.0,0.0,0.0,0.0,0.0,0.0,0.0,0.0,0.0,0.0,0.0,0.0,0.0,0.0,0.0,0.0,0.0,0.0,0.0,0.0,0.0,0.0,0.0,0.0,0.0,0.0,0.0,0.0,0.0,0.0,0.0,0.0,0.0,0.0,0.0,0.0,0.0,0.0,0.0,0.0,0.0,0.0,0.0,0.0,0.0,0.0,0.0,0.0,0.0,0.0,0.0,0.0,0.0,0.0,0.0,0.0,-0.4894,-0.5381,-0.6223,-0.6453,-0.6347,-0.5925,-0.563,-0.5057,-0.4373,-0.5303,0.0,0.0,0.0,0.0,0.0,0.0,0.0,0.0,0.0,0.0,0.0,0.0,0.0,0.0,0.0,0.0,0.0,0.0,0.0,0.0,0.0,0.832,0.8758,0.8903,0.9361,0.9427,0.8911,0.0,0.0,0.0,0.0,0.0,0.8003,0.8193,0.8023,0.7421,0.8425,0.9656,1.0942,1.1196,1.143,1.1603,1.0947,1.1048,1.165,0.0,0.0,0.0,0.0,0.0,0.0,0.0,0.0,0.0,0.0,0.0,0.0,0.0,0.0,0.0,0.0,0.0,0.0,0.0,0.0,0.0,0.0,0.0,0.0,0.0,0.0,0.0,0.0,0.0,0.0,0.0,0.0,0.0,0.0,0.0,0.0,0.0,0.0,0.0,0.0,0.0,0.3936,0.3715,0.0,0.0,0.0,0.0,0.0,0.0,0.0,0.0,0.0,0.0,0.0,0.0,0.0,-0.1255,-0.1963,-0.2695,-0.367,-0.4894,-0.4894,-0.541,-0.6353,-0.641,-0.6568,-0.6822,-0.654,0.0,-0.5504,-0.5626,0.0,0.0,0.0,0.0,0.0,0.0,0.0,0.0,0.0,0.0,0.0,0.0,0.0,0.0,0.0,0.0,0.0,0.0,0.0,0.0,0.0,0.7321,0.8131,0.8156,0.9294,0.9722,0.9072,0.9753,0.0,0.0,0.0,0.8667,0.7395,0.7094,0.6807,0.6461,0.8419,0.9838,1.071,1.1331,1.1917,1.2419,1.2029,1.173,1.1597,1.1209,0.0,0.0,0.0,0.0,0.0,0.0,0.0,0.0,0.0,0.0,0.0,0.0,0.0,0.0,0.0,0.0,0.0,0.0,0.0,0.0,0.0,0.0,0.0,0.0,0.0,0.0,0.0,0.0,0.0,0.0,0.0,0.0,0.0,0.0,0.0,0.0,0.0,0.0,0.0,0.4615,0.4196,0.4134,0.425,0.4341,0.0,0.0,0.0,0.0,0.0,0.0,0.0,0.0,0.0,-0.0606,-0.1252,-0.1926,-0.2596,-0.3262,-0.4134,-0.5125,-0.5125,-0.5632,-0.6493,-0.6352,-0.6382,-0.6548,-0.6516,-0.6337,-0.6098,-0.6187,-0.6259,-0.6379,0.0,0.0,0.0,0.0,-0.5163,-0.4581,0.0,0.0,0.0,0.0,0.0,0.0,0.0,0.0,0.0,0.0,0.0,0.0,0.4807,0.6128,0.7127,0.7521,0.8621,0.921,0.9034,0.9411,0.935,0.0,0.8335,0.7753,0.6722,0.6032,0.5846,0.6191,0.8139,0.9471,1.0234,1.1341,1.224,1.2784,1.3114,1.2752,1.1977,1.1744,1.1276,1.0675,0.0,0.0,0.0,0.0,0.0,0.0,0.0,0.0,0.0,0.0,0.0,0.0,0.0,0.0,0.0,0.0,0.0,0.0,0.0,0.0,0.0,0.0,0.0,0.0,0.0,0.0,0.0,0.0,0.0,0.0,0.0,0.0,0.0,0.0,0.0,0.0,0.0,0.4583,0.433,0.4295,0.4173,0.4117,0.0,0.0,0.0,0.0,0.0,0.0,0.0,0.0,-0.0263,-0.0819,-0.1625,-0.2337,-0.2876,-0.372,-0.4543,-0.5343,-0.5343,-0.5788,-0.6583,-0.6408,-0.6297,-0.6273,-0.6529,-0.6487,-0.6231,-0.6327,-0.6311,-0.6188,-0.5984,-0.5761,-0.5487,-0.5199,-0.4617,-0.3939,0.0,0.0,0.0,0.0,0.0,0.0,0.0,0.0,0.0,0.0,0.0,0.1283,0.4107,0.478,0.5582,0.7013,0.7181,0.7601,0.8399,0.7695,0.7586,0.8191,0.7559,0.6656,0.5614,0.5163,0.5538,0.6689,0.7328,0.8253,0.9584,1.1151,1.223,1.2814,1.3896,1.4095,1.3474,1.2619,1.2231,1.2118,1.1303,0.0,0.0,0.0,0.0,0.0,0.0,0.0,0.0,0.0,0.0,0.0,0.0,0.0,0.0,0.0,0.0,0.0,0.0,0.0,0.0,0.0,0.0,0.0,0.0,0.0,0.0,0.0,0.0,0.0,0.0,0.0,0.0,0.0,0.0,0.0,0.0,0.0,0.0,0.3639,0.3348,0.0,0.0,0.0,0.0,0.1167,0.0446,0.0,0.0,0.0,0.0,-0.0053,-0.143,-0.2204,-0.2268,-0.3712,-0.4824,-0.5471,-0.5471,-0.586,-0.6588,-0.6573,-0.6506,-0.6406,-0.7002,-0.6672,-0.5733,-0.5753,-0.5932,-0.6143,-0.5437,-0.487,-0.4461,-0.4474,-0.398,-0.3327,0.0,0.0,0.0,0.0,0.0,0.0,0.0,0.0,-0.3604,-0.2873,-0.1542,-0.0109,0.1407,0.3578,0.5092,0.5516,0.6999,0.7818,0.7563,0.7659,0.7395,0.6783,0.6471,0.5968,0.5246,0.522,0.5526,0.6283,0.7338,0.8259,0.9176,1.0339,1.1168,1.1701,1.2312,1.284,1.3193,1.3404,1.3006,1.2238,1.155,1.1159,0.0,0.0,0.0,0.0,0.0,0.0,0.0,0.0,0.0,0.0,0.0,0.0,0.0,0.0,0.0,0.0,0.0,0.0,0.0,0.0,0.0,0.0,0.0,0.0,0.0,0.0,0.0,0.0,0.0,0.0,0.0,0.0,0.0,0.0,0.0,0.0,0.0,0.429,0.3786,0.0,0.3335,0.1976,0.1128,0.1094,0.0397,0.0,0.0,0.0,-0.045,-0.1372,-0.1918,-0.2697,-0.3677,-0.4236,-0.4625,-0.4838,-0.4838,-0.5007,-0.5226,-0.5226,-0.5245,-0.5177,-0.5688,-0.5705,-0.5453,-0.5278,-0.5365,-0.5567,-0.4913,-0.4496,-0.4236,-0.397,-0.3648,-0.3299,0.0,0.0,0.0,0.0,0.0,0.0,0.0,0.0,-0.4925,-0.4378,-0.3061,-0.1621,-0.0303,0.196,0.3656,0.4466,0.5952,0.6894,0.7033,0.6941,0.6652,0.6113,0.5699,0.5407,0.5277,0.5484,0.5783,0.6179,0.7111,0.7879,0.8281,0.9472,1.0249,1.0645,1.1249,1.2218,1.3344,1.3829,1.3503,1.2705,1.2111,1.1697,1.1404,0.0,0.0,0.0,0.0,0.0,0.0,0.0,0.0,0.0,0.0,0.0,0.0,0.0,0.0,0.0,0.0,0.0,0.0,0.0,0.0,0.0,0.0,0.0,0.0,0.0,0.0,0.0,0.0,0.0,0.0,0.0,0.0,0.0,0.0,0.0,0.4555,0.4395,0.3721,0.3132,0.2764,0.154,0.07,0.0716,0.029,0.0,0.0,0.0,-0.0458,-0.1453,-0.1675,-0.2454,-0.3735,-0.4015,-0.4239,-0.4519,-0.4519,-0.4519,-0.4519,-0.4519,-0.4491,-0.444,-0.4969,-0.5084,-0.4872,-0.4952,-0.4948,-0.4815,-0.4465,-0.4248,-0.4116,-0.3827,-0.3629,-0.344,0.0,0.0,0.0,0.0,0.0,0.0,0.0,-0.6213,-0.5545,-0.5363,-0.4721,-0.3291,-0.0784,-0.0064,0.123,0.39,0.3868,0.4654,0.6631,0.5439,0.51,0.6113,0.5354,0.5152,0.5606,0.5898,0.619,0.6485,0.6793,0.7014,0.7156,0.8462,0.9276,0.9819,1.0853,1.23,1.3776,1.3776,1.3713,1.3572,1.3033,1.2605,1.2231,0.0,0.0,0.0,0.0,0.0,0.0,0.0,0.0,0.0,0.0,0.0,0.0,0.0,0.0,0.0,0.0,0.0,0.0,0.0,0.0,0.0,0.0,0.0,0.0,0.0,0.0,0.0,0.0,0.0,0.0,0.0,0.0,0.0,0.4704,0.4773,0.4603,0.39,0.3007,0.2096,0.1173,0.0432,0.0,0.0,0.0,0.0,0.0,0.0,0.0,-0.0056,-0.0728,-0.1452,-0.2174,-0.301,-0.3735,-0.446,-0.4463,-0.4519,-0.4519,-0.4519,-0.4385,-0.4263,-0.5093,-0.4918,-0.4076,-0.4767,-0.4668,-0.4039,-0.4127,-0.4093,-0.4019,-0.4019,-0.3924,-0.3748,0.0,0.0,0.0,0.0,0.0,0.0,0.0,-0.7531,-0.7537,-0.6276,-0.6067,-0.5086,-0.2506,-0.0798,0.0698,0.1955,0.2647,0.3251,0.3796,0.3771,0.4318,0.5535,0.5477,0.5664,0.6217,0.6308,0.6498,0.6803,0.7102,0.7326,0.7475,0.7897,0.8265,0.8463,0.8849,0.9747,1.1161,1.2042,1.3009,1.3829,1.3776,1.3414,1.2859,0.0,0.0,0.0,0.0,0.0,0.0,0.0,0.0,0.0,0.0,0.0,0.0,0.0,0.0,0.0,0.0,0.0,0.0,0.0,0.0,0.0,0.0,0.0,0.0,0.0,0.0,0.0,0.0,0.0,0.0,0.0,0.0,0.5138,0.5026,0.4475,0.4035,0.3954,0.2563,0.1506,0.1245,0.0516,0.0,0.0,0.0,0.0,0.0,0.0,-0.0238,-0.0754,-0.1019,-0.1452,-0.2174,-0.2954,-0.3456,-0.3622,-0.4236,-0.4519,-0.4519,-0.4519,-0.4494,-0.4406,-0.4663,-0.4516,-0.4192,-0.4506,-0.4435,-0.4117,-0.3985,-0.3958,-0.4019,-0.4019,-0.3924,-0.3748,0.0,0.0,0.0,0.0,0.0,0.0,0.0,-0.7902,-0.792,-0.6818,-0.6653,-0.5851,-0.3841,-0.1997,-0.0409,0.0841,0.1579,0.2217,0.2755,0.2932,0.3425,0.4209,0.4836,0.5343,0.5819,0.6381,0.6554,0.6313,0.7011,0.7201,0.6825,0.7481,0.7892,0.8038,0.8038,0.8726,1.0096,1.0779,1.2231,1.3921,1.3969,1.4164,1.4168,1.2913,1.2585,1.2685,1.1844,1.1683,1.1814,1.1379,0.0,0.0,0.0,0.0,0.0,0.0,0.0,0.0,0.0,0.0,0.0,0.0,0.0,0.0,0.0,0.0,0.0,0.0,0.0,0.0,0.0,0.0,0.0,0.0,0.543,0.5491,0.4972,0.4393,0.3759,0.3093,0.2025,0.118,0.0764,0.0274,0.0,0.0,0.0,0.0,0.0,0.0,-0.0185,-0.0648,-0.0635,-0.1021,-0.173,-0.2454,-0.301,-0.3345,-0.4125,-0.4519,-0.4519,-0.4519,-0.4519,-0.4519,-0.4519,-0.4412,-0.4284,-0.4034,-0.392,0.0,0.0,0.0,0.0,0.0,-0.3887,-0.368,0.0,0.0,0.0,0.0,0.0,0.0,0.0,-0.7744,-0.747,-0.7021,-0.6694,-0.599,-0.4667,-0.328,-0.1727,0.0131,0.0691,0.1482,0.2612,0.2508,0.2485,0.2701,0.3757,0.4496,0.4737,0.5958,0.6133,0.5177,0.6578,0.6705,0.5858,0.7143,0.7909,0.8038,0.8038,0.8627,0.9801,0.9899,1.1356,1.3488,1.3776,1.4638,1.5605,1.4015,1.3687,1.3941,1.2806,1.2258,1.2011,1.165,0.0,0.0,0.0,0.0,0.0,0.0,0.0,0.0,0.0,0.0,0.0,0.0,0.0,0.0,0.0,0.0,0.0,0.0,0.0,0.0,0.0,0.0,0.0,0.0,0.5979,0.567,0.4709,0.4251,0.3489,0.1809,0.133,0.0873,0.0073,0.0,0.0,0.0,0.0,0.0,0.0,0.0,0.0,0.0,0.0,-0.029,-0.0956,-0.1789,-0.2565,-0.3289,-0.4125,-0.4519,-0.4519,-0.4519,-0.4519,-0.4519,-0.4519,-0.446,-0.4284,-0.3458,-0.3204,-0.3345,-0.3959,-0.4226,-0.4239,-0.3987,-0.3761,-0.3516,0.0,0.0,0.0,0.0,0.0,0.0,0.0,-0.832,-0.8164,-0.6855,-0.7104,-0.6483,-0.4115,-0.2906,-0.1803,-0.0601,-0.0058,0.0585,0.1421,0.1491,0.1951,0.2844,0.3214,0.3558,0.3884,0.4087,0.4143,0.3962,0.5365,0.601,0.5858,0.7242,0.8011,0.8038,0.8038,0.8137,0.8432,0.9509,1.0288,1.097,1.3006,1.4527,1.5418,1.4843,1.4402,1.3995,1.3287,1.3146,1.318,1.2392,1.2452,1.277,1.1914,1.1177,0.0,0.0,0.0,0.0,0.0,0.0,0.0,0.0,0.0,0.0,0.0,0.0,0.0,0.0,0.0,0.0,0.0,0.0,0.0,0.6112,0.6291,0.5713,0.3872,0.3527,0.3042,0.1749,0.0813,0.0219,0.0,0.0,0.0,0.0,0.0,0.0,0.0,0.0,0.0,0.0,0.0,-0.0059,-0.0233,-0.1528,-0.2286,-0.2454,0.0,0.0,-0.4519,-0.4519,-0.4519,-0.4519,-0.4519,-0.4125,-0.3508,-0.3322,-0.2938,-0.2454,-0.2565,-0.2632,-0.2722,-0.3114,-0.3158,-0.3094,0.0,0.0,0.0,0.0,0.0,0.0,0.0,-0.8349,-0.8087,-0.7179,-0.7054,-0.6545,-0.5104,-0.362,-0.2581,-0.2112,-0.1466,-0.081,-0.0063,0.0066,0.0503,0.143,0.2082,0.2522,0.2721,0.3298,0.335,0.266,0.4066,0.4514,0.3965,0.5999,0.7033,0.7036,0.7815,0.8153,0.8153,0.8851,0.9542,1.022,1.1492,1.2576,1.3659,1.4605,1.4689,1.4143,1.3048,1.2506,1.2349,1.2067,1.2067,1.2195,1.2296,1.1874,1.1228,0.0,0.0,0.0,0.0,0.0,0.0,0.0,0.0,0.0,0.0,0.0,0.0,0.0,0.0,0.6462,0.0,0.0,0.6349,0.6651,0.6759,0.6039,0.3748,0.346,0.2815,0.1042,0.0313,0.0,0.0,0.0,0.0,0.0,0.0,0.0,0.0,0.0,0.0,0.0,0.0,0.0,0.0,-0.1464,-0.2174,-0.2232,-0.379,-0.4519,-0.4519,-0.4519,-0.4519,-0.4463,-0.4125,-0.368,-0.3234,-0.2508,-0.1786,-0.1118,-0.1118,-0.1532,-0.2176,-0.2865,-0.2988,-0.2897,0.0,0.0,0.0,0.0,0.0,0.0,0.0,-0.8201,-0.7684,-0.7262,-0.6767,-0.6305,-0.5882,-0.4299,-0.3234,-0.3199,-0.2556,-0.1984,-0.1419,-0.1232,-0.0887,-0.0326,0.0856,0.1419,0.145,0.2401,0.2449,0.1444,0.2832,0.3071,0.2414,0.4941,0.6163,0.6472,0.7728,0.8313,0.8313,0.8313,0.8896,0.9851,1.0012,1.0617,1.1552,1.3519,1.4103,1.3559,1.2236,1.1392,1.0987,1.1196,1.1353,1.151,1.2421,1.2362,1.1864,1.1055,1.0394,0.0,0.0,0.0,0.0,0.0,0.0,0.0,0.0,0.0,0.8191,0.7406,0.763,0.7819,0.6964,0.681,0.6919,0.7187,0.7204,0.634,0.3955,0.3603,0.2696,0.0253,0.0,0.0,0.0,0.0,0.0,0.0,0.0,0.0,0.0,0.0,0.0,0.0,0.0,-0.006,-0.0231,-0.1522,-0.2294,-0.2479,-0.3858,-0.4421,-0.4278,-0.4252,-0.4196,-0.3996,-0.3297,-0.2899,-0.2788,-0.1452,-0.056,0.0,0.0,-0.0661,-0.1718,-0.2626,-0.2764,-0.2699,0.0,0.0,0.0,0.0,0.0,0.0,0.0,0.0,-0.7204,-0.628,-0.6126,-0.5649,-0.4529,-0.3649,-0.2885,-0.2391,-0.2247,-0.2296,-0.2515,-0.1615,-0.1212,-0.1415,-0.0355,0.0186,0.0189,0.029,0.0295,0.0201,0.1504,0.2709,0.3817,0.5512,0.6896,0.8044,0.8394,0.8459,0.8459,0.8459,0.8488,0.8568,0.9746,1.0224,1.0316,1.1346,1.1552,1.1182,1.0723,1.0247,0.9852,0.9878,1.085,1.2043,1.2125,1.2403,1.2553,1.159,0.0,0.9713,0.9613,0.9846,0.0,1.0722,0.9845,0.9058,0.0,0.0,0.893,0.7315,0.8013,0.857,0.7253,0.7204,0.7353,0.7519,0.7434,0.6512,0.4118,0.3717,0.2744,0.0253,0.0,0.0,0.0,0.0,0.0,0.0,0.0,0.0,0.0,0.0,0.0,0.0,0.0,-0.0374,-0.1143,-0.1867,-0.2604,-0.3437,-0.4185,-0.4135,-0.355,-0.3447,-0.3058,-0.2443,-0.1696,-0.1341,-0.1284,-0.0448,-0.0056,0.0,0.0,-0.0112,-0.039,-0.1777,-0.2232,-0.2261,0.0,0.0,0.0,0.0,0.0,0.0,0.0,0.0,0.0,-0.6516,-0.5965,-0.5443,-0.4989,-0.4351,-0.3815,-0.3542,-0.3536,-0.345,-0.3247,-0.2892,-0.2598,-0.2454,-0.2188,-0.2103,-0.2241,-0.1542,-0.118,-0.119,0.0201,0.1109,0.1712,0.3141,0.4089,0.465,0.5575,0.597,0.6027,0.6995,0.7246,0.7229,0.8593,0.8911,0.8728,0.8842,0.864,0.8357,0.8806,0.867,0.0,0.8279,0.8925,0.9916,1.1018,1.1446,1.1471,1.1042,1.0815,0.0,1.1116,0.0,0.0,0.0,1.0831,1.0073,1.0649,0.9897,0.898,0.8313,0.8794,0.8942,0.7834,0.7645,0.7648,0.0,0.7526,0.6539,0.4143,0.3655,0.2728,0.0324,0.0,0.0,0.0,0.0,0.0,0.0,0.0,0.0,0.0,0.0,0.0,0.0,0.0,-0.045,-0.1318,-0.1989,-0.2854,-0.3735,-0.3865,-0.3826,-0.3516,-0.2945,-0.2261,-0.1563,-0.1258,-0.0848,-0.0461,-0.0113,0.0,0.0,0.0,0.0,-0.0112,-0.1174,-0.1733,-0.2141,0.0,0.0,0.0,0.0,0.0,0.0,0.0,0.0,0.0,0.0,-0.5724,-0.5184,-0.5249,-0.4787,-0.4519,-0.4519,-0.4519,-0.4346,-0.3979,-0.3786,-0.3576,-0.3399,-0.3389,-0.3474,-0.3772,-0.2588,-0.1962,-0.1971,-0.0702,0.0202,0.0605,0.162,0.2247,0.2691,0.379,0.4274,0.4433,0.5836,0.6417,0.6406,0.7744,0.8024,0.7699,0.7207,0.6739,0.6475,0.7053,0.6937,0.6519,0.6581,0.7129,0.7915,0.9373,1.0131,1.0463,1.0494,1.0962,1.1503,1.1844,0.0,0.0,1.2532,1.1972,1.1402,1.164,1.0616,0.9569,0.9439,0.9432,0.9208,0.8091,0.7756,0.7641,0.7682,0.7509,0.6539,0.4143,0.3703,0.2752,0.0315,0.0,0.0,0.0,0.0,0.0,0.0,0.0,0.0,0.0,0.0,0.0,0.0,-0.0201,-0.0785,-0.1703,-0.2233,-0.2962,-0.3791,-0.339,-0.311,-0.2891,-0.1971,-0.1302,-0.0798,-0.0814,-0.0518,0.0,0.0,0.0,0.0,0.0,0.0,-0.0056,-0.0616,-0.1212,-0.1892,0.0,0.0,0.0,0.0,0.0,0.0,0.0,0.0,0.0,0.0,0.0,0.0,0.0,-0.4519,-0.4519,-0.4519,-0.4519,-0.4592,-0.4844,-0.3924,-0.3657,-0.4138,-0.3397,-0.3112,-0.3587,-0.2399,-0.1878,-0.2011,-0.0706,0.0706,0.1913,0.2153,0.2894,0.4133,0.442,0.4457,0.4567,0.5943,0.6404,0.6392,0.7598,0.7868,0.7543,0.6943,0.6434,0.5986,0.5614,0.526,0.4938,0.4999,0.584,0.6994,0.731,0.8581,0.0,1.0287,1.0854,1.1369,0.0,0.0,1.2882,1.3106,1.2989,1.2762,1.2913,1.2248,1.1267,1.0232,0.9689,0.9072,0.7889,0.7363,0.721,0.736,0.7377,0.6539,0.4143,0.3752,0.2884,0.0316,0.0,0.0,0.0,0.0,0.0,0.0,0.0,0.0,0.0,0.0,0.0,0.0,-0.0852,-0.1695,-0.2669,-0.253,-0.2929,-0.3773,-0.2739,-0.1871,-0.1156,-0.0386,-0.0063,-0.0062,-0.006,0.0,0.0,0.0,0.0,0.0,0.0,0.0,0.0,0.0,-0.0503,-0.1339,0.0,0.0,0.0,0.0,0.0,0.0,0.0,0.0,0.0,0.0,0.0,0.0,0.0,0.0,0.0,0.0,-0.5164,-0.5266,-0.5506,-0.5257,-0.5091,-0.5011,-0.5118,-0.5333,-0.5617,-0.4665,-0.3892,-0.3196,-0.1843,-0.0583,0.068,0.0685,0.0987,0.1399,0.1527,0.155,0.1569,0.3065,0.4095,0.4832,0.6005,0.6856,0.735,0.6447,0.5952,0.5664,0.0,0.4853,0.4752,0.465,0.5006,0.5489,0.5952,0.6928,0.8276,1.0214,1.0511,1.0542,1.228,0.0,1.3182,1.417,1.4094,1.3524,1.2495,1.1282,1.0079,0.8703,0.8063,0.7639,0.7107,0.6759,0.6671,0.7021,0.7078,0.634,0.4129,0.3798,0.2833,0.0309,0.0,0.0,0.0,0.0,0.0,0.0,0.0,0.0,0.0,0.0,0.0,0.0,-0.0279,-0.0835,-0.179,-0.1758,-0.2134,-0.3033,-0.2055,-0.116,-0.0332,-0.0128,0.0,0.0,0.0,0.0,0.0,0.0,0.0,0.0,0.0,0.0,0.0,0.0,-0.0168,-0.0504,0.0,0.0,0.0,0.0,0.0,0.0,0.0,0.0,0.0,0.0,0.0,0.0,0.0,0.0,0.0,0.0,0.0,-0.5648,-0.6057,-0.59,-0.5779,-0.5634,-0.5759,-0.602,-0.6369,-0.5371,-0.4613,-0.3911,-0.2582,-0.161,-0.0902,-0.0541,-0.0456,-0.0466,-0.0094,0.0,0.0097,0.1566,0.2623,0.3416,0.4529,0.5589,0.6383,0.551,0.5267,0.0,0.4789,0.4609,0.4596,0.4553,0.4584,0.4723,0.5125,0.6177,0.758,0.9475,0.9865,1.0188,1.2748,1.3319,1.3624,1.5245,1.5409,1.4733,1.3095,1.1512,0.993,0.8467,0.7336,0.6559,0.6407,0.6139,0.6067,0.6461,0.6286,0.5529,0.3758,0.3324,0.2353,0.0241,0.0,0.0,0.0,0.0,0.0,0.0,0.0,0.0,0.0,0.0,0.0,0.0,-0.0289,-0.0722,-0.1276,-0.1275,-0.1469,-0.1701,-0.1138,-0.0534,0.0,0.0,0.0,0.0,0.0,0.0,0.0,0.0,0.0,0.0,0.0,0.0,0.0,0.0,0.0,-0.0112,0.0,0.0,0.0,0.0,0.0,0.0,0.0,0.0,0.0,0.0,0.0,0.0,0.0,0.0,0.0,0.0,0.0,0.0,-0.6588,-0.5977,-0.5703,-0.5947,-0.5468,-0.5321,-0.5755,-0.4664,-0.4102,-0.4199,-0.288,-0.2366,-0.2499,-0.1533,-0.1144,-0.1252,-0.0418,0.0,0.0084,0.1338,0.1899,0.2097,0.3221,0.4082,0.4662,0.4159,0.4332,0.4867,0.4568,0.4519,0.4519,0.4536,0.4563,0.0,0.4931,0.6261,0.7855,0.8193,0.9101,1.0399,1.24,1.3256,1.4152,1.6043,1.6593,1.6201,1.455,1.2659,1.0843,0.9287,0.7369,0.5935,0.0,0.0,0.545,0.5752,0.5162,0.4346,0.327,0.248,0.1533,0.0,0.0,0.0,0.0,0.0,0.0,0.0,0.0,0.0,0.0,0.0,0.0,0.0,-0.0802,-0.1238,-0.1238,-0.1237,-0.0791,0.0,0.0,0.0,0.0,0.0,0.0,0.0,0.0,0.0,0.0,0.0,0.0,0.0,0.0,0.0,0.0,0.0,0.0,-0.0112,0.0,0.0,0.0,0.0,0.0,0.0,0.0,0.0,0.0,0.0,0.0,0.0,0.0,0.0,0.0,0.0,0.0,0.0,-0.7343,-0.723,-0.6683,-0.5682,-0.5711,-0.563,-0.5298,-0.5215,-0.4833,-0.4068,-0.3698,-0.3117,-0.2242,-0.1496,-0.1127,-0.1135,-0.0309,0.0,0.0,0.0396,0.1113,0.1962,0.1919,0.2997,0.4463,0.3947,0.4121,0.4724,0.4587,0.4519,0.4553,0.0,0.0,0.0,0.0,0.7021,0.7956,0.8903,0.9141,0.9592,1.1352,1.2511,1.3443,1.453,1.5732,1.5894,1.28,1.147,1.0163,0.7348,0.6015,0.5315,0.0,0.0,0.0,0.5735,0.53,0.0,0.3602,0.2597,0.0,0.0175,0.0,0.0,0.0,0.0,0.0,0.0,0.0,0.0,0.0,0.0,0.0,0.0,-0.0225,-0.03,-0.03,-0.0368,-0.0216,0.0,0.0,0.0,0.0,0.0,0.0,0.0,0.0,0.0,0.0,0.0,0.0,0.0,0.0,0.0,0.0,0.0,0.0,0.0,0.0,0.0,0.0,0.0,0.0,0.0,0.0,0.0,0.0,0.0,0.0,0.0,0.0,0.0,0.0,0.0,0.0,0.0,0.0,-0.7883,-0.7337,-0.6519,-0.6032,-0.5619,-0.5303,-0.5188,-0.4814,-0.4237,-0.4237,-0.3934,-0.3253,-0.2125,-0.1606,-0.1695,-0.0483,0.0,0.0,0.0,0.0424,0.0,0.0,0.1868,0.3477,0.3123,0.367,0.4579,0.4549,0.0,0.0,0.0,0.0,0.6098,0.6677,0.7189,0.7868,0.8569,0.0,0.9786,1.0961,1.261,1.4151,1.4395,1.537,1.5512,1.2524,1.1055,0.9473,0.6769,0.5505,0.0,0.4745,0.0,0.0,0.0,0.0,0.0,0.2666,0.1756,0.0841,0.0,0.0,0.0,0.0,0.0,0.0,0.0,0.0,0.0,0.0,0.0,0.0,0.0,0.0,0.0,0.0,0.0,0.0,0.0,0.0,0.0,0.0,0.0,0.0,0.0,0.0,0.0,0.0,0.0,0.0,0.0,0.0,0.0,0.0,0.0,0.0,0.0,0.0,0.0,0.0,0.0,0.0,0.0,0.0,0.0,0.0,0.0,0.0,0.0,0.0,0.0,0.0,0.0,0.0,0.0,0.0,0.0,-0.7777,-0.7723,-0.6357,-0.5597,-0.5487,-0.4842,-0.4519,-0.4519,-0.4519,-0.4587,-0.466,-0.2967,-0.2305,-0.2369,-0.0731,0.0,0.0,0.0,0.0,0.0,0.0,0.0861,0.2174,0.0,0.3178,0.4519,0.0,0.0,0.0,0.0,0.6088,0.6461,0.6756,0.7248,0.7743,0.808,0.9303,1.0625,1.108,1.322,1.5347,1.5059,1.5314,1.5126,1.2809,1.0824,0.881,0.6605,0.0,0.4619,0.4543,0.3966,0.3615,0.3796,0.0,0.1379,0.1546,0.0711,0.0,0.0,0.0,0.0,0.0,0.0,0.0,0.0,0.0,0.0,0.0,0.0,0.0,0.0,0.0,0.0,0.0,0.0,0.0,0.0,0.0,0.0,0.0,0.0,0.0,0.0,0.0,0.0,0.0,0.0,0.0,0.0,0.0,0.0,0.0,0.0,0.0,0.0,0.0,0.0,0.0,0.0,0.0,0.0,0.0,0.0,0.0,0.0,-0.9379,-0.7959,0.0,0.0,0.0,0.0,0.0,0.0,0.0,0.0,0.0,-0.7723,-0.6853,-0.6145,-0.5487,-0.4842,-0.4519,-0.4519,-0.4519,-0.4532,-0.4501,-0.2923,-0.2201,-0.2214,-0.0683,0.0,0.0,0.0,0.0,0.0,0.0,0.0899,0.2174,0.2174,0.0,0.0,0.0,0.0,0.0,0.0,0.6519,0.7231,0.7526,0.7946,0.8564,0.9955,1.0573,1.1089,1.2495,1.4094,1.5305,1.4733,1.5027,1.4676,1.1531,0.9843,0.0,0.0,0.4758,0.4549,0.4522,0.4571,0.4764,0.5171,0.0,0.0,0.0,0.0,0.0,0.0,0.0,0.0,0.0,0.0,0.0,0.0,0.0,0.0,0.0,0.0,0.0,0.0,0.0,0.0,0.0,0.0,0.0,0.0,0.0,0.0,0.0,0.0,0.0,0.0,0.0,0.0,0.0,0.0,0.0,0.0,0.0,0.0,0.0,0.0,0.0,0.0,0.0,0.0,0.0,0.0,0.0,0.0,0.0,-1.3044,-1.2666,-1.2213,-1.0746,-0.9634,-0.9363,-0.8614,-0.8002,0.0,0.0,0.0,0.0,0.0,0.0,0.0,0.0,0.0,-0.6091,-0.5062,-0.4519,-0.4519,0.0,-0.4519,-0.446,-0.2899,-0.2174,-0.212,-0.0671,0.0,0.0,0.0,0.0,0.0,0.0,0.0671,0.1675,0.0,0.0,0.0,0.0,0.0,0.0,0.0,0.6125,0.682,0.7665,0.8184,0.8703,0.9403,1.0746,1.2,1.1996,1.4155,1.605,1.4583,1.4422,1.3756,1.123,0.0,0.0,0.0,0.4786,0.4519,0.4519,0.0,0.0,0.0,0.0,0.0,0.0,0.0,0.0,0.0,0.0,0.0,0.0,0.0,0.0,0.0,0.0,0.0,0.0,0.0,0.0,0.0,0.0,0.0,0.0,0.0,0.0,0.0,0.0,0.0,0.0,0.0,0.0,0.0,0.0,0.0,0.0,0.0,0.0,0.0,0.0,0.0,0.0,0.0,0.0,0.0,0.0,0.0,0.0,0.0,0.0,0.0,0.0,-1.3558,-1.3135,-1.295,-1.2025,-1.141,-1.1387,-1.0236,-0.9168,0.0,0.0,0.0,0.0,0.0,0.0,0.0,0.0,0.0,0.0,0.0,0.0,0.0,-0.4519,0.0,0.0,0.0,0.0,0.0,-0.0671,0.0,0.0,0.0,0.0,0.0,0.0,0.0448,0.0,0.0,0.0,0.0,0.0,0.0,0.0,0.0,0.5569,0.6088,0.7244,0.7879,0.8309,0.8678,1.0463,1.2215,1.1476,1.3904,1.6285,1.4511,1.3752,1.3008,1.1004,0.8913,0.0,0.0,0.4842,0.4519,0.4519,0.0,0.3112,0.0,0.0,0.0,0.0,0.0,0.0,0.0,0.0,0.0,0.0,0.0,0.0,0.0,0.0,0.0,0.0,0.0,0.0,0.0,0.0,0.0,0.0,0.0,0.0,0.0,0.0,0.0,0.0,0.0,0.0,0.0,0.0,0.0,0.0,0.0,0.0,0.0,0.0,0.0,0.0,0.0,0.0,0.0,0.0,0.0,0.0,0.0,0.0,0.0,0.0,-1.456,-1.4446,-1.4239,-1.3352,-1.287,-1.3195,-1.1167,-0.9696,0.0,0.0,0.0,0.0,0.0,0.0,0.0,0.0,0.0,0.0,0.0,0.0,0.0,0.0,0.0,0.0,0.0,0.0,0.0,0.0,0.0,0.0,0.0,0.0,0.0,0.0,0.0,0.0,0.0,0.0,0.0,0.0,0.0,0.0,0.0,0.0,0.5515,0.6047,0.6698,0.7587,0.9165,0.0,0.0,1.222,1.376,1.4861,1.414,1.3561,1.2609,1.0296,0.0,0.0,0.4934,0.4519,0.4519,0.4519,0.3855,0.3375,0.0,0.0,0.1161,0.0,0.0,0.0,0.0,0.0,0.0,0.0,0.0,0.0,0.0,0.0,0.0,0.0,0.0,0.0,0.0,0.0,0.0,0.0,0.0,0.0,0.0,0.0,0.0,0.0,0.0,0.0,0.0,0.0,0.0,0.0,0.0,0.0,0.0,0.0,0.0,0.0,0.0,0.0,0.0,0.0,0.0,0.0,0.0,0.0,0.0,-1.525,-1.5231,-1.5039,-1.4475,-1.4058,-1.374,-1.3537,-1.2833,-1.2149,-1.161,0.0,0.0,0.0,0.0,0.0,0.0,0.0,0.0,0.0,0.0,-0.4519,-0.4519,-0.4519,0.0,0.0,0.0,0.0,0.0,0.0,0.0,0.0,0.0,0.0,0.0,0.0,0.0,0.0,0.0,0.0,0.0,0.0,0.0,0.0,0.0,0.0,0.0,0.503,0.5416,0.0,0.0,0.8845,0.9943,1.0909,1.2198,1.3165,1.2631,1.1657,1.0377,0.8634,0.0,0.5801,0.4746,0.4519,0.4519,0.4519,0.3901,0.3261,0.289,0.1884,0.0,0.0,0.0,0.0,0.0,0.0,0.0,0.0,0.0,0.0,0.0,0.0,0.0,0.0,0.0,0.0,0.0,0.0,0.0,0.0,0.0,0.0,0.0,0.0,0.0,0.0,0.0,0.0,0.0,0.0,0.0,0.0,0.0,0.0,0.0,0.0,0.0,0.0,0.0,0.0,0.0073,0.0,0.0,0.0,0.0,0.0,-1.5526,-1.5804,-1.572,-1.5405,-1.4769,-1.4569,-1.4254,-1.3588,-1.3661,-1.3521,-1.2939,-1.2029,0.0,0.0,0.0,0.0,0.0,0.0,0.0,0.0,0.0,-0.4787,-0.4787,-0.4787,-0.4787,0.0,0.0,0.0,0.0,0.0,0.0,0.0,0.0,0.0,0.0,0.0,0.0,0.0,0.0,0.0,0.0,0.0,0.0,0.0,0.0,0.0,0.0,0.0,0.0,0.0,0.0,0.7383,0.8657,0.8931,1.0184,1.1259,1.0667,0.9807,0.8774,0.0,0.0,0.5328,0.4625,0.4519,0.4519,0.4519,0.368,0.2843,0.2286,0.1423,0.0611,0.006,0.0,0.0,0.0,0.0,0.0,0.0,0.0,0.0,0.0,0.0,0.0,0.0,0.0,0.0,0.0,0.0,0.0,0.0,0.0,0.0,0.0,0.0,0.0,0.0,0.0,0.0,0.0,0.0,0.0,0.0,0.0,0.0,0.0,0.0,0.0223,0.0457,0.0442,0.0661,0.1039,0.0,0.0,0.0,0.0,0.0,0.0,-1.6479,-1.5996,-1.5541,-1.5311,-1.4954,-1.4385,-1.3609,-1.3154,-1.2919,-1.2919,-1.291,0.0,0.0,0.0,0.0,0.0,0.0,0.0,0.0,0.0,-0.5487,-0.5487,-0.5487,-0.5487,-0.5483,-0.4758,-0.3605,-0.2174,0.0,0.0,0.0,0.0,0.0,0.0,0.0,0.0,0.0,0.0,0.0,0.0,0.0,0.0,0.0,0.0,0.0,0.0,0.0,0.0,0.0,0.0,0.5871,0.6417,0.663,0.7815,0.8862,0.8319,0.8387,0.8328,0.0,0.6186,0.5328,0.4625,0.4519,0.4519,0.4519,0.3234,0.223,0.2174,0.095,0.0,0.0,0.0,0.0,0.0,0.0,0.0,0.0,0.0,0.0,0.0,0.0,0.0,0.0,0.0,0.0,0.0,0.0,0.0,0.0,0.0,0.0,0.0,0.0,0.0,0.0,0.0,0.0,0.0,0.0,0.0,0.0,0.0,0.0,0.0,0.0,0.0676,0.1558,0.1556,0.2248,0.31,0.0,0.0,0.0,0.0,0.0,0.0,0.0,-1.6088,-1.6025,-1.5576,-1.5369,-1.4937,-1.3871,-1.3733,-1.3514,-1.302,-1.2902,0.0,0.0,0.0,0.0,0.0,0.0,0.0,0.0,0.0,-0.6253,-0.6253,-0.6253,-0.6253,-0.6258,-0.5483,-0.4599,-0.3542,-0.2371,0.0,0.0,0.0,0.0,0.0,0.0,0.0,0.0,0.0,0.0,0.0,0.0,0.0,0.0,0.0,0.0,0.0,0.0,0.0,0.0,0.4749,0.0,0.0,0.6006,0.6578,0.7017,0.6686,0.6487,0.6268,0.5674,0.5173,0.4732,0.4519,0.4519,0.4349,0.379,0.2843,0.2009,0.1507,0.0615,0.0,0.0,0.0,0.0,0.0,0.0,0.0,0.0,0.0,0.0,0.0,0.0,0.0,0.0,0.0,0.0,0.0,0.0,0.0,0.0,0.0,0.0,0.0,0.0,0.0,0.0,0.0,0.0,0.0,0.0,0.0,0.0,0.0,0.0,0.0078,0.0833,0.1296,0.172,0.2382,0.2852,0.3195,0.0,0.0,0.0,0.0,0.0,0.0,0.0,-1.6296,-1.6281,-1.5676,-1.582,-1.5525,-1.4328,-1.4485,-1.4463,-1.3916,-1.3542,0.0,0.0,0.0,0.0,0.0,0.0,0.0,-0.7723,-0.7235,-0.702,-0.702,-0.702,-0.702,-0.702,-0.6253,-0.5313,-0.4241,-0.2826,-0.1723,0.0,0.0,0.0,0.0,0.0,0.0,-0.0812,0.0,0.0,0.0,0.0,0.0,0.0,0.0,0.0,0.0,0.0,0.0,0.0,0.0,0.4786,0.5087,0.0,0.5647,0.5776,0.5528,0.5287,0.0,0.0,0.4599,0.4405,0.4125,0.407,0.379,0.301,0.2286,0.1619,0.1174,0.0504,0.0,0.0,0.0,0.0,0.0,0.0,0.0,0.0,0.0,0.0,0.0,0.0,0.0,0.0,0.0,0.0,0.0,0.0,0.0,0.0,0.0,0.0,0.0,0.0,0.0,0.0,0.0,0.0,0.0,0.0,0.0,0.0,0.0,0.0232,0.0705,0.1311,0.2087,0.2817,0.3437,0.3984,0.4375,0.0,0.0,0.0,0.0,0.0,0.0,0.0,-1.657,-1.6411,-1.584,-1.6269,-1.617,-1.4959,-1.5342,-1.5628,-1.5345,0.0,0.0,0.0,0.0,0.0,0.0,0.0,0.0,-0.7877,-0.7777,-0.7777,-0.7777,-0.7794,-0.78,-0.7806,-0.7063,-0.5941,-0.4529,-0.3018,-0.19,-0.1059,-0.0378,-0.0488,-0.1111,-0.1075,-0.151,0.0,0.0,0.0,0.0,0.0,0.0,0.0,0.0,0.0,0.0,0.0,0.0,0.0,0.0,0.0,0.0,0.0,0.4975,0.0,0.0,0.0,0.0,0.0,0.446,0.0,0.3514,0.3287,0.301,0.223,0.1563,0.1062,0.1006,0.0449,0.0,0.0,0.0,0.0,0.0,0.0,0.0,0.0,0.0,0.0,0.0,0.0,0.0,0.0,0.0,0.0,0.0,0.0,0.0,0.0,0.0,0.0,0.0,0.0,0.0,0.0,0.0,0.0,0.0,0.0,0.0,0.0,0.0079,0.0706,0.1646,0.1802,0.2971,0.4688,0.4766,0.547,0.6338,0.0,0.0,0.0,0.0,0.0,0.0,0.0,0.0,0.0,0.0,-1.7653,-1.7317,-1.6196,-1.6571,-1.6468,0.0,0.0,0.0,0.0,0.0,0.0,0.0,0.0,0.0,-0.9347,-0.8791,-0.8533,-0.8533,-0.8754,-0.8857,-0.8864,-0.833,-0.7464,-0.619,-0.4842,-0.3102,-0.1115,-0.0916,-0.0907,-0.0969,-0.1065,-0.1444,0.0,0.0,0.0,0.0,0.0604,0.1563,0.0,0.0,0.0,0.0,0.0,0.0,0.0,0.0,0.4244,0.4261,0.4331,0.0,0.4613,0.4579,0.4545,0.4563,0.0,0.4015,0.3511,0.0,0.0,0.2232,0.1507,0.1229,0.0895,0.0336,0.0115,-0.0233,0.0,0.0,0.0,0.0,0.0,0.0,0.0,0.0,0.0,0.0,0.0,0.0,0.0,0.0,0.0,0.0,0.0,0.0,0.0,0.0,0.0,0.0,0.0,0.0,0.0,0.0,0.0,0.0,0.0,0.0,0.0079,0.0863,0.1411,0.1723,0.3361,0.4297,0.4766,0.5628,0.6103,0.6338,0.0,0.0,0.0,0.0,0.0,0.0,0.0,0.0,0.0,0.0,0.0,0.0,0.0,0.0,0.0,0.0,0.0,0.0,0.0,0.0,0.0,0.0,0.0,-1.0813,-0.9814,-0.9465,-0.9113,-0.8804,-0.9272,-0.937,-0.919,-0.8978,-0.8202,-0.6844,-0.4998,-0.3193,-0.1579,-0.1603,-0.1766,-0.2062,-0.2133,0.0,0.0,0.0,0.0,0.0,0.0491,0.1369,0.0,0.2538,0.3309,0.3932,0.0,0.0,0.0,0.0,0.4147,0.4107,0.4177,0.4304,0.427,0.3999,0.3959,0.3846,0.3511,0.0,0.0,0.0,0.0,0.0,0.0727,0.0616,0.0337,-0.0457,-0.0582,0.0,0.0,0.0,0.0,0.0,0.0,-0.0425,0.0,0.0,0.0,0.0,0.0,0.0,0.0,0.0,0.0,0.0,0.0,0.0,0.0,0.0,0.0,0.0,0.0,0.0,0.0,0.0,0.0,0.0,0.0,0.0,0.0079,0.1176,0.188,0.2425,0.4062,0.5002,0.5473,0.6103,0.6338,0.6338,0.0,0.0,0.0,0.0,0.0,0.0,0.0,0.0,0.0,0.0,0.0,0.0,0.0,0.0,0.0,0.0,0.0,0.0,0.0,0.0,0.0,0.0,-1.2184,-1.1266,-1.0115,-1.002,-0.9658,-0.9113,-0.9761,-0.9899,-0.941,-0.9479,-0.8652,-0.7023,-0.4675,-0.3177,-0.2401,-0.2401,-0.2761,-0.3369,-0.3396,0.0,0.0,0.0,0.0,0.0,0.0,0.0,0.0,0.1807,0.2514,0.3164,0.3259,0.0,0.0,0.0,0.0,0.0,0.4127,0.4092,0.3906,0.3419,0.3287,0.3121,0.0,0.0,0.0,0.0,0.0,0.0,0.0,0.0,0.0,0.0,0.0,0.0,0.0,0.0,0.0,0.0,0.0,0.0,-0.0083,0.0,0.0,0.0,0.0,0.0,0.0,0.0,0.0,0.0,0.0,0.0,0.0,0.0,0.0,0.0,0.0,0.0,0.0,0.0,0.0,0.0,0.0,0.0,0.0079,0.1333,0.2347,0.3202,0.445,0.5473,0.6338,0.6338,0.6338,0.6338,0.0,0.0,0.0,0.0,0.0,0.0,0.0,0.0,0.0,0.0,0.0,0.0,0.0,0.0,0.0,0.0,0.0,0.0,0.0,0.0,0.0,-1.29,-1.2197,-1.1715,-1.1516,-1.0965,-1.0618,-1.0517,-1.1218,-1.1217,-1.0507,-1.0821,-0.9601,-0.7023,-0.5733,-0.4429,-0.3209,-0.3209,-0.3167,-0.3161,-0.3289,0.0,0.0,0.0,0.0,0.0,0.0,0.0,0.0,0.1225,0.1779,0.2493,0.3116,0.0,0.0,0.0,0.0,0.0,0.4046,0.3563,0.3167,0.3325,0.3345,0.3121,0.2341,0.0,0.0,0.0,0.0,0.0,0.0,0.0,0.0,0.0,0.0,0.0,0.0,0.0,0.0,0.0,0.0,-0.1253,-0.0078,0.0,0.0,0.0,0.0,0.0,0.0,0.0,0.0,0.0,0.0,0.0,0.0,0.0,0.0,0.0,0.0,0.0,0.0,0.0,0.0,0.0,0.0,0.0,0.0157,0.2112,0.2968,0.3279,0.5315,0.618,0.6338,0.6338,0.6338,0.6416,0.0,0.0,0.0,0.0,0.0,0.0,0.0,0.0,0.0,0.0,0.0,0.0,0.0,0.0,0.0,0.0,0.0,0.0,0.0,0.0,-1.415,-1.3888,-1.3238,-1.2541,-1.1814,-1.1516,-1.131,-1.1162,-1.1884,-1.2041,-1.17,-1.0886,-0.9305,-0.7079,-0.5958,-0.4941,-0.4015,-0.4015,-0.3923,-0.3878,0.0,0.0,0.0,0.0,0.0,0.0,0.0,0.0,0.0,0.0,0.0993,0.1649,0.1996,0.0,0.0,0.0,0.0,0.0,0.3877,0.3411,0.2848,0.2697,0.2355,0.19,0.1196,0.0,0.0,0.0,0.0,0.0,0.0,0.0,0.0,0.0,0.0,0.0,0.0,0.0,-0.4809,0.0,0.0,-0.1753,-0.0155,0.0,0.0,0.0,0.0,0.0,0.0,0.0,0.0,0.0,0.0,0.0,0.0,0.0,0.0,0.0,0.0,0.0,0.0,0.0,0.0,0.0,0.0,0.0,0.0157,0.2267,0.3124,0.3279,0.5473,0.6338,0.6338,0.6338,0.6644,0.7176,0.0,0.0,0.0,0.0,0.0,0.0,0.0,0.0,0.0,0.0,0.0,0.0,0.0,0.0,0.0,0.0,0.0,0.0,0.0,0.0,-1.4558,-1.4559,-1.423,-1.3464,-1.2307,-1.212,-1.1977,-1.1818,-1.2452,-1.2654,-1.2558,-1.0763,-0.9015,-0.7433,-0.643,-0.5546,-0.4732,-0.4732,-0.4625,-0.4519,0.0,0.0,0.0,0.0,0.0,0.0,0.0,0.0,0.0,0.0,0.0,0.0,0.0,0.0,0.0,0.2836,0.3181,0.3472,0.3715,0.3248,0.2544,0.2089,0.0,0.0905,0.0161,0.0,0.0,0.0,0.0,0.0,0.0,0.0,0.0,0.0,0.0,0.0,-0.5939,-0.6057,-0.5366,-0.3299,-0.2978,-0.2224,-0.0157,0.0,0.0,0.0,0.0,0.0,0.0,0.0,0.0,0.0,0.0,0.0,0.0,0.0,0.0,0.0,0.0,0.0,0.0,0.0,0.0,0.0,0.0,0.0157,0.0549,0.2345,0.3279,0.3669,0.555,0.6338,0.6338,0.6338,0.6795,0.748,0.0,0.0,0.0,0.0,0.0,0.0,0.0,0.0,0.0,0.0,0.0,0.0,0.0,0.0,0.0,0.0,0.0,0.0,0.0,0.0,-1.415,-1.4146,-1.4466,-1.4329,-1.3674,-1.3094,-1.2793,-1.2822,-1.321,-1.3114,-1.2483,-1.0949,-0.966,-0.8554,-0.7871,-0.674,-0.5433,-0.5433,-0.5058,-0.4519,-0.4519,0.0,0.0,0.0,0.0,0.0,0.0,0.0,0.0,0.0,0.0,0.0,0.0,0.0,0.1455,0.2704,0.3021,0.3072,0.3648,0.2858,0.1884,0.1844,0.0,0.0,0.0166,-0.0629,0.0,0.0,0.0,0.0,0.0,0.0,0.0,0.0,0.0,0.0,-0.6346,0.0,-0.5713,-0.3624,-0.3319,-0.2419,-0.0235,0.0,0.0,0.0,0.0,0.0,0.0,0.0,0.0,0.0,0.0,0.0,0.0,0.0,0.0,0.0,0.0,0.0,0.0,0.0,0.0,0.0,0.0,0.0549,0.1568,0.2657,0.3671,0.4688,0.5867,0.6338,0.6338,0.6338,0.6338,0.6641,0.0,0.0,0.0,0.0,0.0,0.0,0.0,0.0,0.0,0.0,0.0,0.0,0.0,0.0,0.0,0.0,0.0,0.0,0.0,-1.4733,-1.4575,-1.5531,-1.5006,-1.4606,-1.4376,-1.3789,-1.3417,-1.3271,-1.3691,-1.3385,-1.2507,-1.1481,-1.0204,-0.8678,-0.7972,-0.7122,-0.6145,-0.5706,-0.5378,-0.5109,-0.468,-0.4519,0.0,0.0,0.0,0.0,0.0,0.0,0.0,0.0,0.0,0.0047,0.0329,0.0657,0.1171,0.2011,0.2541,0.2922,0.352,0.2761,0.1809,0.1809,0.0,0.0,0.0,0.0,0.0,0.0,0.0,0.0,0.0,0.0,0.0,0.0,0.0,-0.5908,-0.6037,-0.622,-0.5721,-0.4105,-0.3381,-0.2466,-0.0973,-0.0295,0.0,0.0,0.0,0.0,0.0,0.0,0.0,0.0,0.0,0.0,0.0,0.0,0.0,0.0,0.0,0.0,0.0,0.0,0.0,0.0,0.0,0.0605,0.1685,0.2677,0.3701,0.4844,0.5867,0.6338,0.6416,0.7022,0.7633,0.8385,0.0,0.0,0.0,0.0,0.0,0.0,0.0,0.0,0.0,0.0,0.0,0.0,0.0,0.0,0.0,0.0,0.0,0.0,-1.6547,-1.5481,-1.5266,-1.6203,-1.5593,-1.5197,-1.4971,-1.4365,-1.3841,-1.3311,-1.3603,-1.3326,-1.2633,-1.1929,-1.0777,-0.9356,-0.8652,-0.7818,-0.6912,-0.6411,-0.6086,-0.5819,-0.5332,-0.5171,0.0,0.0,0.0,0.0,0.0,0.0,0.0,0.0,-0.0269,-0.0269,-0.0045,0.0269,0.0761,0.1563,0.1945,0.2316,0.3113,0.2415,0.1513,0.0,0.0,0.0,0.0,0.0,0.0,0.0,0.0,0.0,0.0,0.0,0.0,0.0,-0.502,-0.583,-0.5867,-0.6013,-0.5566,-0.3965,-0.3274,-0.2338,-0.0994,-0.035,0.0,0.0,0.0,0.0,0.0,0.0,0.0,0.0,0.0,0.0,0.0,0.0,0.0,0.0,0.0,0.0,0.0,0.0,0.0,0.0,0.0,0.0812,0.2114,0.2792,0.3901,0.5315,0.6022,0.649,0.6872,0.7557,0.8466,0.9448,0.0,0.0,0.0,0.0,0.0,0.0,0.0,0.0,0.0,0.0,0.0,0.0,0.0,0.0,0.0,0.0,0.0,0.0,-1.649,-1.6492,-1.6238,-1.5632,-1.6194,-1.6194,-1.5632,-1.5005,-1.4107,-1.2881,-1.2881,-1.2881,-1.2881,-1.2129,-1.1466,-1.0762,-1.0115,-0.9033,-0.7723,-0.7723,-0.7289,-0.6588,-0.6588,-0.6588,-0.6529,0.0,0.0,0.0,0.0,0.0,0.0,0.0,-0.0895,-0.0806,-0.018,0.0,0.0224,0.1429,0.1387,0.1174,0.2349,0.1804,0.0,0.0,0.0,0.0,0.0,0.0,0.0,0.0,0.0,0.0,0.0,0.0,0.0,-0.4248,-0.4842,-0.5518,-0.5959,-0.5891,-0.5092,-0.3145,-0.2925,-0.2143,-0.0202,0.0,0.0,0.0,0.0,0.0,0.0,0.0,0.0,0.0,0.0,0.0,0.0,0.0,0.0,0.0,0.0,0.0,0.0,0.0,0.0,0.0,0.0,0.1181,0.3093,0.3095,0.4363,0.6338,0.6338,0.6949,0.7783,0.7783,0.8466,0.9448,0.0,0.0,0.0,0.0,0.0,0.0,0.0,0.0,0.0,0.0,0.0,0.0,0.0,0.0,0.0,0.0,0.0,0.0,-1.651,-1.5996,-1.5816,-1.6238,-1.6008,-1.5776,-1.5588,-1.4595,-1.3695,-1.2881,-1.2881,-1.2881,-1.2881,-1.2129,-1.1466,-1.0762,-1.0115,-0.9302,-0.8427,-0.7937,-0.7557,-0.7343,-0.6804,-0.6588,-0.6573,0.0,0.0,0.0,0.0,0.0,0.0,0.0,0.0,0.0,-0.0806,-0.0627,-0.0403,0.0804,0.102,0.1054,0.1841,0.1479,0.0,0.0,0.0,0.0,0.0,0.0,0.0,0.0,0.0,0.0,0.0,0.0,0.0,-0.4056,-0.4867,-0.5494,-0.541,-0.5454,-0.4992,-0.3665,-0.2981,-0.2147,-0.1012,-0.0374,0.0,0.0,0.0,0.0,0.0,0.0,0.0,0.0,0.0,0.0,0.0,0.0,0.0,0.0,0.0,0.0,0.0,0.0,0.0,0.0,0.0625,0.1763,0.3242,0.473,0.5752,0.6338,0.6338,0.6949,0.7859,0.8618,0.9518,1.049,0.0,0.0,0.0,0.0,0.0,0.0,0.0,0.0,0.0,0.0,0.0,0.0,0.0,0.0,0.0,0.0,0.0,0.0,0.0,-1.6058,-1.6089,-1.6795,-1.6459,-1.6145,-1.5928,-1.4767,-1.3873,-1.3238,-1.3017,-1.2881,-1.2881,-1.2452,-1.1733,-1.0762,-1.0364,-0.9666,-0.8752,-0.8321,-0.8156,-0.8103,-0.767,-0.7393,-0.7291,0.0,0.0,0.0,0.0,0.0,0.0,0.0,0.0,0.0,-0.1429,-0.1105,-0.0698,0.0261,0.0553,0.0665,0.1267,0.0,0.0,0.0,0.0,0.0,0.0,0.0,0.0,0.0,0.0,0.0,0.0,-0.2142,0.0,-0.3448,-0.4254,-0.4947,-0.5085,-0.5162,-0.4842,-0.3824,-0.3015,-0.2162,-0.1306,-0.0475,0.0,0.0,0.0,0.0,0.0,0.0,0.0,0.0,0.0,0.0,0.0,0.0,0.0,0.0,0.0,0.0,0.0,0.0,0.0207,0.062,0.1913,0.2931,0.3785,0.546,0.6207,0.6254,0.6193,0.6992,0.8253,0.8837,0.9968,1.1303,0.0,0.0,0.0,0.0,0.0,0.0,0.0,0.0,0.0,0.0,0.0,0.0,0.0,0.0,0.0,0.0,0.0,0.0,0.0,0.0,-1.6795,-1.7353,-1.7353,-1.7008,-1.6421,-1.5264,-1.4376,-1.3815,-1.32,-1.2881,-1.2881,-1.2881,-1.2157,-1.0864,-1.0813,-1.0064,-0.891,-0.8804,-0.8804,-0.8804,-0.8804,-0.8637,-0.832,-0.7652,0.0,0.0,0.0,0.0,0.0,0.0,0.0,0.0,-0.214,-0.1521,-0.0884,-0.0251,-0.0039,0.0112,0.0658,0.0,0.0,0.0,0.0,0.0,0.0,0.0,0.0,0.0,0.0,0.0,-0.0256,-0.1348,-0.246,-0.2659,-0.3312,-0.4089,-0.4882,-0.4917,-0.4537,-0.369,-0.2917,-0.2136,-0.1177,-0.0448,0.0,0.0,0.0,0.0,0.0,0.0,0.0,0.0,0.0,0.0,0.0,0.0,0.0,0.0,0.0,0.0,0.0,0.0,0.0538,0.1543,0.3378,0.4388,0.4718,0.5593,0.6112,0.6227,0.6156,0.7188,0.8742,0.8765,1.0049,1.187,0.0,0.0,0.0,0.0,0.0,0.0,0.0,0.0,0.0,0.0,0.0,0.0,0.0,0.0,0.0,0.0,0.0,0.0,0.0,0.0,-1.7394,-1.7907,-1.7504,-1.7008,-1.6421,-1.5264,-1.4376,-1.3815,-1.32,-1.2881,-1.2881,-1.2881,-1.2452,-1.1566,-1.1015,-1.0364,-0.9562,-0.9008,-0.8804,-0.8804,-0.8804,-0.8637,-0.837,-0.8219,-0.7509,0.0,0.0,0.0,0.0,0.0,0.0,0.0,-0.3325,-0.2429,-0.1488,-0.0888,-0.0372,0.0041,0.0,0.0083,0.0,0.0,0.0,0.0,0.0,0.0,0.0,0.0,0.0,0.0,-0.0936,-0.1292,-0.1836,-0.26,-0.3333,-0.3848,-0.3898,-0.4402,-0.4449,-0.3564,-0.2761,-0.1968,-0.1174,-0.0448,0.0,0.0,0.0,0.0,0.0,0.0,0.0,0.0,0.0,0.0,0.0,0.0,0.0,0.0,0.0,0.0,0.0,0.0,0.0874,0.248,0.3655,0.4675,0.5522,0.5892,0.6051,0.6149,0.6771,0.7689,0.8685,0.941,1.0612,1.187,0.0,0.0,0.0,0.0,0.0,0.0,0.0,0.0,0.0,0.0,0.0,0.0,0.0,0.0,0.0,0.0,0.0,0.0,0.0,0.0,-1.7907,-1.8458,-1.7699,-1.7156,-1.6777,-1.5183,-1.4146,-1.3815,-1.32,-1.2881,-1.2881,-1.2881,-1.2501,-1.1765,-1.1408,-1.0914,-1.0261,-0.9917,-0.9475,-0.9103,-0.92,-0.8747,-0.8004,-0.811,-0.7595,-0.6724,-0.6146,0.0,0.0,0.0,0.0,0.0,0.0,0.0,-0.1719,-0.1423,-0.0692,0.0,0.0,0.0,0.0,0.0,0.0,0.0,0.0,0.0,0.0,0.0,0.0,-0.0123,-0.0605,-0.0655,-0.0942,-0.1823,-0.2234,-0.2628,-0.2868,-0.3605,-0.3753,-0.2905,-0.2454,-0.1898,-0.1174,-0.0448,0.0,0.0,0.0,0.0,0.0,0.0,0.0,0.0,0.0,0.0,0.0,0.0,0.0,0.0,0.0,0.0195,0.066,0.1069,0.1811,0.2746,0.4147,0.5142,0.5705,0.5786,0.619,0.6744,0.7009,0.8051,0.9466,0.9725,1.0716,1.187,0.0,0.0,0.0,0.0,0.0,0.0,0.0,0.0,0.0,0.0,0.0,0.0,0.0,0.0,0.0,0.0,0.0,0.0,0.0,0.0,0.0,-1.8878,-1.774,-1.7043,-1.698,-1.4947,-1.3802,-1.37,-1.316,-1.2978,-1.3065,-1.2978,-1.2559,-1.1972,-1.1864,-1.1516,-1.0965,-1.0864,-1.0266,-0.9407,-0.9619,-0.8839,-0.754,-0.7749,-0.7508,-0.6937,-0.6392,-0.6264,-0.6173,-0.4957,0.0,0.0,0.0,0.0,-0.179,-0.182,-0.0947,0.0,0.0,0.0,0.0,0.0,0.0,0.0,0.0,0.0,0.0,0.0,0.0,0.0,0.0,0.0,-0.0224,-0.0783,-0.1006,-0.134,-0.1898,-0.2676,-0.2954,-0.2286,-0.2109,-0.177,-0.1163,-0.0442,0.0,0.0,0.0,0.0,0.0,0.0,0.0,0.0,0.0,0.0,0.0,0.0,0.0,0.0,0.0126,0.063,0.1353,0.2447,0.2945,0.3011,0.4686,0.5447,0.5589,0.5589,0.6291,0.7368,0.7194,0.8443,1.0225,1.0012,1.071,1.179,0.0,0.0,0.0,0.0,0.0,0.0,0.0,0.0,0.0,0.0,0.0,0.0,0.0,0.0,0.0,0.0,0.0,0.0,-1.9442,0.0,0.0,-1.8902,-1.7252,-1.6219,-1.5977,-1.454,-1.3598,-1.3215,-1.301,-1.3152,0.0,0.0,-1.2832,-1.2715,-1.208,-1.1765,-1.1616,-1.1065,-1.0266,-0.9385,-0.943,-0.8692,-0.7513,-0.756,-0.7315,-0.6937,-0.6392,-0.652,-0.6725,-0.5561,-0.5173,0.0,0.0,0.0,-0.1784,-0.1795,-0.0929,0.0,0.0,0.0,0.0,0.0,0.0,0.0,0.0,0.0,0.0,0.0,0.0,0.0,0.0,0.0,-0.0056,-0.0112,-0.0671,-0.1118,-0.1229,-0.1898,-0.2341,-0.2232,-0.1631,-0.1228,-0.1122,-0.0416,0.0,0.0,0.0,0.0,0.0,0.0,0.0,0.0,0.0,0.0,0.0,0.0,0.0,0.0,0.0761,0.1156,0.1353,0.3041,0.3813,0.3882,0.4954,0.5447,0.5589,0.5589,0.6157,0.7074,0.7777,0.8742,0.9878,1.0552,1.1135,1.1483,0.0,0.0,0.0,0.0,0.0,0.0,0.0,0.0,0.0,0.0,0.0,0.0,0.0,0.0,0.0,-1.9171,-1.8569,-1.8416,-1.8839,-1.8583,-1.8356,-1.8185,-1.6357,-1.5169,-1.4802,-1.3584,-1.2855,-1.261,-1.3148,0.0,0.0,-1.3873,-1.4068,-1.4323,-1.4039,-1.3677,-1.3333,-1.2735,-1.1725,-1.0525,-1.0429,-0.9504,-0.8172,-0.8019,-0.7603,-0.7071,-0.6752,-0.6816,-0.681,-0.569,-0.5303,-0.5087,-0.3858,0.0,0.0,0.0,0.0,0.0,0.0,0.0,0.0,0.0,0.0,0.0,0.0,0.0,0.0,0.0,0.0,0.0,0.0,0.0,0.0,0.0,-0.028,-0.0504,-0.0504,-0.1118,-0.1442,-0.1034,-0.1072,-0.0949,-0.0518,-0.0207,0.0,0.0,0.0,0.0,0.0,0.0,0.0,0.0,0.0,0.0,0.0,0.0,0.0231,0.0643,0.0983,0.1695,0.2699,0.3549,0.3954,0.4082,0.5024,0.5399,0.546,0.546,0.638,0.7749,0.8155,0.9406,1.0974,1.116,1.1423,1.165,0.0,0.0,0.0,0.0,0.0,0.0,0.0,0.0,0.0,0.0,0.0,0.0,0.0,0.0,0.0,0.0,-1.8221,-1.7941,-1.8177,-1.8053,-1.7776,-1.7283,-1.5456,-1.4207,-1.3678,-1.2634,-1.2088,-1.2074,0.0,0.0,-1.3878,-1.4327,-1.4903,0.0,-1.538,-1.499,0.0,-1.3831,-1.2812,-1.1426,-1.0958,-0.9856,-0.8479,0.0,-0.7749,-0.7234,-0.7247,-0.7155,-0.6914,-0.6047,-0.5561,-0.5038,-0.3416,-0.2408,0.0,0.0,0.0,0.0,0.0,0.0,0.0,0.0,0.0,0.0,0.0,0.0,0.0,0.0,0.0,0.0,0.0,0.0,0.0,0.0,0.0,0.0,0.0,-0.0497,-0.06,-0.0053,-0.0468,-0.0615,-0.005,0.0,0.0,0.0,0.0,0.0,0.0,0.0,0.0,0.0,0.0,0.0,0.0,0.0,0.0448,0.1397,0.1421,0.2247,0.3769,0.4034,0.4215,0.4303,0.5074,0.5428,0.5425,0.5624,0.6743,0.8343,0.8606,0.9982,1.1737,1.159,1.1677,1.1824,0.0,0.0,0.0,0.0,0.0,0.0,0.0,0.0,0.0,0.0,0.0,0.0,-2.1628,-2.0613,-1.9813,-1.9386,-1.8624,-1.8177,-1.8207,-1.7666,-1.7059,-1.641,-1.4683,0.0,-1.2692,-1.2006,-1.1666,-1.1714,0.0,0.0,-1.3999,-1.4112,-1.4685,-1.567,-1.5024,-1.444,-1.3905,0.0,0.0,-1.1551,-1.0145,-0.8954,0.0,0.0,0.0,0.0,0.0,0.0,0.0,0.0,-0.6192,-0.5087,-0.3851,0.0,0.0,0.0,0.0,0.0,0.0,0.0,0.0,0.0,0.0,0.0,0.0,0.0,0.0,0.0,0.0,0.0,0.0,0.0,0.0,0.0,0.0,0.0,0.0,-0.0053,-0.0053,0.0,-0.0049,-0.0048,0.0,0.0,0.0,0.0,0.0,0.0,0.0,0.0,0.0,0.0,0.0,0.0,0.0,0.0,0.0727,0.212,0.2312,0.2821,0.365,0.4624,0.5008,0.5085,0.5298,0.5428,0.5491,0.6268,0.7181,0.8127,0.9219,1.0362,1.1483,1.175,1.1857,1.1824,0.0,0.0,0.0,0.0,0.0,0.0,0.0,0.0,0.0,0.0,0.0,0.0,0.0,-2.0882,-2.0027,-1.9162,-1.8191,-1.7519,-1.7334,-1.7113,-1.6648,-1.5883,-1.4511,-1.3498,-1.2857,-1.205,-1.1653,0.0,0.0,-1.294,-1.3488,-1.4244,-1.4651,-1.4676,-1.5147,-1.5017,-1.4433,-1.3887,0.0,0.0,0.0,0.0,0.0,0.0,0.0,0.0,0.0,0.0,0.0,0.0,0.0,0.0,0.0,0.0,0.0,0.0,0.0,0.0,0.0,0.0,0.0,0.0,0.0,0.0,0.0,0.0,0.0,0.0,0.0,0.0,0.0,0.0,0.0,0.0,0.0,0.0,0.0,0.0,0.0,0.0,0.0,0.0,0.0,0.0,0.0,0.0,0.0,0.0,0.0,0.0,0.0,0.0,0.0,0.0224,0.0727,0.1174,0.1898,0.2899,0.299,0.3444,0.4342,0.468,0.4952,0.5131,0.5758,0.5724,0.5284,0.6282,0.7159,0.7901,0.9217,1.0311,1.1162,1.1269,1.1309,1.1263,0.0,0.0,0.0,0.0,0.0,0.0,0.0,0.0,0.0,-2.1842,0.0,0.0,0.0,0.0,-2.0251,-1.898,-1.7896,-1.7207,-1.6944,-1.685,-1.6374,-1.5462,-1.453,-1.3687,-1.3047,-1.2313,-1.1923,-1.1891,-1.2458,-1.2896,0.0,-1.381,-1.4074,-1.4047,-1.4613,-1.4769,0.0,0.0,0.0,-1.2992,0.0,0.0,-1.0744,0.0,0.0,0.0,0.0,0.0,0.0,0.0,0.0,0.0,0.0,0.0,0.0,0.0,0.0,0.0,0.0,0.0,0.0,0.0,0.0,0.0,0.0,0.0,0.0,0.0264,0.0089,0.0,0.0,0.0,0.0,0.0,0.0,0.0,0.0,0.0,0.0,0.0,0.0,0.0,0.0,0.0,0.0,0.0,0.0,0.0,0.0,0.0,0.0112,0.0336,0.0392,0.0838,0.184,0.2063,0.2732,0.368,0.3456,0.3781,0.4616,0.4667,0.4914,0.5348,0.6022,0.6053,0.5721,0.7057,0.7807,0.8343,0.961,1.046,1.1002,1.1102,1.1136,1.1096,0.0,0.0,0.0,0.0,0.0,0.0,0.0,0.0,-2.25,-2.3064,0.0,0.0,0.0,0.0,0.0,-1.9002,-1.7943,-1.7327,-1.7228,-1.6953,-1.6324,-1.5209,-1.4696,-1.4055,-1.3179,-1.2671,-1.2449,-1.252,-1.2041,-1.2282,-1.3198,-1.2756,-1.3022,-1.3868,-1.3459,-1.3556,-1.406,0.0,-1.3307,-1.3101,0.0,-1.0616,-1.1665,0.0,0.0,0.0,-0.99,-0.9452,0.0,-0.8422,0.0,0.0,0.0,0.0,0.0,0.0,0.0,0.0,0.0,0.0,0.0,0.0,0.0,0.0,0.0,0.0,0.0,0.0593,0.0305,0.0,0.0,0.0,0.0,0.0,0.0,0.0,0.0,0.0,0.0,0.0,0.0,0.0,0.0,0.0,0.0,0.0,0.0,0.0,0.0,0.0,0.0336,0.1062,0.1118,0.1842,0.3287,0.2619,0.301,0.4519,0.379,0.379,0.4522,0.4616,0.5085,0.5785,0.5965,0.6307,0.6898,0.8592,0.9256,0.9414,1.0523,1.0969,1.1015,1.1296,1.1403,1.1363,0.0,0.0,0.0,0.0,0.0,0.0,-2.0312,-2.1346,-2.1996,0.0,0.0,0.0,-2.2265,-2.1978,-2.1411,-2.0407,-1.9399,-1.8444,-1.762,-1.7311,-1.7007,-1.671,-1.5772,-1.5128,-1.4784,-1.3518,-1.2876,-1.2873,-1.2482,-1.2579,-1.3132,-1.3408,-1.3656,-1.3901,-1.4052,-1.408,-1.3903,-1.3433,0.0,-1.3704,-1.1871,-1.143,0.0,0.0,0.0,0.0,0.0,-0.8425,-0.8544,0.0,-0.7509,-0.7302,0.0,0.0,0.0,0.0,0.0,0.0,-0.0659,0.0,0.0,0.0,0.0,0.0,0.0,0.0,0.0,0.0255,0.0087,0.0,0.0,0.0,0.0,0.0,0.0,0.0,0.0,0.0,0.0,0.0,0.0,0.0,0.0,0.0,0.0,0.0,0.0,0.0,0.0,0.0494,0.0895,0.1118,0.2176,0.2954,0.3345,0.368,0.407,0.4519,0.4294,0.4294,0.4519,0.4563,0.5031,0.5834,0.652,0.7219,0.7957,0.8451,0.881,0.9178,1.0011,1.0488,1.0688,1.0768,1.0795,1.0788,0.0,0.0,0.0,0.0,0.0,-2.111,-2.0974,-2.1864,-2.2487,0.0,0.0,0.0,-2.2745,-2.234,-2.1803,-2.1126,-2.0442,-1.9451,-1.7963,-1.8215,-1.7969,-1.6918,-1.6684,-1.6142,-1.5194,-1.4106,-1.3506,-1.3444,-1.3194,-1.3293,-1.369,-1.3992,-1.4246,-1.4406,0.0,0.0,0.0,0.0,0.0,0.0,-1.1886,0.0,0.0,-0.982,-0.9297,0.0,0.0,0.0,-0.8968,-0.7748,-0.7372,0.0,0.0,0.0,0.0,0.0,0.0,0.0,0.0,0.0,0.0,0.0,0.0,0.0,0.0795,0.0692,0.0529,0.0,0.0258,0.0,0.0,0.0216,0.0294,0.0043,0.0174,0.0222,0.0046,0.0,0.0,0.0,0.0,0.0,0.0,0.0,0.0,0.0,0.0297,0.0465,0.0434,0.0885,0.1229,0.1563,0.2732,0.3511,0.3846,0.4294,0.4519,0.4519,0.4519,0.4519,0.4519,0.4519,0.5116,0.6164,0.6667,0.7694,0.8949,0.8774,0.9017,0.9505,1.0063,1.0408,1.0624,1.0624,1.0624,1.0624,0.0,0.0,-2.0345,-2.0282,-2.153,-2.2522,-2.2582,-2.3024,-2.3512,0.0,-2.3832,-2.3689,-2.3798,-2.2916,-2.2132,-2.1655,-2.1353,-2.0415,-1.8595,-1.9499,-1.9119,-1.6869,-1.7599,-1.7145,-1.5261,-1.4505,-1.411,-1.4006,-1.3986,-1.4195,-1.4624,-1.4564,-1.4738,-1.5104,0.0,0.0,0.0,0.0,0.0,-1.3132,-1.1394,-1.1658,0.0,0.0,-1.0019,-1.1231,-0.9498,-0.9297,-0.9688,-0.8123,-0.7154,0.0,0.0,0.0,0.0,0.0,-0.3223,0.0,0.0,0.0,0.0,0.0,0.0,0.0,0.0457,0.0303,0.0132,0.0971,0.0595,0.009,0.009,0.06,0.0825,0.0291,0.0543,0.0639,0.0089,0.0045,0.009,0.0,0.0045,0.009,0.0,0.0,0.0046,0.0096,0.0798,0.1206,0.1226,0.1284,0.1675,0.2286,0.3065,0.379,0.4519,0.4519,0.4519,0.4519,0.4519,0.4519,0.4519,0.457,0.5336,0.6588,0.6696,0.7827,0.9619,0.9385,0.9633,1.0187,1.0421,1.0598,1.0624,1.0624,1.0624,1.0624,0.0,0.0,-1.953,-1.9515,-2.1206,-2.2574,-2.2593,-2.3548,-2.4061,-2.3535,-2.3409,-2.3651,-2.4355,-2.4044,-2.3745,-2.3639,-2.2806,-2.1848,-2.0819,-2.0794,-2.0488,-1.979,-1.9302,-1.8432,-1.7197,-1.5367,-1.4073,-1.3391,-1.4033,-1.4788,-1.556,-1.5041,-1.4925,-1.5104,-1.5418,0.0,0.0,0.0,0.0,-1.3802,-1.2474,0.0,-1.2279,-0.9861,-0.9126,-0.9248,-0.8289,-0.8058,-0.8075,-0.7317,-0.7147,-0.703,0.0,0.0,0.0,-0.4561,0.0,0.0,0.0,0.0,0.0,0.0,0.0,0.0,-0.0704,-0.0622,-0.0535,0.0,0.0487,0.0716,0.0716,0.1205,0.1601,0.1485,0.1539,0.1234,0.0134,0.0403,0.0538,0.0045,0.0448,0.0538,0.0045,0.0,0.0232,0.0844,0.1587,0.1981,0.2007,0.2621,0.301,0.3065,0.3846,0.4349,0.4519,0.4519,0.4519,0.4519,0.4519,0.4519,0.4515,0.5054,0.5764,0.6642,0.7235,0.8172,0.9339,0.9519,0.994,1.0454,1.0274,1.0347,1.0624,1.0624,1.0624,1.0624,0.0,0.0,-2.1368,-2.1308,-2.2535,-2.3545,-2.3545,-2.4092,-2.4396,-2.4095,-2.4054,-2.4204,-2.4654,-2.4578,-2.4307,-2.3889,-2.3655,-2.2978,-2.1643,-2.2052,-2.1578,-1.9843,-1.9228,-1.8275,-1.6772,-1.5254,-1.4504,-1.4504,-1.4494,-1.4939,-1.5802,-1.5712,-1.5594,-1.5477,-1.5854,0.0,0.0,0.0,-1.4383,-1.4137,-1.226,0.0,-1.1479,-0.9588,-0.8831,-0.8734,-0.8195,-0.7734,-0.7426,-0.766,-0.7633,0.0,-0.6394,-0.6551,-0.681,0.0,-0.4876,-0.4198,0.0,0.0,0.0,-0.1934,0.0,0.0,0.0,-0.0717,-0.0359,-0.0045,0.0224,0.0627,0.1251,0.1671,0.1853,0.1551,0.1853,0.187,0.1023,0.1163,0.1251,0.094,0.1163,0.1251,0.094,0.0895,0.125,0.2052,0.2116,0.2302,0.2785,0.3121,0.3345,0.3287,0.407,0.4519,0.4519,0.4519,0.4519,0.4519,0.4519,0.468,0.5003,0.5324,0.6086,0.7182,0.7557,0.8385,0.9459,0.9459,0.99,1.0611,1.0394,1.0428,1.0624,1.1045,1.1226,1.1233,-2.2494,0.0,0.0,-2.3314,-2.4013,-2.458,-2.458,-2.4591,-2.4666,-2.4855,-2.4855,-2.4771,-2.4582,-2.4554,-2.4261,-2.3539,-2.3832,-2.3563,-2.2372,-2.3124,-2.2378,-1.9646,-1.9009,-1.7807,-1.5846,-1.5125,-1.5092,-1.5786,-1.5092,-1.5096,-1.5824,-1.6253,-1.6268,-1.5913,-1.6191,0.0,0.0,0.0,0.0,-1.3777,0.0,-1.0962,-1.1086,-0.9545,-0.8951,-0.8867,-0.8348,-0.7772,-0.7418,-0.8026,-0.801,-0.7553,-0.6765,-0.7135,0.0,0.0,0.0,0.0,0.0,0.0,0.0,0.0,0.0,-0.2509,0.0,0.0,0.0,-0.0225,-0.009,0.0,0.0,0.0,0.0,0.0,0.0,0.0,0.0,0.2304,0.0,0.1828,0.2008,0.2053,0.183,0.1947,0.2347,0.3053,0.2722,0.2819,0.3564,0.3566,0.3511,0.3511,0.4181,0.4519,0.4519,0.4519,0.4519,0.4519,0.4625,0.4948,0.5487,0.581,0.6578,0.7723,0.783,0.8551,0.9579,0.9444,0.9952,1.0711,1.0711,1.0752,1.0926,1.1717,1.1974,1.1989,-2.2672,-2.2854,0.0,-2.3295,-2.4157,-2.485,-2.485,-2.4915,-2.503,-2.5222,-2.5077,-2.4669,-2.3838,0.0,0.0,0.0,0.0,0.0,-2.4369,0.0,-2.2793,-2.1768,-2.0135,-1.8145,-1.5848,-1.57,-1.5697,-1.5815,-1.5697,-1.5692,-1.5805,-1.6464,-1.6612,-1.632,-1.6378,0.0,0.0,0.0,-1.3605,0.0,-1.1206,-1.1413,0.0,-1.02,-0.9496,-0.9337,-0.8064,-0.7798,-0.7973,0.0,-0.742,-0.7807,0.0,-0.7192,-0.7663,-0.652,0.0,0.0,0.0,0.0,0.0,0.0,-0.3511,0.0,-0.2695,0.0,-0.224,-0.1037,0.0,0.0,0.0,0.0,0.0,0.0,0.0,0.0,0.3799,0.4034,0.3548,0.2006,0.2724,0.2993,0.1919,0.2476,0.2988,0.3116,0.3797,0.4278,0.4349,0.4349,0.4349,0.4349,0.446,0.4519,0.4519,0.4519,0.4519,0.4519,0.5109,0.5433,0.5542,0.6848,0.7557,0.7723,0.8374,0.8883,0.9285,0.99,1.0605,1.1212,1.1212,1.1389,1.1772,1.2573,1.2622,1.2403,-2.42,-2.4263,0.0,0.0,-2.4657,-2.4968,-2.4968,-2.5072,-2.5203,-2.5303,-2.5262,-2.5269,0.0,0.0,0.0,0.0,0.0,-2.4145,0.0,0.0,-2.2918,-2.2315,-2.0798,-1.887,-1.6441,-1.5987,-1.5796,-1.5795,-1.5796,-1.62,-1.6966,-1.7233,-1.7326,-1.7191,-1.6914,0.0,-1.4662,0.0,-1.402,0.0,0.0,0.0,0.0,-1.0395,-0.9512,-0.9038,-0.8283,-0.7777,-0.7416,0.0,-0.7409,0.0,0.0,0.0,0.0,0.0,0.0,0.0,0.0,0.0,0.0,0.0,0.0,0.0,-0.2998,0.0,-0.2642,0.0,0.0,0.0,0.0,0.0,0.0,0.0,0.2424,0.0,0.0,0.0,0.4899,0.0,0.0,0.0,0.2904,0.3446,0.3772,0.3655,0.4335,0.4647,0.4508,0.4519,0.4519,0.4519,0.4519,0.4519,0.4519,0.4519,0.4519,0.4519,0.5164,0.5706,0.6145,0.7235,0.7943,0.8374,0.8646,0.8971,0.9225,0.9785,1.0357,1.103,1.1735,1.2192,1.2573,1.3425,1.357,1.3482,-2.5303,0.0,0.0,0.0,0.0,-2.5126,-2.5126,-2.5252,0.0,0.0,0.0,0.0,-2.6208,-2.6121,0.0,0.0,-2.5105,-2.4495,0.0,0.0,-2.2871,0.0,0.0,0.0,0.0,-1.6459,-1.6035,-1.5806,-1.6171,-1.6844,-1.7805,-1.7798,-1.7723,-1.7593,0.0,-1.6135,-1.4256,0.0,-1.4023,-1.2135,-1.2639,-1.2348,-1.1448,-1.0264,-0.9489,-0.8944,-0.8345,-0.7798,-0.7403,-0.738,-0.7461,0.0,-0.6818,-0.7206,-0.7704,0.0,0.0,0.0,-0.5,0.0,0.0,0.0,0.0,0.0,0.0,0.0,0.0,0.0,0.0,0.0,0.0,0.0,0.0,0.0,0.0,0.2884,0.0,0.5163,0.0,0.0,0.0,0.0,0.0,0.4224,0.4513,0.4538,0.4799,0.4908,0.4772,0.4625,0.4519,0.4519,0.4519,0.4519,0.4519,0.468,0.4787,0.4787,0.5655,0.6362,0.6912,0.767,0.8321,0.8804,0.8804,0.9031,0.9418,0.9859,1.0515,1.1296,1.2343,1.3049,1.3569,1.4168,1.4344,1.4424,-2.5303,-2.5303,0.0,0.0,0.0,0.0,0.0,0.0,0.0,0.0,0.0,0.0,0.0,0.0,0.0,0.0,0.0,-2.3235,-2.4062,0.0,-2.2656,0.0,0.0,-2.0701,0.0,-1.7296,-1.6658,-1.5806,-1.7101,-1.7773,-1.7804,-1.7804,-1.755,-1.714,-1.7585,-1.6837,-1.518,-1.4256,-1.3078,-1.177,-1.1211,-1.0759,-1.0377,0.0,-0.9578,-0.9381,-0.7956,0.0,0.0,-0.737,-0.7384,-0.7773,-0.7175,0.0,0.0,0.0,0.0,0.0,0.0,0.0,0.0,-0.4522,0.0,0.0,0.0,0.0,-0.381,0.0,0.0,0.0,0.0,0.0,0.0,0.0,0.0,0.0,0.0,0.0,0.0,0.0,0.0,0.0,0.0,0.4558,0.5025,0.5863,0.5411,0.5185,0.5475,0.4838,0.4519,0.4519,0.4519,0.4519,0.4519,0.5164,0.5487,0.5487,0.6956,0.7664,0.767,0.8427,0.8758,0.8804,0.8804,0.9166,0.9829,1.0517,1.1405,1.2525,1.3198,1.398,1.4749,1.4749,1.4805,1.4805,0.0,0.0,0.0,0.0,0.0,0.0,0.0,-2.5473,0.0,0.0,0.0,0.0,0.0,-2.6425,-2.6002,0.0,0.0,-2.4582,-2.487,-2.4137,0.0,0.0,0.0,-2.2309,0.0,0.0,0.0,-1.7113,-1.7582,-1.7796,-1.7799,-1.7799,-1.7725,-1.7585,0.0,-1.6675,0.0,0.0,0.0,0.0,0.0,-1.1263,-1.1603,0.0,-0.9615,-0.9685,-0.8718,-0.8326,-0.8163,-0.7586,-0.7338,-0.7245,-0.6834,-0.699,-0.7196,-0.6647,-0.6349,-0.6093,-0.5701,-0.5437,-0.5173,-0.4565,0.0,0.0,0.0,0.0,0.0,0.0,0.0,0.0,0.0,0.0,0.0,0.0,0.0,0.0,0.0,0.0,0.0,0.0,0.0,0.0,0.0,0.0,0.5616,0.5998,0.6734,0.6653,0.5584,0.5269,0.5164,0.5164,0.5164,0.5382,0.5878,0.6095,0.6204,0.6253,0.7235,0.7723,0.7723,0.848,0.8804,0.8804,0.9263,0.9614,0.9865,1.1015,1.1696,1.2081,1.2828,1.3613,1.4385,1.4678,1.4961,1.5205,-2.5502,0.0,0.0,0.0,0.0,0.0,0.0,0.0,0.0,0.0,-2.5951,0.0,-2.753,0.0,-2.6455,0.0,-2.586,-2.5197,-2.4889,-2.42,0.0,-2.2426,-2.2513,0.0,0.0,0.0,0.0,0.0,-1.7928,-1.7905,-1.8073,-1.789,-1.7811,-1.7811,0.0,-1.673,-1.499,0.0,-1.3834,0.0,0.0,-1.1513,0.0,0.0,-1.0599,-1.034,-0.9214,-0.8572,-0.8179,-0.7837,-0.7385,-0.6987,-0.68,-0.6874,-0.6937,-0.6605,-0.6349,-0.6093,-0.5744,-0.548,-0.5173,-0.4565,-0.4387,0.0,-0.4024,0.0,-0.4013,0.0,0.0,0.0,0.0,0.0,0.0,0.0,0.0,0.0,0.0,0.6085,0.0,0.0,0.0,0.0,0.0,0.5813,0.6416,0.6667,0.7492,0.7383,0.5959,0.5873,0.576,0.5487,0.576,0.6091,0.6588,0.6858,0.6966,0.702,0.7723,0.8103,0.8103,0.8844,0.9159,0.9211,0.9865,1.0312,1.0568,1.1466,1.1972,1.2255,1.2879,1.3525,1.4116,1.4453,1.4824,1.5215,0.0,0.0,0.0,0.0,-2.5563,0.0,0.0,0.0,-2.5644,0.0,-2.5682,-2.5938,-2.6815,-2.6113,-2.5888,-2.6593,-2.59,-2.5043,-2.4225,-2.3943,0.0,0.0,-2.1709,-2.072,-1.7898,0.0,0.0,0.0,0.0,-1.8155,-1.8711,-1.8112,-1.7833,-1.7794,-1.7794,0.0,-1.5884,-1.5835,-1.4756,-1.3073,-1.2419,-1.1228,-1.0046,-1.2,-1.2301,-1.1427,-0.9511,-0.8793,-0.8675,-0.8118,-0.753,-0.7021,-0.7021,-0.6979,-0.6979,-0.6979,-0.6598,-0.6184,-0.6184,-0.5744,-0.513,-0.4565,-0.4391,-0.4268,-0.3904,0.0,-0.4066,0.0,0.0,0.0,0.0,0.0,0.0,0.0,0.0,0.0,0.0,0.0,0.0,0.0,0.0,0.0,0.0,0.6755,0.7291,0.7882,0.7801,0.7401,0.0,0.6642,0.6308,0.5651,0.6308,0.6696,0.6696,0.7396,0.7777,0.7777,0.848,0.8804,0.8857,0.9517,0.9814,0.9865,1.0568,1.1216,1.1814,1.1814,1.2295,1.292,1.332,1.375,1.4087,1.4126,1.4463,1.4873,-2.5508,-2.557,-2.5609,0.0,-2.5637,-2.5687,0.0,0.0,0.0,0.0,-2.6085,-2.6002,-2.6875,-2.6152,-2.5681,-2.5871,-2.5633,0.0,0.0,0.0,0.0,-2.2269,-2.2212,-2.1541,-2.003,-2.1123,-2.2063,-2.2813,0.0,-1.9406,-2.0352,-1.9127,-1.829,-1.7795,0.0,0.0,-1.7238,-1.6221,-1.4963,-1.3262,-0.923,-0.8079,-0.8811,0.0,-1.0575,-1.2516,-1.0922,-0.9876,-0.9199,-0.8675,-0.8111,-0.7572,-0.7147,-0.6979,-0.6979,-0.6979,-0.6598,-0.6184,-0.6184,-0.5437,-0.4609,-0.443,-0.4092,-0.3823,-0.3949,-0.3992,-0.4094,0.0,0.0,0.0,0.0,0.0,0.0,0.0,0.0,0.0,0.0,0.0,0.0,0.6637,0.0,0.0,0.0,0.7412,0.8024,0.8472,0.8707,0.8446,0.7481,0.7402,0.7343,0.7122,0.7343,0.767,0.8209,0.8427,0.8533,0.8533,0.8699,0.9061,0.9562,0.971,1.0064,1.0568,1.1266,1.1665,1.1864,1.2393,1.2715,1.2891,1.2998,1.3486,1.4155,1.4853,1.5156,1.5264,-2.5505,0.0,0.0,-2.5653,0.0,0.0,-2.5702,-2.5684,0.0,-2.6367,-2.5996,0.0,-2.6387,-2.5957,-2.5625,-2.5605,-2.5577,0.0,-2.5401,0.0,0.0,-2.2628,-2.1718,-2.0753,-1.9777,-2.0372,0.0,-2.1367,0.0,0.0,-2.0241,-1.9412,-1.8647,-1.8028,0.0,-1.795,0.0,-1.6673,-1.4291,-1.1161,-1.0503,-0.9165,0.0,-0.9749,-1.1437,-1.2587,-1.1639,-1.0666,-0.9697,-0.895,-0.8357,-0.7787,-0.7196,-0.6979,-0.6937,-0.6732,-0.6258,-0.5744,-0.548,-0.4744,-0.4049,-0.4049,-0.384,-0.3639,-0.387,-0.3972,-0.4087,-0.4321,-0.4419,-0.4125,-0.2899,0.0,0.0,0.0,0.0,0.0,0.0,0.0,0.0,0.0,0.7695,0.0,0.7802,0.8017,0.8448,0.9113,0.919,0.9041,0.0,0.843,0.8274,0.8125,0.8261,0.865,0.9211,0.9397,0.9549,0.9658,0.9658,0.9865,1.0269,1.0517,1.0864,1.1275,1.2163,1.2557,1.2566,1.3188,1.3428,1.3447,1.3643,1.4111,1.4746,1.5234,1.541,1.541,-2.5505,0.0,0.0,0.0,0.0,0.0,0.0,-2.5662,0.0,-2.5703,0.0,-2.5703,-2.5703,-2.5703,-2.5684,-2.5625,0.0,-2.5553,-2.5414,-2.3948,-2.294,-2.2649,-2.0926,-1.9536,-1.8597,-1.915,-1.906,0.0,0.0,0.0,-1.9723,-1.963,-1.9241,0.0,0.0,0.0,0.0,-1.7068,-1.3357,-0.8364,-1.367,-1.2549,-0.8147,-1.247,-1.3348,-1.2259,-1.1909,-1.1148,-1.0138,-0.9142,-0.8439,-0.7912,-0.7314,-0.7063,-0.6894,-0.6435,-0.5825,-0.5173,-0.4648,-0.4052,-0.3581,-0.3581,-0.3595,-0.3646,-0.3788,-0.3924,-0.4013,-0.4164,-0.4348,-0.421,-0.3434,0.0,0.0,0.0,0.0,0.0,0.0,0.0,0.0,0.0,0.0,0.0,0.8791,0.8651,0.0,0.9752,0.9495,0.0,0.0,0.0,0.9163,0.8829,0.9133,0.9498,0.9881,1.0227,1.0537,1.0887,1.0838,1.0864,1.0973,1.1516,1.1864,1.1999,1.3049,1.3506,1.3545,1.3912,1.4077,1.418,1.4619,1.5057,1.5496,1.5497,1.5633,1.569,0.0,0.0,0.0,0.0,0.0,-2.666,-2.5738,-2.5652,-2.5703,-2.5703,-2.5703,-2.5703,-2.5703,-2.5703,-2.5703,-2.5684,-2.5684,0.0,0.0,0.0,0.0,-2.2804,-2.1562,-2.0462,-1.9567,-2.0041,-2.0539,0.0,0.0,0.0,0.0,-2.1295,0.0,0.0,0.0,0.0,-1.7183,-1.6917,0.0,-0.8364,-1.367,-1.4847,-1.3501,-1.3934,-1.3617,-1.2832,-1.2067,-1.1394,-1.0705,-0.9707,-0.8999,-0.8472,-0.7904,-0.7405,-0.6979,-0.6894,-0.6118,-0.5265,-0.5173,-0.4399,-0.3581,-0.3581,-0.367,-0.3795,-0.3944,-0.3999,-0.4013,-0.4164,-0.4214,-0.4018,-0.3265,-0.1639,0.0,0.0,0.0,0.0,0.0,0.0,0.0,0.0,0.0,1.0033,0.0,0.0,0.0,0.0,0.0,0.0,0.0,0.0,0.9651,0.9599,0.9658,0.9903,1.0379,1.0621,1.0924,1.1364,1.0962,1.1074,1.1651,1.1774,1.2129,1.2744,1.327,1.3506,1.3545,1.3912,1.4077,1.418,1.4619,1.5195,1.5839,1.6177,1.6698,1.7135,0.0,0.0,0.0,0.0,0.0,0.0,0.0,-2.5687,-2.5703,-2.5703,-2.5703,-2.5703,-2.5703,-2.5703,-2.5703,-2.5703,-2.5703,-2.5637,-2.5517,-2.4753,-2.3842,-2.2831,-2.1769,-2.0751,-1.9809,-1.9553,-2.0043,-2.133,0.0,0.0,0.0,0.0,0.0,0.0,0.0,-1.8138,0.0,0.0,-1.516,-1.2536,-1.5068,-1.5875,-1.5424,-1.4625,-1.4179,-1.38,-1.2316,-1.1616,-1.1207,-0.9942,-0.9319,-0.8958,-0.816,-0.7704,-0.7363,-0.6768,-0.5953,-0.5221,-0.4913,-0.4228,-0.3581,-0.3581,-0.3632,-0.3721,-0.3866,-0.3965,-0.4039,-0.4063,-0.414,-0.3875,-0.2759,-0.1744,-0.0777,0.0274,0.0,0.0,0.0,0.0,0.0,0.0,0.0,0.0,0.0,0.0,0.0,0.0,0.0,0.0,0.0,0.0,1.0623,1.0805,1.0693,1.0789,1.1181,1.1464,1.1781,1.2231,1.1991,1.2058,1.2372,1.257,1.2874,1.3242,1.3887,1.417,1.4253,1.4994,1.555,1.5942,1.6164,1.6469,1.6819,1.7003,1.7523,1.807,0.0,-2.8326,0.0,0.0,-2.7033,-2.6867,-2.5843,-2.5697,-2.5703,-2.5703,-2.5703,-2.5703,-2.5703,-2.5703,-2.5703,-2.5703,-2.5697,-2.5554,-2.5269,-2.4799,-2.4024,-2.2851,-2.1961,-2.1062,-2.0104,-1.9095,-1.9327,0.0,0.0,0.0,-2.2685,0.0,0.0,0.0,0.0,0.0,0.0,-1.7296,-1.6863,-1.6406,-1.6397,-1.6237,-1.598,-1.5404,-1.4943,-1.4415,-1.2543,-1.1788,-1.1431,-1.0099,-0.9518,-0.9199,-0.8316,-0.7912,-0.7489,-0.6477,-0.5787,-0.5173,-0.4561,-0.4008,-0.3581,-0.3581,-0.3602,-0.3653,-0.3768,-0.3883,-0.3982,-0.4012,-0.3984,-0.3564,-0.2305,-0.1974,-0.1507,0.0,0.0,0.0,0.0,0.0,0.0,0.0,0.0,0.0,1.0017,0.0,0.0,0.0,0.0,0.0,1.3016,1.212,1.1682,1.1994,1.161,1.1653,1.2131,1.2346,1.2637,1.3018,1.3018,1.3018,1.3027,1.359,1.3787,1.3682,1.476,1.5315,1.5482,1.6392,1.709,1.7578,1.7578,1.7688,1.7841,1.7841,1.8286,1.8874,0.0,0.0,0.0,0.0,0.0,-2.7605,-2.5941,-2.5703,-2.5703,-2.5703,-2.5703,-2.5703,-2.5703,-2.5703,-2.5703,-2.5703,-2.5638,-2.5275,-2.4456,-2.4969,-2.4562,-2.287,-2.2421,-2.1821,-2.0996,-1.9815,-1.9654,0.0,0.0,-2.2152,-2.2978,0.0,0.0,0.0,0.0,-1.8819,-1.7344,-1.7296,-1.6938,-1.639,-1.6406,-1.6181,-1.5935,-1.6991,-1.6043,-1.3981,-1.2626,-1.1684,-1.0981,-1.0428,-0.9558,-0.8756,-0.8635,-0.7938,-0.6985,-0.6392,-0.5787,-0.5173,-0.4561,-0.4008,-0.3581,-0.3581,-0.3676,-0.3775,-0.3788,-0.3802,-0.3853,-0.3992,-0.357,-0.3002,-0.232,-0.1671,-0.0726,0.0783,0.0,0.0,0.0,0.0,0.6844,0.7496,0.0,0.0,1.0932,1.3052,0.0,0.0,1.3827,0.0,0.0,1.3032,1.2676,1.2725,1.2089,1.2264,1.3229,1.2968,1.3056,1.3447,1.3447,1.3447,1.3467,1.4574,1.4675,1.4155,1.5998,1.7002,1.7346,1.7446,1.7523,1.7578,1.7578,1.8004,1.8608,1.8608,1.9044,1.9695,0.0,0.0,0.0,0.0,0.0,0.0,0.0,-2.5703,-2.5703,-2.5703,-2.5703,-2.5703,-2.5703,-2.5703,-2.5703,-2.5703,-2.5634,-2.5437,-2.5054,-2.5253,-2.462,-2.287,-2.2671,-2.1869,-2.0361,-1.9838,-1.9913,0.0,0.0,0.0,0.0,-2.3474,-2.2549,-2.0466,-1.9671,-1.8671,-1.7595,-1.7595,-1.7302,-1.6832,-1.6922,-1.6966,-1.6947,-1.6583,-1.6365,-1.5901,-1.3171,-1.1748,-1.1095,-1.0485,-0.9804,-0.9119,-0.8797,-0.8144,-0.7447,-0.6852,-0.6039,-0.526,-0.5,-0.4272,-0.3581,-0.3581,-0.3622,-0.3663,-0.3663,-0.3731,-0.3785,-0.3761,-0.3339,-0.2794,-0.2076,-0.1474,-0.0596,0.0867,0.2086,0.0,0.0,0.0,0.0,0.8491,0.0,1.1613,0.0,1.3299,0.0,0.0,0.0,0.0,1.3805,1.3569,1.3416,1.3416,1.313,1.321,1.3634,1.3491,1.3459,1.3506,1.3932,1.4266,1.4532,1.576,1.6244,1.6245,1.7036,1.7895,1.8818,1.8818,1.9282,1.9956,1.9956,1.9928,1.9875,1.9875,2.0089,2.0326,-3.0564,0.0,-2.862,0.0,-2.7167,-2.6211,-2.5742,-2.5684,-2.5703,-2.5703,-2.5703,-2.5703,-2.5703,-2.5703,-2.5703,-2.5703,-2.5648,-2.5472,-2.5178,-2.5303,-2.4736,-2.3263,-2.2901,0.0,-2.0998,-2.0448,-2.0425,-2.0928,-2.1812,0.0,-2.3015,-2.3474,-2.2718,-2.0917,-1.9848,-1.9022,-1.8414,-1.7974,-1.7595,-1.7304,-1.7415,-1.759,-1.7669,-1.662,-1.6428,-1.6422,-1.3775,-1.2318,-1.1527,-1.0781,-1.0137,-0.9588,-0.891,-0.8316,-0.7746,-0.6979,-0.6215,-0.548,-0.513,-0.4443,-0.3796,-0.3622,-0.3581,-0.3581,-0.3581,-0.3656,-0.3668,-0.3427,-0.3006,-0.2413,-0.1739,-0.1162,-0.0314,0.1149,0.2248,0.0,0.0,0.6979,0.0,0.0,1.0442,1.1477,1.1705,1.351,0.0,0.0,0.0,0.0,1.4365,1.4318,1.4318,1.4318,1.4003,1.3956,1.4318,1.3905,1.3816,1.4093,1.4683,1.5233,1.5771,1.6735,1.7577,1.8232,1.823,1.8838,1.9934,2.0091,2.0674,2.1493,2.1493,2.1255,2.0957,2.0957,2.0957,2.0957,-3.0506,-3.0482,-2.9973,-2.8367,-2.813,-2.7598,-2.5859,-2.5664,-2.5703,-2.5703,-2.5703,-2.5703,-2.5703,-2.5703,-2.5703,-2.5703,-2.5644,-2.5239,-2.437,-2.5005,-2.5005,0.0,0.0,-2.2972,-2.3736,-2.1988,-2.1381,-2.1973,0.0,-2.3188,-2.3015,-2.3474,-2.3131,-2.2025,-2.0952,-2.0295,-1.9883,-1.8414,-1.7799,-1.7793,-1.7788,-1.7795,-1.7805,-1.77,-1.6366,-1.4516,-1.4405,-1.3566,-1.2318,-1.1308,-1.0657,-1.0021,-0.903,-0.8316,-0.7663,-0.6562,-0.6184,-0.5916,-0.4739,-0.4387,-0.4264,-0.3751,-0.3581,-0.3581,-0.3581,-0.3581,-0.3488,-0.3009,-0.2445,-0.181,-0.1209,-0.0505,0.0405,0.1763,0.2125,0.3076,0.0,0.6112,0.0,0.8504,0.97,1.1116,1.2824,1.4013,0.0,0.0,0.0,0.0,1.5588,1.5588,1.5588,1.5588,1.4411,1.4365,1.5588,1.4181,1.4183,1.5497,1.5741,1.6256,1.698,1.7398,1.8382,1.9784,1.9625,1.9976,2.0702,2.1255,2.1481,2.1493,2.1493,2.1493,2.1481,2.1481,2.1481,2.1481,-3.0487,-2.9985,-2.9245,-2.8279,-2.7628,-2.687,-2.5779,-2.5664,-2.5703,-2.5703,-2.5703,-2.5703,-2.5703,-2.5703,-2.5703,0.0,-2.5609,-2.5418,0.0,-2.5241,-2.4697,-2.3283,-2.3477,-2.3131,-2.2121,-2.2117,-2.2079,-2.2006,-2.2871,-2.3466,-2.3823,-2.3728,-2.3256,-2.2398,-2.161,-2.0744,-1.9835,-1.945,-1.9117,-1.8813,-1.8625,-1.8243,-1.7769,-1.7416,-1.649,-1.5226,-1.3971,-1.3243,-1.2706,-1.1446,-1.0895,-1.058,-0.9549,-0.8878,-0.8316,-0.7572,-0.7056,-0.6579,-0.5819,-0.5043,-0.4347,-0.4176,-0.388,-0.3581,-0.3581,-0.3262,-0.2821,-0.2269,-0.1658,-0.1209,-0.0978,-0.0095,0.0922,0.1839,0.3126,0.4719,0.6696,0.0,0.9039,1.0275,1.1127,1.1759,1.2023,1.3669,0.0,0.0,0.0,1.5876,1.5017,1.4595,1.4365,1.4365,1.4422,1.4606,1.4971,1.531,1.5643,1.6002,1.7294,1.8684,2.008,2.0183,2.049,2.0966,2.0909,2.1263,2.1794,2.197,2.2272,2.2611,2.2611,2.2385,2.2046,2.2046,2.2046,2.2103,-3.0448,-2.9737,-2.8882,-2.8151,-2.7343,-2.6528,-2.5693,-2.5642,-2.5703,-2.5703,-2.5703,-2.5703,-2.5703,-2.5703,-2.5703,-2.5703,-2.5593,-2.5538,-2.5499,-2.5395,-2.487,-2.3793,-2.3975,-2.3688,-2.2814,-2.2983,-2.3044,-2.3045,-2.3438,-2.3823,-2.419,-2.3876,-2.3461,-2.2973,-2.2157,-2.151,-2.1029,-2.0442,-2.0185,-2.0108,-1.9256,-1.8466,-1.7773,-1.7597,-1.6828,-1.569,-1.4755,-1.396,-1.3225,-1.2141,-1.1561,-1.1153,-1.0291,-0.9676,-0.9119,-0.8152,-0.7693,-0.7303,-0.6538,-0.565,-0.4848,-0.4625,-0.4099,-0.3534,-0.3306,-0.2987,-0.2453,-0.1652,-0.1163,-0.0851,-0.0583,0.0229,0.1208,0.2131,0.3523,0.5114,0.6972,0.8296,0.9438,0.0,1.1389,1.201,1.2373,1.3788,1.4913,1.5387,0.0,1.582,1.5062,1.4915,1.4687,1.4503,1.4824,1.5245,1.5727,1.6127,1.6746,1.7561,1.9153,2.0561,2.1898,2.1898,2.2063,2.2335,2.2544,2.2844,2.3128,2.3363,2.3663,2.3975,2.3975,2.3767,2.3454,2.3454,2.3454,2.3498,-3.0321,-2.966,-2.8832,-2.7948,-2.7245,-2.6496,-2.5624,-2.5607,-2.5684,-2.5703,-2.5703,-2.5703,-2.5703,-2.5703,-2.5703,-2.5703,-2.5626,-2.5563,-2.5505,-2.5428,-2.5351,-2.5207,-2.4543,-2.4505,-2.5187,-2.4353,-2.4201,-2.4804,-2.4393,-2.419,-2.419,-2.3876,-2.3735,-2.3696,-2.2664,-2.2567,-2.3076,-2.14,-2.1068,-2.1496,-1.973,-1.8586,-1.7959,-1.8161,-1.7267,-1.6003,-1.6412,-1.5441,-1.3888,-1.3216,-1.2473,-1.1704,-1.1095,-1.0636,-1.0,-0.848,-0.8165,-0.8143,-0.6981,-0.6254,-0.5652,-0.5056,-0.4258,-0.3442,-0.2851,-0.2672,-0.2317,-0.1163,-0.0851,-0.0672,-0.0045,0.0583,0.1383,0.2573,0.3478,0.4748,0.6793,0.7668,0.8504,0.981,1.0864,1.2118,1.3564,1.4378,1.5231,1.6373,0.0,1.5688,1.5724,1.6244,1.6256,1.5591,1.5671,1.6272,1.738,1.6736,1.7561,1.9924,2.1029,2.1988,2.2697,2.2697,2.311,2.3868,2.4332,2.4567,2.4623,2.5149,2.5398,2.5398,2.5398,2.5398,2.5398,2.5398,2.5398,2.5398,-2.9544,-2.9236,-2.864,-2.7159,-2.6802,-2.6438,-2.5624,-2.5568,-2.5644,-2.5684,-2.5703,-2.5703,-2.5703,-2.5703,-2.5703,-2.5703,-2.559,-2.5517,-2.5495,-2.539,-2.5043,-2.4409,-2.4793,-2.4812,-2.4399,-2.4745,-2.4912,-2.4804,-2.4393,-2.419,-2.419,-2.4113,-2.4074,-2.4056,-2.3554,-2.3208,-2.3024,-2.2705,-2.245,-2.2161,-2.0702,-1.9854,-1.932,-1.7928,-1.7347,-1.7214,-1.6304,-1.5447,-1.4558,-1.3459,-1.2496,-1.1712,-1.1145,-1.0653,-1.0118,-0.9359,-0.918,-0.8963,-0.7891,-0.715,-0.6453,-0.5466,-0.4389,-0.3442,-0.2851,-0.2361,-0.1786,-0.1073,-0.0538,-0.0045,0.0583,0.156,0.2485,0.319,0.4961,0.6649,0.7874,0.892,1.0258,1.2094,1.2544,1.3017,1.3906,1.4821,1.554,1.5926,1.6148,1.643,1.6777,1.7035,1.6687,1.5542,1.6397,1.7015,1.7339,1.7983,1.9265,2.1104,2.1794,2.2725,2.387,2.387,2.4307,2.5024,2.5108,2.5177,2.5191,2.5329,2.5398,2.5398,2.5398,2.5398,2.5398,2.5398,2.5398,2.5453,-2.9179,-2.8467,-2.7659,-2.6755,-2.6322,-2.5967,-2.5553,-2.5567,-2.5625,-2.5684,-2.5703,-2.5703,-2.5703,-2.5703,-2.5703,-2.5703,-2.5615,-2.5537,-2.5505,-2.5409,-2.5139,-2.4678,-2.5082,-2.5101,-2.4659,-2.4983,-2.4993,-2.4654,-2.4339,-2.419,-2.419,-2.419,-2.419,-2.419,-2.4016,-2.3779,-2.3528,-2.3469,-2.3074,-2.2386,-2.1163,-2.0403,-1.9826,-1.8251,-1.7702,-1.7682,-1.6718,-1.5943,-1.5188,-1.4079,-1.3134,-1.2306,-1.1821,-1.1527,-1.1186,-1.0429,-0.9956,-0.9462,-0.8384,-0.7638,-0.681,-0.528,-0.4228,-0.3442,-0.2851,-0.2228,-0.1607,-0.1029,-0.0179,0.0582,0.1205,0.2264,0.3403,0.4522,0.5987,0.7504,0.8976,1.013,1.1406,1.2937,1.3536,1.4071,1.4737,1.5289,1.5872,1.6494,1.6766,1.7137,1.7639,1.7965,1.7566,1.6369,1.7231,1.7812,1.8056,1.9457,2.0749,2.2021,2.2801,2.3975,2.5287,2.5287,2.552,2.5945,2.5945,2.5773,2.5463,2.5463,2.5687,2.5945,2.5945,2.6117,2.6428,2.6428,2.6189,2.604,-2.8813,-2.764,-2.6621,-2.6428,-2.5851,-2.5409,-2.5466,-2.5537,-2.5604,-2.5683,-2.5684,-2.5703,-2.5703,-2.5703,-2.5703,-2.5703,-2.5644,-2.5583,-2.5522,-2.5447,-2.537,-2.5322,-2.5303,-2.5303,-2.5303,-2.5099,-2.4858,-2.4591,-2.4374,-2.4284,-2.4284,-2.4266,-2.4247,-2.4247,-2.4209,-2.419,-2.417,-2.3896,-2.3376,-2.2648,-2.145,-2.0687,-2.0134,-1.8839,-1.8129,-1.7709,-1.7115,-1.6456,-1.574,-1.483,-1.3947,-1.3181,-1.277,-1.2603,-1.2407,-1.1615,-1.0725,-0.9793,-0.868,-0.7727,-0.6635,-0.4859,-0.4008,-0.3486,-0.2943,-0.2319,-0.165,-0.1028,0.0045,0.1117,0.191,0.2923,0.4235,0.6016,0.6972,0.8158,1.0074,1.1328,1.2397,1.3279,1.4249,1.5096,1.5796,1.5852,1.6348,1.7581,1.7677,1.7913,1.8421,1.8902,1.8758,1.7847,1.8226,1.8755,1.9408,2.1138,2.2289,2.2924,2.3976,2.5175,2.651,2.651,2.6586,2.6737,2.6632,2.6273,2.5749,2.5644,2.5944,2.6452,2.6557,2.6931,2.7475,2.768,2.7315,2.6876,-2.7563,-2.711,-2.6629,-2.5668,-2.5399,-2.5341,-2.5409,-2.5467,-2.5548,-2.5605,-2.5664,-2.5703,-2.5703,-2.5703,-2.5703,-2.5703,-2.5684,-2.5663,-2.5597,-2.5479,-2.5409,-2.539,-2.5322,-2.5303,-2.5303,-2.5099,-2.4967,-2.4905,-2.4785,-2.47,-2.47,-2.4545,-2.4444,-2.4462,-2.4266,-2.419,-2.4208,-2.4133,-2.4058,-2.3783,-2.204,-2.1402,-2.1311,-1.9316,-1.8236,-1.7654,-1.6434,-1.6129,-1.6189,-1.544,-1.4572,-1.385,-1.3838,-1.3218,-1.2571,-1.2947,-1.1953,-1.045,-0.9005,-0.7145,-0.543,-0.4613,-0.4008,-0.3578,-0.349,-0.2588,-0.1649,-0.1022,0.0045,0.1383,0.2926,0.38,0.4937,0.7025,0.8691,1.0103,1.1295,1.2753,1.3966,1.4646,1.5148,1.5884,1.6925,1.705,1.7536,1.8754,1.8851,1.9084,1.9706,1.9803,1.9969,2.0198,1.9747,2.0118,2.1338,2.3149,2.4094,2.4214,2.4888,2.5673,2.651,2.651,2.6834,2.738,2.6841,2.6527,2.6393,2.5839,2.5674,2.5809,2.6378,2.6647,2.6909,2.7975,2.7981,2.7525,-2.7986,-2.6918,-2.5918,-2.538,-2.5303,-2.5303,-2.5341,-2.5404,-2.5471,-2.5584,-2.5625,-2.5664,-2.5703,-2.5703,-2.5703,-2.5703,-2.5703,-2.5684,-2.5664,-2.557,-2.5486,-2.5409,-2.537,-2.5341,-2.5303,-2.5099,-2.501,-2.501,-2.4869,-2.4804,-2.4804,-2.47,-2.4591,-2.4495,-2.441,-2.4303,-2.419,-2.419,-2.3951,-2.3474,-2.2611,-2.1553,-2.0354,-1.9339,-1.8492,-1.7671,-1.6692,-1.6667,-1.6912,-1.5712,-1.5248,-1.5151,-1.4662,-1.4393,-1.4152,-1.3871,-1.221,-1.0169,-0.8643,-0.6771,-0.5173,-0.4565,-0.3734,-0.3126,-0.3126,-0.1916,-0.0757,-0.0489,0.1021,0.2682,0.4003,0.5087,0.6422,0.8394,0.9787,1.1055,1.2287,1.3672,1.5029,1.6176,1.6722,1.7523,1.8681,1.8806,1.9179,2.0,2.039,2.0882,2.1444,2.1798,2.2069,2.2311,2.1655,2.1799,2.2828,2.3964,2.471,2.5105,2.5703,2.639,2.7086,2.7086,2.7062,2.7021,2.6722,2.6183,2.551,2.5211,2.5455,2.6092,2.6071,2.6898,2.8155,2.8387,2.831,2.8062,-2.7975,-2.6495,-2.5303,-2.5303,-2.5303,-2.5303,-2.5303,-2.537,-2.5437,-2.5551,-2.5582,-2.5625,-2.5684,-2.5703,-2.5703,-2.5703,-2.5703,-2.5703,-2.5703,-2.5643,-2.555,-2.5434,-2.5399,-2.5341,-2.5303,-2.5152,-2.5077,-2.5077,-2.4975,-2.4929,-2.491,-2.485,-2.4752,-2.4604,-2.4489,-2.4355,-2.4284,-2.4209,-2.3841,-2.3272,-2.3015,-2.1915,-2.0348,-1.9597,-1.8475,-1.7335,-1.7281,-1.7396,-1.7406,-1.6284,-1.6236,-1.6531,-1.5877,-1.5718,-1.574,-1.5036,-1.2839,-1.0237,-0.8284,-0.6508,-0.5013,-0.422,-0.3223,-0.2436,-0.2319,-0.112,0.0135,0.0533,0.2228,0.4029,0.5293,0.6484,0.7925,0.9967,1.096,1.212,1.385,1.4924,1.6148,1.7834,1.8309,1.8956,2.0146,2.0302,2.0555,2.1262,2.1787,2.2278,2.2706,2.3322,2.3834,2.4114,2.3612,2.356,2.4128,2.4836,2.5512,2.6068,2.6526,2.7034,2.761,2.776,2.7538,2.704,2.7018,2.6443,2.5483,2.5331,2.5718,2.6451,2.6305,2.7361,2.8914,2.8932,2.8785,2.8654,-2.6149,-2.5418,-2.5303,-2.5303,-2.5303,-2.5303,-2.5303,-2.537,-2.5438,-2.5495,-2.5566,-2.5625,-2.5684,-2.5703,-2.5703,-2.5703,-2.5703,-2.5703,-2.5703,-2.5701,-2.5634,-2.5498,-2.5371,-2.5303,-2.5303,-2.5293,-2.5274,-2.5274,-2.5264,-2.5253,-2.5253,-2.5008,-2.4929,-2.4943,-2.4448,-2.4329,-2.4461,-2.4266,-2.4171,-2.4006,-2.3032,-2.312,-2.3507,-2.0471,-1.7893,-1.6189,-1.7985,-1.8003,-1.7195,-1.7588,-1.7734,-1.779,-1.7841,-1.7167,-1.6456,-1.6933,-1.4689,-1.1417,-0.8415,-0.6281,-0.4583,-0.3185,-0.234,-0.1729,-0.1164,-0.0503,0.0465,0.2174,0.3272,0.4663,0.6995,0.7759,0.8905,1.1674,1.2628,1.3972,1.6715,1.7127,1.7836,1.9679,1.9391,1.9502,2.0709,2.0822,2.1305,2.2483,2.2629,2.2656,2.2692,2.3324,2.4249,2.5401,2.5473,2.5473,2.5445,2.6724,2.7384,2.7449,2.7494,2.7575,2.7625,2.8189,2.84,2.8355,2.8284,2.82,2.8067,2.7454,2.6846,2.6446,2.77,2.7876,2.7698,2.9489,2.9816,2.9416,-2.8302,-2.6764,-2.5303,-2.5303,-2.5303,-2.5303,-2.5303,-2.5322,-2.537,-2.5428,-2.5454,-2.5528,-2.5625,-2.5684,-2.5703,-2.5703,-2.5703,-2.5703,-2.5703,-2.5704,-2.5646,-2.5511,-2.5379,-2.5303,-2.5303,-2.5303,-2.5303,-2.5303,-2.5303,-2.5303,-2.5303,-2.5194,-2.5091,-2.4998,-2.4747,-2.4607,-2.4551,-2.4303,-2.419,-2.4153,-2.3768,-2.3251,-2.2682,-2.2422,-2.0135,-1.7199,-1.8457,-1.8314,-1.7637,-1.8164,-1.8141,-1.7912,-1.8068,-1.78,-1.7205,-1.5923,-1.3503,-1.0632,-0.7628,-0.5879,-0.4558,-0.3175,-0.2043,-0.1079,-0.0385,0.087,0.2376,0.3925,0.5119,0.6524,0.8421,0.8928,0.9851,1.2214,1.3484,1.4947,1.7118,1.7988,1.9114,2.0983,2.0998,2.1423,2.2949,2.279,2.2909,2.3692,2.4232,2.4507,2.4501,2.552,2.6352,2.6855,2.6885,2.6885,2.6819,2.7709,2.7944,2.761,2.7993,2.7944,2.7625,2.8238,2.8511,2.8496,2.8865,2.8778,2.8388,2.8132,2.8084,2.8192,2.8339,2.8942,2.9755,3.0137,3.0393,3.0477,-2.8341,-2.6899,-2.5303,-2.5303,-2.5303,-2.5303,-2.5303,-2.5303,-2.5322,-2.539,-2.5404,-2.5434,-2.5558,-2.5638,-2.5684,-2.5703,-2.5703,-2.5703,-2.5703,-2.5685,-2.5629,-2.5495,-2.539,-2.5322,-2.5303,-2.5303,-2.5303,-2.5303,-2.5303,-2.5303,-2.5303,-2.5303,-2.5224,-2.5088,-2.4968,-2.4827,-2.4669,-2.4393,-2.4266,-2.4209,-2.4192,-2.3545,-2.2574,-2.263,-2.1227,-1.9227,-1.9296,-1.8957,-1.8543,-1.8971,-1.8927,-1.8664,-1.8622,-1.838,-1.7652,-1.5465,-1.3014,-1.0326,-0.7437,-0.5378,-0.3726,-0.2263,-0.0911,0.0306,0.1253,0.2659,0.4214,0.5803,0.7038,0.8393,1.0066,1.0544,1.1342,1.3367,1.4583,1.5984,1.7961,1.8891,2.0171,2.2418,2.2503,2.2957,2.4514,2.4307,2.4359,2.493,2.5155,2.541,2.5879,2.697,2.7765,2.8158,2.8174,2.8174,2.8174,2.8367,2.8427,2.8247,2.8604,2.87,2.8514,2.892,2.9058,2.9104,2.9717,2.9701,2.927,2.9286,2.9395,2.9553,2.9354,2.9921,3.083,3.0657,3.0838,3.1151,-2.5303,-2.5303,-2.5303,-2.5303,-2.5303,-2.5303,-2.5303,-2.5303,-2.5322,-2.539,-2.5409,-2.5428,-2.5486,-2.5559,-2.5625,-2.5684,-2.5703,-2.5703,-2.5703,-2.5644,-2.557,-2.5495,-2.5447,-2.537,-2.5303,-2.5303,-2.5303,-2.5303,-2.5303,-2.5303,-2.5303,-2.5303,-2.5303,-2.5284,-2.5011,-2.4892,-2.4898,-2.4629,-2.4393,-2.4209,-2.4199,-2.42,-2.3842,-2.059,-2.057,-2.2089,-2.0562,-2.0016,-2.0047,-2.0249,-2.0314,-2.0246,-1.9839,-1.8968,-1.7746,-1.6016,-1.3619,-1.0959,-0.8236,-0.4873,-0.1787,-0.0204,0.1186,0.2567,0.3926,0.4739,0.5796,0.7713,0.8893,1.0107,1.1972,1.2575,1.3423,1.5297,1.6046,1.7286,1.9763,2.003,2.1049,2.406,2.3825,2.3881,2.5064,2.5221,2.5509,2.623,2.5161,2.5051,2.6461,2.7131,2.8089,2.9345,2.9406,2.9406,2.9406,2.8826,2.8885,2.9586,2.9467,2.9804,3.0491,3.0348,3.0293,3.0335,3.0935,3.119,3.119,3.119,3.0768,3.0192,3.0903,3.0751,3.0209,3.092,3.119,3.119,-2.5303,-2.5303,-2.5303,-2.5303,-2.5303,-2.5303,-2.5303,-2.5303,-2.5303,-2.5322,-2.5322,-2.537,-2.5486,-2.5437,-2.5464,-2.5683,-2.5703,-2.5703,-2.5703,-2.5684,-2.5641,-2.5573,-2.5425,-2.537,-2.5447,-2.5341,-2.5303,-2.5303,-2.5303,-2.5303,-2.5303,-2.5303,-2.5303,-2.5303,-2.5214,-2.5177,-2.5165,-2.4842,-2.467,-2.4623,-2.4628,-2.4624,-2.4479,-2.3212,-2.2408,-2.1983,-2.2329,-2.1396,-2.0171,-2.1218,-2.1065,-2.0408,-2.0177,-1.8803,-1.6927,-1.5168,-1.1836,-0.8114,-0.5337,-0.2289,0.011,0.0054,0.1519,0.3315,0.4703,0.5982,0.7596,1.0132,1.0833,1.1659,1.3609,1.3678,1.4021,1.5847,1.7329,1.892,2.0933,2.2201,2.3418,2.4807,2.4798,2.4942,2.5709,2.5411,2.568,2.6771,2.7097,2.7592,2.8497,2.8706,2.9003,2.9406,2.9406,2.9406,2.9406,2.9629,2.9637,2.9482,2.9858,2.9918,2.9756,3.0136,3.0293,3.0335,3.0935,3.119,3.119,3.119,3.1072,3.0886,3.1106,3.1072,3.0903,3.1123,3.119,3.119,-2.6274,-2.5764,-2.5514,-2.6217,-2.5774,-2.5303,-2.5303,-2.5303,-2.5303,-2.5303,-2.5303,-2.5322,-2.5409,-2.5341,-2.5363,-2.5531,-2.5636,-2.5703,-2.5703,-2.5703,-2.5684,-2.5644,-2.5508,-2.5432,-2.5505,-2.5443,-2.5404,-2.539,-2.539,-2.5341,-2.5303,-2.5341,-2.5341,-2.5303,-2.5308,-2.5298,-2.5278,-2.4993,-2.4931,-2.4988,-2.4853,-2.4891,-2.496,-2.472,-2.384,-2.279,-2.3239,-2.2459,-2.1389,-2.216,-2.1839,-2.1094,-2.0748,-1.9481,-1.7664,-1.5343,-1.1771,-0.7853,-0.457,-0.0923,0.1978,0.2091,0.3144,0.4634,0.6343,0.7804,0.9446,1.1697,1.2513,1.3402,1.5061,1.5038,1.5407,1.7483,1.8845,2.0314,2.2109,2.3437,2.4547,2.5405,2.554,2.584,2.6626,2.6425,2.6595,2.7465,2.8527,2.9221,2.934,2.9615,2.9865,3.0107,3.0123,3.0123,3.0123,3.0477,3.0483,3.021,3.0525,3.0626,3.0576,3.0609,3.0658,3.0658,3.1055,3.119,3.119,3.119,3.119,3.119,3.119,3.119,3.119,3.119,3.119,3.123,-2.7775,-2.6659,-2.6082,-2.7563,-2.6544,-2.5534,-2.5534,-2.5399,-2.5303,-2.5303,-2.5303,-2.5303,-2.5303,-2.5303,-2.5303,-2.533,-2.5558,-2.5703,-2.5703,-2.5703,-2.5703,-2.5703,-2.5644,-2.5573,-2.5522,-2.5564,-2.557,-2.5513,-2.5505,-2.5447,-2.5332,-2.5428,-2.5428,-2.5303,-2.5303,-2.5299,-2.5282,-2.5111,-2.512,-2.5267,-2.4962,-2.5032,-2.5291,-2.5296,-2.4869,-2.4173,-2.3551,-2.3315,-2.3275,-2.3074,-2.27,-2.2176,-2.1451,-2.0574,-1.9181,-1.5982,-1.2488,-0.879,-0.4819,-0.0214,0.3851,0.54,0.5873,0.6489,0.8456,0.9913,1.1294,1.2696,1.3961,1.5197,1.6367,1.6625,1.74,1.971,2.0571,2.1545,2.3302,2.4053,2.483,2.5986,2.6104,2.658,2.7792,2.8031,2.8228,2.846,2.9729,3.0203,2.954,3.0096,3.0683,3.119,3.119,3.1263,3.1353,3.1331,3.1321,3.1394,3.1278,3.1546,3.2195,3.1495,3.119,3.119,3.119,3.119,3.119,3.119,3.119,3.119,3.119,3.119,3.119,3.119,3.123,3.1329,-2.7747,-2.7928,-2.7802,-2.7294,-2.7274,-2.7332,-2.7332,-2.6178,-2.5303,-2.5303,-2.5303,-2.5303,-2.5303,-2.5303,-2.5376,-2.5598,-2.5661,-2.5703,-2.5703,-2.5703,-2.5703,-2.5703,-2.5684,-2.5662,-2.5666,-2.5563,-2.5563,-2.5666,-2.5554,-2.549,-2.5444,-2.5388,-2.5322,-2.5303,-2.5303,-2.5293,-2.5311,-2.5243,-2.5271,-2.5288,-2.5214,-2.5252,-2.5305,-2.5297,-2.5059,-2.4707,-2.442,-2.42,-2.4044,-2.4007,-2.3649,-2.3084,-2.234,-2.0426,-1.776,-1.4292,-0.9596,-0.4598,-0.0422,0.3215,0.6241,0.828,0.916,0.9723,1.0226,1.1388,1.2686,1.4018,1.5196,1.643,1.7665,1.8242,1.9127,2.1006,2.2179,2.3236,2.4495,2.5526,2.6371,2.6952,2.7034,2.7486,2.8719,2.991,3.065,3.0692,3.1498,3.1793,3.1291,3.1391,3.1414,3.119,3.119,3.1679,3.2686,3.2258,3.1793,3.1251,3.1219,3.1275,3.1427,3.1258,3.119,3.119,3.119,3.119,3.119,3.119,3.119,3.119,3.119,3.119,3.119,3.119,3.1411,3.1733,-2.8382,-2.8602,-2.8514,-2.7918,-2.8525,-2.8544,-2.6909,-2.589,-2.5303,-2.5303,-2.5303,-2.5303,-2.5303,-2.5303,-2.5413,-2.5682,-2.5703,-2.5703,-2.5703,-2.5703,-2.5703,-2.5703,-2.5703,-2.5703,-2.5703,-2.5597,-2.5597,-2.5703,-2.5622,-2.5581,-2.5553,-2.5485,-2.5428,-2.5409,-2.5409,-2.537,-2.5303,-2.537,-2.537,-2.5303,-2.5303,-2.5303,-2.5322,-2.5433,-2.5321,-2.5061,-2.4941,-2.4794,-2.4674,-2.4572,-2.4332,-2.3934,-2.2952,-2.0274,-1.6683,-1.2438,-0.7086,-0.1656,0.2497,0.6211,0.9184,1.0364,1.1639,1.2445,1.1889,1.2763,1.4011,1.5241,1.6219,1.7361,1.9123,1.9652,2.0626,2.2922,2.3919,2.4789,2.5932,2.6794,2.7487,2.8097,2.8163,2.871,3.0052,3.1239,3.193,3.193,3.2287,3.2366,3.2144,3.2127,3.2039,3.1823,3.162,3.1903,3.2792,3.23,3.196,3.1823,3.1747,3.1769,3.1823,3.1582,3.147,3.147,3.147,3.147,3.147,3.147,3.162,3.1823,3.1823,3.1823,3.1823,3.1823,3.2092,3.2466,-2.9294,-2.8909,-2.8621,-2.8736,-2.9448,-2.8986,-2.6033,-2.5418,-2.5303,-2.5303,-2.5303,-2.5303,-2.5303,-2.5348,-2.5459,-2.5683,-2.5703,-2.5703,-2.5703,-2.5703,-2.5703,-2.5703,-2.5703,-2.5703,-2.5703,-2.5628,-2.5622,-2.5703,-2.5684,-2.5637,-2.558,-2.5569,-2.5556,-2.5511,-2.5511,-2.5444,-2.5378,-2.5451,-2.5451,-2.5359,-2.5348,-2.5348,-2.5369,-2.5582,-2.5533,-2.5343,-2.5285,-2.5235,-2.5137,-2.4984,-2.4828,-2.4538,-2.3343,-2.0063,-1.5606,-1.0488,-0.4768,0.0826,0.5157,0.9136,1.2063,1.2176,1.3689,1.4835,1.3803,1.4255,1.5182,1.6194,1.7115,1.8383,2.0489,2.1016,2.205,2.4736,2.5463,2.6104,2.7341,2.7841,2.8433,2.9301,2.9583,3.0201,3.1474,3.2282,3.2713,3.2713,3.2713,3.2681,3.2616,3.2616,3.2583,3.2517,3.2267,3.2424,3.3006,3.2687,3.2792,3.3351,3.2934,3.2634,3.2502,3.2354,3.2159,3.1933,3.2054,3.2037,3.1915,3.1915,3.2127,3.2484,3.2484,3.2484,3.2517,3.2583,3.289,3.3136,-3.0033,-2.9025,-2.8236,-2.8909,-2.8602,-2.7909,-2.6918,-2.5918,-2.5303,-2.5303,-2.5303,-2.5303,-2.5303,-2.5513,-2.566,-2.5703,-2.5703,-2.5703,-2.5703,-2.5703,-2.5703,-2.5703,-2.5703,-2.5703,-2.5703,-2.5628,-2.5622,-2.5703,-2.5586,-2.5523,-2.5515,-2.5449,-2.5486,-2.5574,-2.5535,-2.5556,-2.5648,-2.554,-2.5512,-2.5565,-2.5561,-2.5556,-2.5568,-2.555,-2.5553,-2.5564,-2.5543,-2.5509,-2.5441,-2.5399,-2.4979,-2.4302,-2.3497,-1.9486,-1.4,-0.8439,-0.2357,0.3754,0.9216,1.2346,1.4111,1.4253,1.5592,1.6809,1.6581,1.6321,1.6194,1.6378,1.8085,1.9955,2.1345,2.2362,2.3645,2.5573,2.615,2.6839,2.8169,2.8679,2.9365,3.0502,3.1529,3.2208,3.2428,3.3177,3.3634,3.3634,3.3634,3.3476,3.3105,3.3124,3.2921,3.2517,3.3121,3.3997,3.5173,3.5349,3.5914,3.6796,3.5204,3.3794,3.257,3.388,3.3722,3.2453,3.314,3.3051,3.2417,3.2417,3.2451,3.2484,3.2484,3.2484,3.255,3.2952,3.3154,3.3243,-2.9694,-2.8722,-2.7846,-2.7734,-2.7014,-2.637,-2.6091,-2.561,-2.5303,-2.5303,-2.5303,-2.5303,-2.5303,-2.5543,-2.5703,-2.5703,-2.5703,-2.5703,-2.5703,-2.5703,-2.5703,-2.5703,-2.5652,-2.5638,-2.5638,-2.5537,-2.5509,-2.5599,-2.5531,-2.5499,-2.5489,-2.5512,-2.5542,-2.5601,-2.5529,-2.5523,-2.5584,-2.5529,-2.5364,-2.5179,-2.5481,-2.5579,-2.5541,-2.5505,-2.5475,-2.5442,-2.5523,-2.5527,-2.5486,-2.5407,-2.4764,-2.3566,-2.1138,-1.5736,-0.9113,-0.2863,0.3745,0.993,1.3846,1.5899,1.6991,1.7363,1.8099,1.8945,1.9748,2.0026,1.9921,1.9291,2.0315,2.1818,2.3517,2.4218,2.5277,2.7394,2.7993,2.8606,2.9686,3.0168,3.0749,3.1737,3.27,3.3275,3.3275,3.3587,3.385,3.4018,3.4018,3.4043,3.4056,3.3862,3.3899,3.4173,3.4273,3.4842,3.5976,3.6041,3.6066,3.6101,3.5781,3.5015,3.3912,3.4379,3.3978,3.2943,3.4211,3.4049,3.2925,3.3373,3.344,3.3262,3.3713,3.3894,3.3979,3.4666,3.4626,3.4225]}]]